[[{"header":{"parameterUnit":"m.s-1","parameterCategory":1,"la1":31.0,"la2":29.5877,"lo1":-88.7671,"lo2":-86.6584,"dy":0.0162,"dx":0.0185,"nx":115,"ny":88,"refTime":"2024-06-09T12:00:00:Z","depth":0,"parameterNumber":2,"parameterNumberName":"U-component_of_WINDS"},"data":[0.0,0.0,0.0,0.0,0.0,0.0,0.0,0.0,0.0,0.0,0.0,0.0,0.0,0.0,0.0,0.0,0.0,0.0,0.0,0.0,0.0,0.0,0.0,0.0,0.0,0.0,0.0,0.0,0.0,0.0,0.0,0.0,0.0,0.0,0.0,0.0,0.0,0.0,0.0,0.0,0.0,0.0,0.0,0.0,0.0,0.0,0.0,0.0,0.0,0.0,0.0,0.0,0.0,0.0,0.0,0.0,0.0,0.0,0.0,0.0,0.0,0.0,0.0,0.0,0.0,0.0,0.0,0.0,0.0,0.0,0.0,0.0,0.0,0.0,0.0,0.0,0.0,0.0,0.0,0.0,0.0,0.0,0.0,0.0,0.0,0.0,0.0,0.0,0.0,0.0,0.0,0.0,0.0,0.0,0.0,0.0,0.0,0.0,0.0,0.0,0.0,0.0,0.0,0.0,0.0,0.0,0.0,0.0,0.0,0.0,0.0,0.0,0.0,0.0,0.0,0.0,0.0,0.0,0.0,0.0,0.0,0.0,0.0,0.0,0.0,0.0,0.0,0.0,0.0,0.0,0.0,0.0,0.0,0.0,0.0,0.0,0.0,0.0,0.0,0.0,0.0,0.0,0.0,0.0,0.0,0.0,0.0,0.0,0.0,0.0,0.0,0.0,0.0,0.0,0.0,0.0,0.0,0.0,0.0,0.0,0.0,0.0,0.0,0.0,0.0,0.0,0.0,0.0,0.0,0.0,0.0,0.0,0.0,0.0,0.0,0.0,0.0,0.0,0.0,0.0,0.0,0.0,0.0,0.0,0.0,0.0,0.0,0.0,0.0,0.0,0.0,0.0,0.0,0.0,0.0,0.0,0.0,0.0,0.0,0.0,0.0,0.0,0.0,0.0,0.0,0.0,0.0,0.0,0.0,0.0,0.0,0.0,0.0,0.0,0.0,0.0,0.0,0.0,0.0,0.0,0.0,0.0,0.0,0.0,0.0,0.0,0.0,0.0,0.0,0.0,0.0,0.0,0.0,0.0,0.0,0.0,0.0,0.0,0.0,0.0,0.0,0.0,0.0,0.0,0.0,0.0,0.0,0.0,0.0,0.0,0.0,0.0,0.0,0.0,0.0,0.0,0.0,0.0,0.0,0.0,0.0,0.0,0.0,0.0,0.0,0.0,0.0,0.0,0.0,0.0,0.0,0.0,0.0,0.0,0.0,0.0,0.0,0.0,0.0,0.0,0.0,0.0,0.0,0.0,0.0,0.0,0.0,0.0,0.0,0.0,0.0,0.0,0.0,0.0,0.0,0.0,0.0,0.0,0.0,0.0,0.0,0.0,0.0,0.0,0.0,0.0,0.0,0.0,0.0,0.0,0.0,0.0,0.0,0.0,0.0,0.0,0.0,0.0,0.0,0.0,0.0,0.0,0.0,0.0,0.0,0.0,0.0,0.0,0.0,0.0,0.0,0.0,0.0,0.0,0.0,0.0,0.0,0.0,0.0,0.0,0.0,0.0,0.0,0.0,0.0,0.0,0.0,0.0,0.0,0.0,0.0,0.0,0.0,0.0,0.0,0.0,0.0,0.0,0.0,0.0,0.0,0.0,0.0,0.0,0.0,0.0,0.0,0.0,0.0,0.0,0.0,0.0,0.0,0.0,0.0,0.0,0.0,0.0,0.0,0.0,0.0,0.0,0.0,0.0,0.0,0.0,0.0,0.0,0.0,0.0,0.0,0.0,0.0,0.0,0.0,0.0,0.0,0.0,0.0,0.0,0.0,0.0,0.0,0.0,0.0,0.0,0.0,0.0,0.0,0.0,0.0,0.0,0.0,0.0,0.0,0.0,0.0,0.0,0.0,0.0,0.0,0.0,0.0,0.0,0.0,0.0,0.0,0.0,0.0,0.0,0.0,0.0,0.0,0.0,0.0,0.0,0.0,0.0,0.0,0.0,0.0,0.0,0.0,0.0,0.0,0.0,0.0,0.0,0.0,0.0,0.0,0.0,0.0,0.0,0.0,0.0,0.0,0.0,0.0,0.0,0.0,0.0,0.0,0.0,0.0,0.0,0.0,0.0,0.0,0.0,0.0,0.0,0.0,0.0,0.0,0.0,0.0,0.0,0.0,0.0,0.0,0.0,0.0,0.0,0.0,0.0,0.0,0.0,0.0,0.0,0.0,0.0,0.0,0.0,0.0,0.0,0.0,0.0,0.0,0.0,0.0,0.0,0.0,0.0,0.0,0.0,0.0,0.0,0.0,0.0,0.0,0.0,0.0,0.0,0.0,0.0,0.0,0.0,0.0,0.0,0.0,0.0,0.0,0.0,0.0,0.0,0.0,0.0,0.0,0.0,0.0,0.0,0.0,0.0,0.0,0.0,0.0,0.0,0.0,0.0,0.0,0.0,0.0,0.0,0.0,0.0,0.0,0.0,0.0,0.0,0.0,0.0,0.0,0.0,0.0,0.0,0.0,0.0,0.0,0.0,0.0,0.0,0.0,0.0,0.0,0.0,0.0,0.0,0.0,0.0,0.0,0.0,0.0,0.0,0.0,0.0,0.0,0.0,0.0,0.0,0.0,0.0,0.0,0.0,0.0,0.0,0.0,0.0,0.0,0.0,0.0,0.0,0.0,0.0,0.0,0.0,0.0,0.0,0.0,0.0,0.0,0.0,0.0,0.0,0.0,0.0,0.0,0.0,0.0,0.0,0.0,0.0,0.0,0.0,0.0,0.0,0.0,0.0,0.0,0.0,0.0,0.0,0.0,0.0,0.0,0.0,0.0,0.0,0.0,0.0,0.0,0.0,0.0,0.0,0.0,0.0,0.0,0.0,0.0,0.0,0.0,0.0,0.0,0.0,0.0,0.0,0.0,0.0,0.0,0.0,0.0,0.0,0.0,0.0,0.0,0.0,0.0,0.0,0.0,0.0,0.0,0.0,0.0,0.0,0.0,0.0,0.0,0.0,0.0,0.0,0.0,0.0,0.0,0.0,0.0,0.0,0.0,0.0,0.0,0.0,0.0,0.0,0.0,0.0,0.0,0.0,0.0,0.0,0.0,0.0,0.0,0.0,0.0,0.0,0.0,0.0,0.0,0.0,0.0,0.0,0.0,0.0,0.0,0.0,0.0,0.0,0.0,0.0,0.0,0.0,0.0,0.0,0.0,0.0,0.0,0.0,0.0,0.0,0.0,0.0,0.0,0.0,0.0,0.0,0.0,0.0,0.0,0.0,0.0,0.0,0.0,0.0,0.0,0.0,0.0,0.0,0.0,0.0,0.0,0.0,0.0,0.0,0.0,0.0,0.0,0.0,0.0,0.0,0.0,0.0,0.0,0.0,0.0,0.0,0.0,0.0,0.0,0.0,0.0,0.0,0.0,0.0,0.0,0.0,0.0,0.0,0.0,0.0,0.0,0.0,0.0,0.0,0.0,0.0,0.0,0.0,0.0,0.0,0.0,0.0,0.0,0.0,0.0,0.0,0.0,0.0,0.0,0.0,0.0,0.0,0.0,0.0,0.0,0.0,0.0,0.0,0.0,0.0,0.0,0.0,0.0,0.0,0.0,0.0,0.0,0.0,0.0,0.0,0.0,0.0,0.0,0.0,0.0,0.0,0.0,0.0,0.0,0.0,0.0,0.0,0.0,0.0,0.0,0.0,0.0,0.0,0.0,0.0,0.0,0.0,0.0,0.0,0.0,0.0,0.0,0.0,0.0,0.0,0.0,0.0,0.0,0.0,0.0,0.0,0.0,0.0,0.0,0.0,0.0,0.0,0.0,0.0,0.0,0.0,0.0,0.0,0.0,0.0,0.0,0.0,0.0,0.0,0.0,0.0,0.0,0.0,0.0,0.0,0.0,0.0,0.0,0.0,0.0,0.0,0.0,0.0,0.0,0.0,0.0,0.0,0.0,0.0,0.0,0.0,0.0,0.0,0.0,0.0,0.0,0.0,0.0,0.0,0.0,0.0,0.0,0.0,0.0,0.0,0.0,0.0,0.0,0.0,0.0,0.0,0.0,0.0,0.0,0.0,0.0,0.0,0.0,0.0,0.0,0.0,0.0,0.0,0.0,0.0,0.0,0.0,0.0,0.0,0.0,0.0,0.0,0.0,0.0,0.0,0.0,0.0,0.0,0.0,0.0,0.0,0.0,0.0,0.0,0.0,0.0,0.0,0.0,0.0,0.0,0.0,0.0,0.0,0.0,0.0,0.0,0.0,0.0,0.0,0.0,0.0,0.0,0.0,0.0,0.0,0.0,0.0,0.0,0.0,0.0,0.0,0.0,0.0,-0.7394,0.0,0.0,0.0,0.0,0.0,0.0,0.0,0.0,0.0,0.0,0.0,0.0,0.0,0.0,0.0,0.0,0.0,0.0,0.0,0.0,0.0,0.0,0.0,0.0,0.0,0.0,0.0,0.0,0.0,0.0,0.0,0.0,0.0,0.0,0.0,0.0,0.0,0.0,0.0,0.0,0.0,0.0,0.0,0.0,0.0,0.0,0.0,0.0,0.0,0.0,0.0,0.0,0.0,0.0,0.0,0.0,0.0,0.0,0.0,0.0,0.0,0.0,0.0,0.0,0.0,0.0,0.0,0.0,0.0,0.0,0.0,0.0,0.0,0.0,0.0,0.0,0.0,0.0,0.0,0.0,0.0,0.0,0.0,0.0,0.0,0.0,0.0,0.0,0.0,0.0,0.0,0.0,0.0,0.0,0.0,0.0,0.0,0.0,0.0,0.0,0.0,0.0,0.0,0.0,0.0,0.0,0.0,0.0,0.0,0.0,-0.9374,-0.9299,-0.8981,-0.8555,-0.7944,0.0,0.0,0.0,0.0,0.0,0.0,0.0,0.0,0.0,0.0,0.0,0.0,0.0,0.0,0.0,0.0,0.0,0.0,0.0,0.0,0.0,0.0,0.0,0.0,0.0,0.0,0.0,0.0,0.0,0.0,0.0,0.0,0.0,0.0,0.0,0.0,0.0,0.0,0.0,0.0,0.0,0.0,0.0,0.0,0.0,0.0,0.0,0.0,0.0,0.0,0.0,0.0,0.0,0.0,0.0,0.0,0.0,0.0,0.0,0.0,0.0,0.0,0.0,0.0,0.0,0.0,0.0,0.0,0.0,0.0,0.0,0.0,0.0,0.0,0.0,0.0,0.0,0.0,0.0,0.0,0.0,0.0,0.0,0.0,0.0,0.0,0.0,0.0,0.0,0.0,0.0,0.0,0.0,0.0,0.0,0.0,0.0,0.0,0.0,0.0,0.0,0.0,0.0,0.0,0.0,0.0,0.0,0.0,0.0,0.0,0.0,0.0,-0.9462,-0.8959,-0.8239,0.0,0.0,0.0,0.0,0.0,0.0,0.0,0.0,0.0,0.0,0.0,0.0,0.0,0.0,0.0,0.0,0.0,0.0,0.0,0.0,0.0,0.0,0.0,0.0,0.0,0.0,0.0,0.0,0.0,0.0,0.0,0.0,0.0,0.0,0.0,0.0,0.0,0.0,0.0,0.0,0.0,0.0,0.0,0.0,0.0,0.0,0.0,0.0,0.0,0.0,0.0,0.0,0.0,0.0,0.0,0.0,0.0,0.0,0.0,0.0,0.0,0.0,0.0,0.0,0.0,0.0,0.0,0.0,0.0,0.0,0.0,0.0,0.0,0.0,0.0,0.0,0.0,0.0,0.0,0.0,0.0,0.0,0.0,0.0,0.0,0.0,0.0,0.0,0.0,0.0,0.0,0.0,0.0,0.0,0.0,0.0,0.0,0.0,0.0,0.0,0.0,0.0,0.0,0.0,0.0,0.0,0.0,0.0,0.0,0.0,-0.9725,-0.979,-0.9636,0.0,-0.7816,0.0,0.0,0.0,0.0,0.0,0.0,0.0,0.0,0.0,0.0,0.0,0.0,0.0,0.0,0.0,0.0,0.0,0.0,0.0,0.0,0.0,0.0,0.0,0.0,0.0,0.0,0.0,0.0,0.0,0.0,0.0,0.0,0.0,0.0,0.0,0.0,0.0,0.0,0.0,0.0,0.0,0.0,0.0,0.0,0.0,0.0,0.0,0.0,0.0,0.0,0.0,0.0,0.0,0.0,0.0,0.0,0.0,0.0,0.0,0.0,0.0,0.0,0.0,0.0,0.0,0.0,0.0,0.0,0.0,0.0,0.0,0.0,0.0,0.0,0.0,0.0,0.0,0.0,0.0,0.0,0.0,0.0,0.0,0.0,0.0,0.0,0.0,0.0,0.0,0.0,0.0,0.0,0.0,0.0,0.0,0.0,0.0,0.0,0.0,0.0,0.0,0.0,0.0,0.0,0.0,0.0,0.0,0.0,0.0,0.0,0.0,-1.0449,-0.9603,-0.8727,0.0,0.0,0.0,0.0,0.0,0.0,0.0,0.0,0.0,0.0,0.0,0.0,0.0,0.0,0.0,0.0,0.0,0.0,0.0,0.0,0.0,0.0,0.0,0.0,0.0,0.0,0.0,0.0,0.0,0.0,0.0,0.0,0.0,0.0,0.0,0.0,0.0,0.0,0.0,0.0,0.0,0.0,0.0,0.0,0.0,0.0,0.0,0.0,0.0,0.0,0.0,0.0,0.0,0.0,0.0,0.0,0.0,0.0,0.0,0.0,0.0,0.0,0.0,0.0,0.0,0.0,0.0,0.0,0.0,0.0,0.0,0.0,0.0,0.0,0.0,0.0,0.0,0.0,0.0,0.0,0.0,0.0,0.0,0.0,0.0,0.0,0.0,0.0,0.0,0.0,0.0,0.0,0.0,0.0,0.0,0.0,0.0,0.0,0.0,0.0,0.0,0.0,0.0,0.0,0.0,0.0,0.0,0.0,0.0,0.0,-0.9842,0.0,-1.0561,-0.9394,-0.8506,-0.8021,0.0,0.0,0.0,0.0,0.0,0.0,0.0,0.0,0.0,0.0,0.0,0.0,0.0,0.0,0.0,0.0,0.0,0.0,0.0,0.0,0.0,0.0,0.0,0.0,0.0,0.0,0.0,0.0,0.0,0.0,0.0,0.0,0.0,0.0,0.0,0.0,0.0,0.0,0.0,0.0,0.0,0.0,0.0,0.0,0.0,0.0,0.0,0.0,0.0,0.0,0.0,0.0,0.0,0.0,0.0,0.0,0.0,0.0,0.0,0.0,0.0,0.0,0.0,0.0,0.0,0.0,0.0,0.0,0.0,0.0,0.0,0.0,0.0,0.0,0.0,0.0,0.0,0.0,0.0,0.0,0.0,0.0,0.0,0.0,0.0,0.0,0.0,0.0,0.0,0.0,0.0,0.0,0.0,0.0,0.0,0.0,0.0,0.0,0.0,0.0,0.0,0.0,0.0,0.0,0.0,0.0,0.0,0.0,0.0,-0.985,-0.9819,-1.0038,-0.9055,-0.8358,0.0,0.0,0.0,0.0,0.0,0.0,0.0,0.0,0.0,0.0,0.0,0.0,0.0,0.0,0.0,0.0,0.0,0.0,0.0,0.0,0.0,0.0,0.0,0.0,0.0,0.0,0.0,0.0,0.0,0.0,0.0,0.0,0.0,0.0,0.0,0.0,0.0,0.0,0.0,0.0,0.0,0.0,0.0,0.0,0.0,0.0,0.0,0.0,0.0,0.0,0.0,0.0,0.0,0.0,0.0,0.0,0.0,0.0,0.0,0.0,0.0,0.0,0.0,0.0,0.0,0.0,0.0,0.0,0.0,0.0,0.0,0.0,0.0,0.0,0.0,0.0,0.0,0.0,0.0,0.0,0.0,0.0,0.0,0.0,0.0,0.0,0.0,0.0,0.0,0.0,0.0,0.0,0.0,0.0,0.0,0.0,0.0,0.0,0.0,0.0,0.0,0.0,0.0,0.0,0.0,0.0,0.0,0.0,0.0,-1.0066,-1.0187,-1.01,-0.984,-0.8982,-0.828,0.0,0.0,0.0,0.0,0.0,0.0,0.0,0.0,0.0,0.0,0.0,0.0,0.0,0.0,0.0,0.0,0.0,0.0,0.0,0.0,0.0,0.0,0.0,0.0,0.0,0.0,0.0,0.0,0.0,0.0,0.0,0.0,0.0,0.0,0.0,0.0,0.0,0.0,0.0,0.0,0.0,0.0,0.0,0.0,0.0,0.0,0.0,0.0,0.0,0.0,0.0,0.0,0.0,0.0,0.0,0.0,0.0,0.0,0.0,0.0,0.0,0.0,0.0,0.0,0.0,0.0,0.0,0.0,0.0,0.0,0.0,0.0,0.0,0.0,0.0,0.0,0.0,0.0,0.0,0.0,0.0,0.0,0.0,0.0,0.0,0.0,0.0,0.0,0.0,0.0,0.0,0.0,0.0,0.0,0.0,0.0,0.0,0.0,0.0,0.0,0.0,0.0,0.0,0.0,0.0,0.0,0.0,0.0,0.0,-1.0092,0.0,-1.0162,0.0,-0.8861,-0.82,0.0,0.0,0.0,0.0,0.0,0.0,0.0,0.0,0.0,0.0,0.0,0.0,0.0,0.0,0.0,0.0,0.0,0.0,0.0,0.0,0.0,0.0,0.0,0.0,0.0,0.0,0.0,0.0,0.0,0.0,0.0,0.0,0.0,0.0,0.0,0.0,0.0,0.0,0.0,0.0,0.0,0.0,0.0,0.0,0.0,0.0,0.0,0.0,0.0,0.0,0.0,0.0,0.0,0.0,0.0,0.0,0.0,0.0,0.0,0.0,0.0,0.0,0.0,0.0,0.0,0.0,0.0,0.0,0.0,0.0,0.0,0.0,0.0,0.0,0.0,0.0,0.0,0.0,0.0,0.0,0.0,0.0,0.0,0.0,0.0,0.0,0.0,0.0,0.0,0.0,0.0,0.0,0.0,0.0,0.0,0.0,0.0,0.0,0.0,0.0,0.0,0.0,0.0,0.0,0.0,0.0,0.0,0.0,-0.9949,-1.0084,-1.0019,-0.9862,-0.9581,-0.8704,-0.8,0.0,0.0,0.0,0.0,0.0,0.0,0.0,0.0,0.0,0.0,0.0,0.0,0.0,0.0,0.0,0.0,0.0,0.0,0.0,0.0,0.0,0.0,0.0,0.0,0.0,0.0,0.0,0.0,0.0,0.0,0.0,0.0,0.0,0.0,0.0,0.0,0.0,0.0,0.0,0.0,0.0,0.0,0.0,0.0,0.0,0.0,0.0,0.0,0.0,0.0,0.0,0.0,0.0,0.0,0.0,0.0,0.0,0.0,0.0,0.0,0.0,0.0,0.0,0.0,0.0,0.0,0.0,0.0,0.0,0.0,0.0,0.0,0.0,0.0,0.0,0.0,0.0,0.0,0.0,0.0,0.0,0.0,0.0,0.0,0.0,0.0,0.0,0.0,0.0,0.0,0.0,0.0,0.0,0.0,0.0,0.0,0.0,0.0,0.0,0.0,0.0,0.0,0.0,0.0,0.0,0.0,0.0,0.0,0.0,-0.9963,-0.99,-0.9688,-0.9328,-0.8682,-0.8039,0.0,0.0,0.0,0.0,0.0,0.0,0.0,0.0,0.0,0.0,0.0,0.0,0.0,0.0,0.0,0.0,0.0,0.0,0.0,0.0,0.0,0.0,0.0,0.0,0.0,0.0,0.0,0.0,0.0,0.0,0.0,0.0,0.0,0.0,0.0,0.0,0.0,0.0,0.0,0.0,0.0,0.0,0.0,0.0,0.0,0.0,0.0,0.0,0.0,0.0,0.0,0.0,0.0,0.0,0.0,0.0,0.0,0.0,0.0,0.0,0.0,0.0,0.0,0.0,0.0,0.0,0.0,0.0,0.0,0.0,0.0,0.0,0.0,0.0,0.0,0.0,0.0,0.0,0.0,0.0,0.0,0.0,0.0,0.0,0.0,0.0,0.0,0.0,0.0,0.0,0.0,0.0,0.0,0.0,0.0,0.0,0.0,0.0,0.0,0.0,0.0,0.0,0.0,0.0,0.0,0.0,0.0,0.0,0.0,-1.0124,-1.0056,-0.9766,-0.9306,-0.871,-0.7986,-0.708,0.0,0.0,0.0,0.0,0.0,0.0,0.0,0.0,0.0,0.0,0.0,0.0,0.0,0.0,0.0,0.0,0.0,0.0,0.0,0.0,0.0,0.0,0.0,0.0,0.0,0.0,0.0,0.0,0.0,0.0,0.0,0.0,0.0,0.0,0.0,0.0,0.0,0.0,0.0,0.0,0.0,0.0,0.0,0.0,0.0,0.0,0.0,0.0,0.0,0.0,0.0,0.0,0.0,0.0,0.0,0.0,0.0,0.0,0.0,0.0,0.0,0.0,0.0,0.0,0.0,0.0,0.0,0.0,0.0,0.0,0.0,0.0,0.0,0.0,0.0,0.0,0.0,0.0,0.0,0.0,0.0,0.0,0.0,0.0,0.0,0.0,0.0,0.0,0.0,0.0,0.0,0.0,0.0,0.0,0.0,0.0,0.0,0.0,0.0,0.0,0.0,0.0,0.0,0.0,0.0,0.0,0.0,0.0,-1.0503,-1.0389,-1.0067,-0.9508,-0.8789,-0.7901,0.0,0.0,0.0,0.0,0.0,0.0,0.0,0.0,0.0,0.0,0.0,0.0,0.0,0.0,0.0,0.0,0.0,0.0,0.0,0.0,0.0,0.0,0.0,0.0,0.0,0.0,0.0,0.0,0.0,0.0,0.0,0.0,0.0,0.0,0.0,0.0,0.0,0.0,0.0,0.0,0.0,0.0,0.0,0.0,0.0,0.0,0.0,0.0,0.0,0.0,0.0,0.0,0.0,0.0,0.0,0.0,0.0,0.0,0.0,0.0,0.0,0.0,0.0,0.0,0.0,0.0,0.0,0.0,0.0,0.0,0.0,0.0,0.0,0.0,0.0,0.0,0.0,0.0,0.0,0.0,0.0,0.0,0.0,0.0,0.0,0.0,0.0,0.0,0.0,0.0,0.0,0.0,0.0,0.0,0.0,0.0,0.0,0.0,0.0,0.0,0.0,0.0,0.0,0.0,0.0,0.0,0.0,0.0,0.0,-1.0731,-1.0559,-1.0189,-0.9659,-0.8944,-0.8103,0.0,0.0,0.0,0.0,0.0,0.0,0.0,0.0,0.0,0.0,0.0,0.0,0.0,0.0,0.0,0.0,0.0,0.0,0.0,0.0,0.0,0.0,0.0,0.0,0.0,0.0,0.0,0.0,0.0,0.0,0.0,0.0,0.0,0.0,0.0,0.0,0.0,0.0,0.0,0.0,0.0,0.0,0.0,0.0,0.0,0.0,0.0,0.0,0.0,0.0,0.0,0.0,0.0,0.0,0.0,0.0,0.0,0.0,0.0,0.0,0.0,0.0,0.0,0.0,0.0,0.0,0.0,0.0,0.0,0.0,0.0,0.0,0.0,0.0,0.0,0.0,0.0,0.0,0.0,0.0,0.0,0.0,0.0,0.0,0.0,0.0,0.0,0.0,0.0,0.0,0.0,0.0,0.0,0.0,0.0,0.0,0.0,0.0,0.0,0.0,0.0,0.0,0.0,0.0,0.0,0.0,0.0,0.0,-1.1068,-1.0887,-1.0716,-1.0367,-0.9842,-0.9036,-0.8161,0.0,0.0,0.0,0.0,0.0,0.0,0.0,0.0,0.0,0.0,0.0,0.0,0.0,0.0,0.0,0.0,0.0,0.0,0.0,0.0,0.0,0.0,0.0,0.0,0.0,0.0,0.0,0.0,0.0,0.0,0.0,0.0,0.0,0.0,0.0,0.0,0.0,0.0,0.0,0.0,0.0,0.0,0.0,0.0,0.0,0.0,0.0,0.0,0.0,0.0,0.0,0.0,0.0,0.0,0.0,0.0,0.0,0.0,0.0,0.0,0.0,0.0,0.0,0.0,0.0,0.0,0.0,0.0,0.0,0.0,0.0,0.0,0.0,0.0,0.0,0.0,0.0,0.0,0.0,0.0,0.0,0.0,0.0,0.0,0.0,0.0,0.0,0.0,0.0,0.0,0.0,0.0,0.0,0.0,0.0,0.0,0.0,0.0,0.0,0.0,0.0,0.0,0.0,0.0,0.0,0.0,0.0,0.0,-1.1103,-1.0996,-1.0829,-1.0491,-0.997,-0.9114,-0.8184,0.0,0.0,0.0,0.0,0.0,0.0,0.0,0.0,0.0,0.0,0.0,0.0,0.0,0.0,0.0,0.0,0.0,0.0,0.0,0.0,0.0,0.0,0.0,0.0,0.0,0.0,0.0,0.0,0.0,0.0,0.0,0.0,0.0,0.0,0.0,0.0,0.0,0.0,0.0,0.0,0.0,0.0,0.0,0.0,0.0,0.0,0.0,0.0,0.0,0.0,0.0,0.0,0.0,0.0,0.0,0.0,0.0,0.0,0.0,0.0,0.0,0.0,0.0,0.0,0.0,0.0,0.0,0.0,0.0,0.0,0.0,0.0,0.0,0.0,0.0,0.0,0.0,0.0,0.0,0.0,0.0,0.0,0.0,0.0,0.0,0.0,0.0,0.0,0.0,0.0,0.0,0.0,0.0,0.0,0.0,0.0,0.0,0.0,0.0,0.0,0.0,0.0,0.0,0.0,0.0,0.0,0.0,0.0,-1.0958,-1.0853,-1.0557,-1.0244,-0.983,-0.9197,-0.8417,0.0,0.0,0.0,0.0,0.0,0.0,0.0,0.0,0.0,0.0,0.0,0.0,0.0,0.0,0.0,0.0,0.0,0.0,0.0,0.0,0.0,0.0,0.0,0.0,0.0,0.0,0.0,0.0,0.0,0.0,0.0,0.0,0.0,0.0,0.0,0.0,0.0,0.0,0.0,0.0,0.0,0.0,0.0,0.0,0.0,0.0,0.0,0.0,0.3041,0.0,0.0,0.0,0.0,0.0,0.0,0.0,0.0,0.0,0.0,0.0,0.0,0.0,0.0,0.0,0.0,0.0,0.0,0.0,0.0,0.0,0.0,0.0,0.0,0.0,0.0,0.0,0.0,0.0,0.0,0.0,0.0,0.0,0.0,0.0,0.0,0.0,0.0,0.0,0.0,0.0,0.0,0.0,0.0,0.0,0.0,0.0,0.0,0.0,0.0,0.0,0.0,0.0,0.0,0.0,0.0,0.0,0.0,0.0,-1.0828,-1.0916,-1.0506,-1.011,-0.969,-0.9208,-0.8516,0.0,0.0,0.0,0.0,0.0,0.0,0.0,0.0,0.0,0.0,0.0,0.0,0.0,0.0,0.0,0.0,0.0,0.0,0.0,0.0,0.0,0.0,0.0,0.0,0.0,0.0,0.0,0.0,0.0,0.0,0.0,0.0,0.0,0.0,0.0,0.0,0.0,0.0,0.0,0.0,0.0,0.0,0.0,0.0,0.0,0.0,0.0,0.0,0.0,0.0,0.0,0.0,0.0,0.0,0.0,0.0,0.0,0.0,0.0,0.0,0.0,0.0,0.0,0.0,0.0,0.0,0.0,0.0,0.0,0.0,0.0,0.0,0.0,0.0,0.0,0.0,0.0,0.0,0.0,0.0,0.0,0.0,0.0,0.0,0.0,0.0,0.0,0.0,0.0,0.0,0.0,0.0,0.0,0.0,0.0,0.0,0.0,0.0,0.0,0.0,0.0,0.0,0.0,0.0,0.0,0.0,0.0,-1.0596,-1.0732,-1.1,-1.0523,-0.9977,-0.9486,-0.9137,-0.8524,-0.7617,0.0,0.0,0.0,0.0,0.0,0.0,0.0,0.0,0.0,0.0,0.0,0.0,0.0,0.0,0.0,0.0,0.0,0.0,0.0,0.0,0.0,0.0,0.0,0.0,0.0,0.0,0.0,0.0,0.0,0.0,0.0,0.0,0.0,0.0,0.0,0.0,0.0,0.0,0.3488,0.3334,0.0,0.0,0.0,0.0,0.0,0.0,0.0,0.0,0.1364,0.0,0.0,0.0,0.0,0.0,0.0,0.0,0.0,0.0,0.0,0.0,0.0,0.0,0.0,0.0,0.0,0.0,0.0,0.0,0.0,0.0,0.0,0.0,0.0,0.0,0.0,0.0,0.0,0.0,0.0,0.0,0.0,0.0,0.0,0.0,0.0,0.0,0.0,0.0,0.0,0.0,0.0,0.0,0.0,0.0,0.0,0.0,0.0,0.0,0.0,0.0,0.0,0.0,0.0,0.0,0.0,-1.0874,-1.0665,-1.0621,-1.0818,-1.0333,-0.9824,-0.9358,-0.8948,-0.8326,-0.7469,0.0,0.0,0.0,0.0,0.0,0.0,0.0,0.0,0.0,0.0,0.0,0.0,0.0,0.0,0.0,0.0,0.0,0.0,0.0,0.0,0.0,0.0,0.0,0.0,0.0,0.0,0.0,0.0,0.0,0.0,0.0,0.0,0.0,0.0,0.0,0.0,0.0,0.0,0.0,0.2425,0.219,0.0,0.0,0.0,0.0,0.0,0.0,0.0,0.0,0.0383,0.0,0.0,0.0,0.0,0.0,0.0,0.0,0.0,0.0,0.0,0.0,0.0,0.0,0.0,0.0,0.0,0.0,0.0,0.0,0.0,0.0,0.0,0.0,0.0,0.0,0.0,0.0,0.0,0.0,0.0,0.0,0.0,0.0,0.0,0.0,0.0,0.0,0.0,0.0,0.0,0.0,0.0,0.0,0.0,0.0,0.0,0.0,0.0,0.0,0.0,0.0,0.0,0.0,0.0,0.0,-1.0905,-1.0594,-1.0525,-1.078,-1.0269,-0.9786,-0.9332,-0.8908,-0.8318,0.0,0.0,0.0,0.0,0.0,0.0,0.0,0.0,0.0,0.0,0.0,0.0,0.0,0.0,0.0,0.0,0.0,0.0,0.0,0.0,0.0,0.0,0.0,0.0,0.0,0.0,0.0,0.0,0.0,0.0,0.0,0.0,0.0,0.0,0.0,0.0,0.0,0.0,0.0,0.0,0.1534,0.1363,0.1107,0.0,0.0,0.0,0.0,0.0,0.0,-0.023,-0.0362,0.0,0.0,0.0,0.0,0.0,0.0,0.0,0.0,0.0,0.0,0.0,0.0,0.0,0.0,0.0,0.0,0.0,0.0,0.0,0.0,0.0,0.0,0.0,0.0,0.0,0.0,0.0,0.0,0.0,0.0,0.0,0.0,0.0,0.0,0.0,0.0,0.0,0.0,0.0,0.0,0.0,0.0,0.0,0.0,0.0,0.0,0.0,0.0,0.0,0.0,0.0,0.0,0.0,0.0,0.0,-1.0948,-1.0566,-1.0488,-1.0742,-1.0269,-0.9792,-0.93,-0.8856,-0.8298,0.0,0.0,0.0,0.0,0.0,0.0,0.0,0.0,0.0,0.0,0.0,0.0,0.0,0.0,0.0,0.0,0.0,0.0,0.0,0.0,0.0,0.0,0.0,0.0,0.0,0.0,0.0,0.0,0.0,0.0,0.0,0.0,0.0,0.0,0.0,0.0,0.0,0.0,0.0,0.0,0.0,0.0471,0.0194,0.0166,0.0,0.0,0.0,0.0,-0.0718,-0.0953,0.0,0.0,0.0,0.0,0.0,0.0,0.0,0.0,0.0,0.0,0.0,0.0,0.0,0.0,0.0,0.0,0.0,0.0,0.0,0.0,0.0,0.0,0.0,0.0,0.0,0.0,0.0,0.0,0.0,0.0,0.0,0.0,0.0,0.0,0.0,0.0,0.0,0.0,0.0,0.0,0.0,0.0,0.0,0.0,0.0,0.0,0.0,0.0,0.0,0.0,0.0,0.0,0.0,0.0,0.0,0.0,-1.0956,-1.0666,-1.0532,-1.0584,-1.0206,-0.9792,-0.9294,-0.8676,-0.8149,0.0,0.0,0.0,0.0,0.0,0.0,0.0,0.0,0.0,0.0,0.0,0.0,0.0,0.0,0.0,0.0,0.0,0.0,0.0,0.0,0.0,0.0,0.0,0.0,0.0,0.0,0.0,0.0,0.0,0.0,0.0,0.0,0.0,0.0,0.0,0.0,0.0,0.0,0.0,0.0,0.0,-0.0519,-0.0733,-0.0891,-0.102,0.0,0.0,-0.159,-0.1625,-0.1913,0.0,0.0,0.0,0.0,0.0,0.0,0.0,0.0,0.0,0.0,0.0,0.0,0.0,0.0,0.0,0.0,0.0,0.0,0.0,0.0,0.0,0.0,0.0,0.0,0.0,0.0,0.0,0.0,0.0,0.0,0.0,0.0,0.0,0.0,0.0,0.0,0.0,0.0,0.0,0.0,0.0,0.0,0.0,0.0,0.0,0.0,0.0,0.0,0.0,0.0,0.0,0.0,0.0,0.0,0.0,-1.0113,-1.0948,-1.0666,-1.0539,-1.0604,-1.0212,-0.9792,-0.93,-0.8647,-0.8198,0.0,0.0,0.0,0.0,0.0,0.0,0.0,0.0,0.0,0.0,0.0,0.0,0.0,0.0,0.0,0.0,0.0,0.0,0.0,0.0,0.0,0.0,0.0,0.0,0.0,0.0,0.0,0.0,0.0,0.0,0.0,0.0,0.0,0.0,0.0,0.0,0.0,0.0,0.0,0.0,0.0,0.0,-0.1647,-0.1796,0.0,0.0,0.0,-0.2332,-0.2331,0.0,0.0,0.0,0.0,0.0,0.0,0.0,0.0,0.0,0.0,0.0,0.0,0.0,0.0,0.0,0.0,0.0,0.0,0.0,0.0,0.0,0.0,0.0,0.0,0.0,0.0,0.0,0.0,0.0,0.0,0.0,0.0,0.0,0.0,0.0,0.0,0.0,0.0,0.0,0.0,0.0,0.0,0.0,0.0,0.0,0.0,0.0,0.0,0.0,0.0,0.0,0.0,0.0,0.0,0.0,0.0,0.0,-1.0986,-1.074,-1.0603,-1.0566,-1.0212,-0.9792,-0.9364,-0.8683,0.0,0.0,0.0,0.0,0.0,0.0,0.0,0.0,0.0,0.0,0.0,0.0,0.0,0.0,0.0,0.0,0.0,0.0,0.0,0.0,0.0,0.0,0.0,0.0,0.0,0.0,0.0,0.033,0.0,0.0,0.0,0.0,0.0,0.0,0.0,0.0,0.0,0.0,0.0,0.0,0.0,0.0,-0.2167,-0.2598,-0.2739,-0.2787,0.0,0.0,-0.3129,-0.3112,-0.3239,-0.3275,0.0,0.0,0.0,0.0,0.0,0.0,0.0,0.0,0.0,0.0,0.0,0.0,0.0,0.0,0.0,0.0,0.0,0.0,0.0,0.0,0.0,0.0,0.0,0.0,0.0,0.0,0.0,0.0,0.0,0.0,0.0,0.0,0.0,0.0,0.0,0.0,0.0,0.0,0.0,0.0,0.0,0.0,0.0,0.0,0.0,0.0,0.0,0.0,0.0,0.0,0.0,0.0,0.0,0.0,0.0,-1.0971,-1.0975,-1.0838,-1.0611,-1.0206,-0.983,-0.9472,-0.8714,-0.8292,0.0,0.0,0.0,0.0,0.0,0.0,0.0,0.0,0.0,0.0,0.0,0.0,0.0,0.0,0.0,0.0,0.0,0.0,0.0,0.0,0.0,0.0,0.0,0.0,0.0,0.0,0.0,0.0,0.0,0.0,0.0,0.0,0.0,0.0,0.0,0.0,0.0,0.0,0.0,0.0,0.0,-0.3022,-0.3548,-0.3725,-0.3814,0.0,0.0,-0.4253,-0.4199,-0.4268,-0.4214,-0.3967,0.0,0.0,0.0,0.0,0.0,0.0,0.0,0.0,0.0,0.0,0.0,0.0,0.0,0.0,0.0,0.0,0.0,0.0,0.0,0.0,0.0,0.0,0.0,0.0,0.0,0.0,0.0,0.0,0.0,0.0,0.0,0.0,0.0,0.0,0.0,0.0,0.0,0.0,0.0,0.0,0.0,0.0,0.0,0.0,0.0,0.0,0.0,0.0,0.0,0.0,0.0,0.0,0.0,-1.0773,-1.1107,-1.1056,-1.092,-1.0724,-1.0231,-0.9888,-0.9676,-0.8964,-0.8489,0.0,0.0,0.0,0.0,0.0,0.0,0.0,0.0,0.0,0.0,0.0,0.0,0.0,0.0,0.0,0.0,0.0,0.0,0.0,0.0,0.0,0.0,0.0,0.0,0.0,0.0,0.0,0.0,-0.0449,-0.0795,-0.1362,0.0,0.0,0.0,0.0,0.0,0.0,0.0,0.0,0.0,0.0,-0.4046,-0.4505,-0.4751,0.0,0.0,-0.5009,-0.5061,-0.5059,-0.5056,-0.5028,-0.4836,-0.4719,0.0,0.0,0.0,0.0,0.0,0.0,0.0,0.0,0.0,0.0,0.0,0.0,0.0,0.0,0.0,0.0,0.0,0.0,0.0,0.0,0.0,0.0,0.0,0.0,0.0,0.0,0.0,0.0,0.0,0.0,0.0,0.0,0.0,0.0,0.0,0.0,0.0,0.0,0.0,0.0,0.0,0.0,0.0,0.0,0.0,0.0,0.0,0.0,0.0,0.0,0.0,0.0,-1.1094,-1.1293,-1.1368,-1.1248,-1.1001,-1.0528,-1.0148,-0.9916,-0.9174,-0.8617,0.0,0.0,0.0,0.0,0.0,0.0,0.0,0.0,0.0,0.0,0.0,0.0,0.0,0.0,0.0,0.0,0.0,0.0,0.0,0.0,0.0,0.0,0.0,0.0,0.0,0.0,0.0,0.0,-0.101,-0.1497,-0.2193,0.0,0.0,0.0,0.0,0.0,0.0,0.0,0.0,0.0,0.0,-0.507,-0.554,-0.5826,-0.5966,-0.5966,-0.596,-0.5972,-0.5975,-0.5969,-0.5925,-0.5752,0.0,0.0,0.0,0.0,0.0,0.0,0.0,0.0,0.0,0.0,0.0,0.0,0.0,0.0,0.0,0.0,0.0,0.0,0.0,0.0,0.0,0.0,0.0,0.0,0.0,0.0,0.0,0.0,0.0,0.0,-0.9693,0.0,0.0,0.0,0.0,0.0,0.0,0.0,0.0,0.0,0.0,0.0,0.0,0.0,0.0,0.0,0.0,0.0,0.0,0.0,0.0,0.0,0.0,-1.1434,-1.1507,-1.1996,-1.2006,-1.15,-1.1022,-1.0599,-1.0209,-0.9358,-0.8714,-0.8292,0.0,0.0,0.0,0.0,0.0,0.0,0.0,0.0,0.0,0.0,0.0,0.0,0.0,0.0,0.0,0.0,0.0,0.0,0.0,0.0,0.0,0.0,0.0,0.0,0.0,0.0,-0.1185,-0.1777,-0.2362,0.0,0.0,0.0,0.0,0.0,0.0,0.0,0.0,0.0,0.0,-0.5777,-0.6044,-0.6695,-0.6905,-0.7008,-0.7008,-0.7041,-0.7038,-0.6985,-0.6962,-0.6949,0.0,0.0,0.0,0.0,0.0,0.0,0.0,0.0,0.0,0.0,0.0,0.0,0.0,0.0,0.0,0.0,0.0,0.0,0.0,0.0,0.0,0.0,0.0,0.0,0.0,0.0,0.0,-1.1292,-1.1301,0.0,0.0,0.0,0.0,0.0,0.0,0.0,0.0,0.0,0.0,0.0,-1.2027,-1.2146,0.0,0.0,0.0,0.0,0.0,0.0,0.0,0.0,0.0,0.0,0.0,0.0,-1.1792,-1.1956,-1.2188,-1.214,-1.1848,-1.145,-1.1061,-1.0612,-0.9962,-0.9227,-0.8327,0.0,0.0,0.0,0.0,0.0,0.0,0.0,0.0,0.0,0.0,0.0,0.0,0.0,0.0,0.0,0.0,0.0,0.0,0.0,0.0,0.0,0.0,0.0,0.0,0.0,-0.1594,0.0,0.0,0.0,0.0,0.0,0.0,0.0,0.0,0.0,0.0,0.0,-0.5924,-0.6496,-0.6867,-0.731,-0.7908,-0.8129,-0.8321,0.0,0.0,0.0,0.0,0.0,0.0,0.0,0.0,0.0,0.0,0.0,0.0,0.0,0.0,-0.6512,-0.5934,-0.5839,-0.5799,-0.5646,0.0,0.0,0.0,0.0,0.0,0.0,0.0,0.0,0.0,0.0,0.0,0.0,0.0,0.0,-1.2831,0.0,-1.2633,0.0,0.0,0.0,0.0,0.0,0.0,0.0,0.0,-1.2674,-1.2819,-1.2862,-1.2917,-1.2925,0.0,-1.2679,-1.2325,0.0,0.0,0.0,0.0,0.0,0.0,0.0,0.0,-1.2245,-1.2487,-1.2513,-1.2494,-1.2439,-1.2005,-1.1484,-1.0955,-1.0071,-0.9263,-0.8549,-0.7852,-0.7365,0.0,0.0,0.0,0.0,0.0,0.0,0.0,0.0,0.0,0.0,0.0,0.0,0.0,0.0,0.0,0.0,0.0,0.0,0.0,0.0,0.0,0.0,0.0,-0.2422,0.0,0.0,0.0,0.0,0.0,0.0,0.0,0.0,0.0,-0.6257,-0.6574,-0.7085,-0.7745,-0.8112,-0.8549,-0.9237,0.0,0.0,0.0,0.0,0.0,0.0,0.0,-0.9736,-0.9731,-0.9589,-0.9377,-0.9118,-0.8767,-0.8517,-0.8456,0.0,0.0,-0.7101,-0.6936,-0.6897,-0.677,-0.6727,-0.674,-0.6837,-0.6929,-0.7028,0.0,0.0,0.0,0.0,0.0,0.0,0.0,0.0,-1.4402,-1.4252,0.0,-1.3711,0.0,0.0,0.0,0.0,0.0,-1.3361,0.0,0.0,-1.3745,-1.3699,-1.3494,-1.3613,-1.3605,-1.3486,-1.3622,-1.3639,-1.357,-1.2584,0.0,0.0,0.0,0.0,0.0,0.0,-1.2674,-1.3007,-1.3006,-1.3097,-1.3274,-1.2593,-1.1877,-1.1183,-0.9739,-0.8958,-0.8874,-0.8277,-0.7817,-0.7624,-0.684,0.0,0.0,0.0,0.0,0.0,0.0,0.0,0.0,0.0,0.0,0.0,0.0,0.0,0.0,0.0,0.0,0.0,0.0,0.0,0.0,-0.2942,0.0,0.0,0.0,0.0,0.0,0.0,0.0,0.0,0.0,0.0,-0.7786,-0.7868,-0.8326,-0.9286,0.0,0.0,0.0,0.0,-1.0728,-1.0788,-1.0784,-1.0742,-1.0742,-1.0742,-1.0742,-1.0747,0.0,0.0,-0.9985,-0.993,-0.9908,-0.9935,-0.987,-0.9543,-0.8257,-0.8018,-0.7955,-0.7915,-0.7915,-0.8012,-0.8144,-0.82,-0.8253,-1.7318,0.0,0.0,0.0,0.0,-1.5605,-1.5629,-1.5544,-1.5652,-1.5517,-1.526,-1.5121,0.0,0.0,0.0,0.0,0.0,0.0,-1.4189,-1.4716,-1.4474,-1.4609,-1.5057,-1.5078,-1.5086,-1.5041,-1.4811,-1.4688,-1.4492,-1.3973,-1.3434,-1.2826,0.0,0.0,0.0,0.0,-1.3005,-1.3534,-1.3432,-1.3408,-1.3464,-1.2978,-1.2158,-1.1037,-1.0228,-0.9556,-0.9052,-0.8599,-0.8195,-0.7973,-0.7257,0.0,0.0,0.0,0.0,0.0,0.0,0.0,0.0,0.0,0.0,0.0,0.0,0.0,0.0,0.0,0.0,0.0,0.0,0.0,-0.3676,-0.4108,-0.455,0.0,0.0,0.0,0.0,0.0,0.0,0.0,0.0,0.0,-1.0053,-0.9686,-0.9577,0.0,0.0,-1.081,-1.1599,-1.1687,-1.1837,-1.2151,-1.2177,0.0,-1.1932,-1.1937,-1.1841,-1.1644,-1.1424,-1.1231,-1.0976,-1.0762,-1.0668,-1.0618,-1.0646,-1.0508,-1.0299,-0.9575,-0.9046,-0.8888,-0.8842,-0.8854,-0.8898,-0.9011,-0.9124,-1.8952,-1.812,-1.7041,-1.6466,-1.6398,-1.6499,-1.655,-1.6528,-1.6625,-1.6491,-1.6272,-1.6053,-1.5695,-1.526,-1.5338,0.0,0.0,0.0,-1.5062,-1.563,-1.5209,-1.5276,-1.5696,-1.5674,-1.5674,-1.5674,-1.5513,-1.5381,-1.5328,-1.5138,-1.4696,-1.4067,0.0,0.0,-1.3557,-1.3258,-1.3372,-1.3876,-1.36,-1.349,-1.359,-1.2978,-1.2089,-1.0933,-1.0451,-0.9898,-0.9275,-0.8914,-0.8628,-0.8344,-0.762,-0.7075,0.0,0.0,0.0,0.0,0.0,0.0,0.0,0.0,0.0,0.0,0.0,-0.3167,-0.3001,0.0,0.0,0.0,-0.3876,-0.4408,-0.4841,-0.5187,0.0,0.0,0.0,0.0,0.0,0.0,0.0,-1.0131,-1.0567,-1.1065,-1.1679,-1.1476,-1.131,-1.1349,-1.1548,-1.1942,-1.2554,0.0,-1.2736,-1.3033,-1.3055,-1.3007,-1.2856,-1.2856,-1.2764,-1.2467,-1.2266,-1.2028,-1.1768,-1.1562,-1.139,-1.1345,-1.1336,-1.138,-1.1512,-1.0942,-1.0394,-1.0057,-1.0009,-1.0009,-1.0009,-1.0109,-1.0161,-2.0379,-1.9783,-1.8046,-1.7269,-1.7197,-1.7233,-1.7354,-1.7579,-1.738,-1.7278,-1.7226,-1.6713,-1.6458,-1.6407,-1.6045,0.0,-1.6342,-1.5938,-1.5988,-1.6352,-1.5999,-1.5814,-1.5792,-1.5808,-1.58,-1.5761,-1.58,-1.5861,-1.5999,-1.5999,-1.5897,-1.5671,-1.4731,-1.4213,-1.4155,-1.3838,-1.3828,-1.4119,-1.3618,-1.347,-1.3702,-1.2734,-1.1799,-1.0959,-1.0516,-1.0042,-0.9552,-0.9257,-0.8987,-0.8711,-0.8064,-0.7484,-0.7055,0.0,0.0,0.0,0.0,0.0,0.0,0.0,0.0,0.0,0.0,0.0,0.0,0.0,0.0,0.0,-0.5066,0.0,-0.5929,-0.626,0.0,0.0,0.0,-0.8565,-0.9196,-0.9585,-1.0238,-1.1381,0.0,0.0,-1.2751,-1.3072,-1.3174,-1.2939,-1.2892,-1.3028,-1.3457,-1.3528,-1.3539,-1.3588,-1.3539,-1.3539,-1.3491,-1.3497,-1.3346,-1.3098,-1.2953,-1.2748,-1.2554,-1.2306,-1.2116,-1.2155,-1.2122,-1.2122,-1.2127,-1.2106,-1.198,-1.1463,-1.1277,-1.1228,-1.1209,-1.1258,-1.1253,-2.0676,-2.0063,-1.942,-1.8718,-1.804,-1.8337,-1.844,-1.8307,-1.8307,-1.8103,-1.7789,-1.7402,-1.7047,-1.6781,-1.6696,-1.6658,-1.6744,-1.651,-1.6598,-1.6957,-1.6715,-1.6658,-1.6758,-1.6758,-1.6637,-1.6484,-1.6444,-1.6349,-1.6173,-1.6166,-1.6013,-1.5715,-1.545,-1.5157,-1.4828,-1.4379,-1.424,-1.4471,-1.4037,-1.3512,-1.29,-1.2647,-1.21,-1.1233,-1.0896,-1.0448,-0.9817,-0.9354,-0.9065,-0.8999,-0.8551,-0.8038,-0.7484,-0.7141,0.0,0.0,0.0,0.0,0.0,0.0,0.0,0.0,0.0,-0.5054,-0.5127,0.0,-0.5581,0.0,-0.6156,-0.6714,-0.7391,-0.7625,0.0,0.0,-0.9216,-0.9725,-1.0742,-1.0964,-1.1348,-1.2361,-1.2626,-1.2928,-1.3333,-1.3578,-1.3783,-1.3915,-1.3586,-1.3423,-1.3781,-1.3786,-1.3877,-1.4064,-1.4112,-1.4016,-1.3829,-1.3642,-1.3497,-1.3443,-1.3346,-1.3298,-1.3249,-1.3201,-1.3147,-1.3152,-1.3152,-1.3152,-1.3109,-1.3152,-1.3098,-1.2905,-1.2365,-1.1829,-1.1834,-1.198,-1.2132,-2.1407,-2.0855,-2.0638,-2.0076,-1.9364,-1.9124,-1.898,-1.8845,-1.8845,-1.8733,-1.8519,-1.8143,-1.7766,-1.7385,-1.7376,-1.7509,-1.7655,-1.7426,-1.7548,-1.791,-1.7697,-1.7598,-1.7585,-1.7577,-1.7459,-1.7191,-1.704,-1.6873,-1.6683,-1.6516,-1.6301,-1.615,-1.5991,-1.5779,-1.5537,-1.4941,-1.4607,-1.4485,-1.411,-1.3532,-1.2811,-1.2723,-1.2224,-1.1342,-1.0956,-1.048,-0.9907,-0.9504,-0.9227,-0.9101,-0.8842,-0.8469,-0.8027,-0.7801,-0.7539,0.0,0.0,0.0,0.0,0.0,0.0,0.0,0.0,0.0,0.0,0.0,-0.6822,-0.7135,-0.7469,-0.7961,-0.8614,-0.8898,-0.9334,-1.0147,-1.0455,-1.0958,-1.1778,-1.196,-1.2333,-1.3084,-1.3304,-1.3526,-1.388,-1.4023,-1.4112,-1.4298,-1.4058,-1.3919,-1.4016,-1.407,-1.4112,-1.4298,-1.4298,-1.425,-1.4118,-1.3968,-1.3871,-1.3871,-1.3775,-1.369,-1.369,-1.3588,-1.3497,-1.3497,-1.3497,-1.3536,-1.3628,-1.3656,-1.3733,-1.3737,-1.3419,-1.3028,-1.2887,-1.2964,-1.3084,-2.2132,-2.1741,-2.1472,-2.1167,-2.0737,-1.9808,-1.9402,-1.9359,-1.9307,-1.9222,-1.9196,-1.8811,-1.8477,-1.8145,-1.8145,-1.8357,-1.8648,-1.8506,-1.8558,-1.8826,-1.8654,-1.8438,-1.823,-1.8186,-1.8048,-1.7798,-1.7477,-1.7318,-1.7262,-1.6961,-1.6745,-1.6681,-1.638,-1.6194,-1.6098,-1.5452,-1.4866,-1.4359,-1.3956,-1.3535,-1.3036,-1.2842,-1.2318,-1.1456,-1.0926,-1.0445,-1.0043,-0.9721,-0.9456,-0.9221,-0.9055,-0.8858,-0.8581,-0.8433,-0.8368,0.0,-0.8368,0.0,0.0,0.0,0.0,0.0,0.0,0.0,0.0,-0.7583,-0.8051,-0.8619,-0.885,-0.9184,-0.9647,-1.0054,-1.0559,-1.1192,-1.1668,-1.2136,-1.258,-1.2785,-1.3113,-1.369,-1.372,-1.3909,-1.4351,-1.4394,-1.44,-1.4442,-1.4442,-1.44,-1.4394,-1.4346,-1.4298,-1.4298,-1.4298,-1.4298,-1.4304,-1.4298,-1.425,-1.4256,-1.4165,-1.4032,-1.4044,-1.3928,-1.3794,-1.3794,-1.3914,-1.3972,-1.412,-1.4205,-1.4275,-1.4505,-1.454,-1.4381,-1.4063,-1.4012,-1.413,-2.2264,-2.1963,-2.158,-2.1347,-2.1248,-2.0802,-2.0427,-2.0061,-1.9769,-1.9461,-1.9213,-1.9144,-1.9067,-1.8965,-1.8956,-1.899,-1.911,-1.9067,-1.9067,-1.9136,-1.8878,-1.8654,-1.8438,-1.8221,-1.7996,-1.7806,-1.7751,-1.754,-1.7321,-1.7249,-1.7024,-1.6697,-1.6454,-1.6257,-1.6079,0.0,0.0,0.0,-1.3738,-1.3442,-1.3159,-1.2777,-1.2413,-1.2024,-1.1302,0.0,-1.0556,-1.0081,-0.9805,-0.9751,-0.952,0.0,0.0,0.0,0.0,0.0,0.0,0.0,0.0,0.0,0.0,0.0,-0.9608,-0.9314,-0.8478,-0.8809,-0.917,-0.946,-0.984,-1.0267,-1.0661,-1.1189,-1.166,-1.2124,-1.2422,-1.2802,-1.3327,-1.3461,-1.3696,-1.4386,-1.4512,-1.4632,-1.4867,-1.4933,-1.4933,-1.4933,-1.4939,-1.4933,-1.4933,-1.4592,-1.4346,-1.4298,-1.4358,-1.4352,-1.4298,-1.4364,-1.4401,-1.4322,-1.4455,-1.4532,-1.4605,-1.4904,-1.5076,-1.507,-1.5351,-1.5501,-1.5576,-1.5588,-1.5557,-1.5657,-1.5676,-1.5493,-1.4788,-1.4776,-1.499,-2.2344,0.0,-2.1741,-2.1482,0.0,-2.1248,-2.097,-2.0628,-2.0319,-1.9928,-1.9453,-1.9453,-1.935,-1.9179,-1.9179,-1.9281,-1.9461,-1.9453,-1.9555,-1.9727,-1.9462,-1.9248,-1.9018,-1.875,-1.8519,-1.8287,-1.8112,-1.7946,-1.7787,-1.7655,-1.7299,-1.6784,-1.6693,-1.6399,-1.5914,-1.5318,-1.4774,-1.4214,-1.3947,-1.3642,-1.3259,-1.2915,-1.251,-1.1997,-1.1397,0.0,0.0,0.0,0.0,0.0,0.0,0.0,0.0,0.0,0.0,-0.95,-0.95,-0.9579,-0.9775,-1.0026,-1.0153,-1.0214,-1.0578,-1.0528,-0.9895,-1.0065,-1.034,-1.0646,-1.1043,-1.1368,-1.166,-1.2167,-1.2634,-1.2973,-1.3307,-1.3716,-1.4098,-1.4247,-1.4492,-1.4806,-1.4885,-1.4933,-1.5083,-1.5131,-1.5131,-1.5131,-1.5131,-1.5137,-1.5083,-1.4885,-1.4688,-1.4694,-1.4818,-1.4892,-1.4898,-1.5065,-1.5133,-1.5165,-1.5264,-1.5351,-1.5307,-1.5563,-1.5752,-1.5752,-1.5859,-1.5998,-1.6145,-1.617,-1.6209,-1.633,-1.6368,-1.6323,-1.6012,-1.5855,-1.5799,-2.2397,-2.2353,-2.1874,-2.1607,-2.1437,-2.1446,-2.1284,-2.0997,0.0,0.0,0.0,-1.9794,-1.9658,-1.9419,-1.9367,-1.9538,-1.9794,-1.9794,-1.9956,-2.0201,-1.9982,-1.9716,-1.9533,-1.925,-1.9012,-1.8812,-1.8533,-1.8359,-1.825,-1.7965,-1.7518,-1.6947,-1.6873,-1.6457,-1.5637,-1.5013,-1.4566,-1.4356,-1.4166,-1.3842,-1.3398,-1.3086,-1.2647,-1.1992,-1.1467,-1.1087,-1.0833,-1.0533,-1.0364,-1.0364,-1.0316,-1.0333,-1.0333,-1.0333,-1.0316,-1.0358,-1.0406,-1.0419,-1.0343,-1.0732,-1.0977,-1.0909,-1.1265,-1.1387,-1.115,-1.1148,-1.1353,-1.1763,-1.21,-1.2336,-1.2504,-1.3062,-1.3487,-1.3701,-1.4141,-1.4546,-1.4752,-1.4933,-1.507,-1.5172,-1.5172,-1.5172,-1.5226,-1.5274,-1.522,-1.5233,-1.5325,-1.5329,-1.5355,-1.5265,-1.5156,-1.5286,-1.5403,-1.5566,-1.5598,-1.5781,-1.596,-1.5922,-1.5985,-1.6037,-1.6043,-1.6132,-1.6215,-1.6266,-1.6272,-1.6375,-1.6504,-1.66,-1.6626,-1.6844,-1.6889,-1.6948,-1.7147,-1.6873,-1.6626,-2.2397,-2.2353,-2.1874,-2.1696,-2.1642,-2.1651,-2.1419,-2.0997,-2.0781,-2.0538,-2.0215,-2.0215,-2.0189,-2.0129,-2.0138,-2.0163,-2.0223,-2.0223,-2.0104,-1.9928,-1.9762,-1.9525,-1.9234,-1.8958,-1.8827,-1.8781,-1.8772,-1.846,-1.8012,-1.7905,-1.7569,-1.7049,-1.6792,-1.6227,-1.5312,-1.4874,-1.4531,-1.4124,-1.387,-1.3717,-1.363,-1.3064,-1.2706,-1.2572,-1.1851,-1.1423,-1.1375,-1.0936,-1.0629,-1.0659,-1.0418,-1.0333,-1.0298,-1.0316,-1.0394,-1.0623,-1.0845,-1.1074,-1.1303,-1.1603,-1.1828,-1.2044,-1.2134,-1.2017,-1.1651,-1.1792,-1.2026,-1.2283,-1.274,-1.3056,-1.3115,-1.3701,-1.4155,-1.4204,-1.4691,-1.4991,-1.5035,-1.5083,-1.522,-1.5404,-1.5452,-1.5493,-1.5642,-1.5703,-1.5668,-1.5736,-1.5873,-1.6202,-1.6262,-1.5875,-1.5603,-1.5788,-1.5877,-1.5909,-1.5966,-1.5985,-1.6068,-1.5966,-1.6183,-1.6317,-1.6369,-1.6685,-1.6918,-1.6983,-1.7147,-1.7285,-1.7344,-1.7417,-1.7364,-1.7424,-1.7424,-1.7424,-1.7483,-1.7423,-1.7358,-2.2397,-2.2353,-2.1919,-2.1687,-2.1687,-2.1562,-2.1329,-2.0997,-2.0781,-2.0564,-2.0292,-2.0292,-2.0292,-2.0292,-2.0292,-2.0292,-2.0292,-2.0155,-2.0019,-1.9891,-1.9571,-1.9342,-1.9188,-1.892,-1.8735,-1.8651,-1.8658,-1.8426,-1.8011,-1.7995,-1.769,-1.7093,-1.6603,-1.6037,-1.5491,-1.5024,-1.4658,-1.4322,-1.3907,-1.3652,-1.3519,-1.3144,-1.2762,-1.2484,-1.2118,-1.1844,-1.1706,-1.1504,-1.1339,-1.1371,-1.1256,-1.1158,-1.1152,-1.1158,-1.1206,-1.1327,-1.1441,-1.1606,-1.1694,-1.1946,-1.2312,-1.2662,-1.2753,-1.2727,-1.2697,-1.2685,-1.2742,-1.2995,-1.3346,-1.3638,-1.3783,-1.4253,-1.4603,-1.4703,-1.5102,-1.5309,-1.5309,-1.5404,-1.5547,-1.5642,-1.5635,-1.5683,-1.5778,-1.5965,-1.6072,-1.6092,-1.6326,-1.662,-1.6894,-1.6632,-1.6375,-1.6432,-1.6537,-1.6636,-1.6655,-1.6793,-1.6865,-1.6885,-1.6931,-1.7003,-1.7016,-1.7259,-1.7364,-1.743,-1.7529,-1.7589,-1.7589,-1.7589,-1.7589,-1.7589,-1.7589,-1.7589,-1.7589,-1.7589,-1.7589,-2.2539,-2.2529,-2.1956,-2.1651,-2.1607,-2.1383,-2.115,-2.0916,-2.069,-2.0473,-2.0283,-2.0292,-2.0292,-2.0292,-2.0238,-2.0201,-2.0155,-1.9982,-1.9799,-1.9691,-1.9371,-1.9188,-1.9104,-1.8827,-1.8658,-1.8481,-1.8435,-1.8288,-1.804,-1.7994,-1.7733,-1.7143,-1.6427,-1.5904,-1.5725,-1.5218,-1.4848,-1.4603,-1.4064,-1.3674,-1.3398,-1.3222,-1.2862,-1.2421,-1.2337,-1.2175,-1.2023,-1.191,-1.1886,-1.1886,-1.1886,-1.1886,-1.1886,-1.1886,-1.1886,-1.1886,-1.198,-1.1994,-1.2107,-1.2301,-1.2674,-1.3035,-1.3137,-1.3276,-1.3544,-1.3468,-1.3426,-1.3592,-1.3886,-1.419,-1.4349,-1.47,-1.4981,-1.5172,-1.5404,-1.554,-1.5588,-1.5683,-1.5825,-1.5825,-1.5825,-1.5804,-1.5945,-1.6126,-1.6368,-1.6536,-1.6673,-1.6914,-1.7226,-1.73,-1.7141,-1.7034,-1.7101,-1.7235,-1.7313,-1.7408,-1.7535,-1.7589,-1.7575,-1.7503,-1.7569,-1.7575,-1.7589,-1.7582,-1.7582,-1.7589,-1.7589,-1.7589,-1.7589,-1.7589,-1.7589,-1.7589,-1.7589,-1.7589,-1.7589,-2.3009,-2.2907,-2.2094,-2.1616,-2.141,-2.115,-2.0916,-2.069,-2.0428,-2.0337,-2.0292,-2.0292,-2.0292,-2.0246,-2.0065,-1.9928,-1.9928,-1.9716,-1.9533,-1.9288,-1.9234,-1.905,-1.8835,-1.8612,-1.8527,-1.8435,-1.8234,-1.7994,-1.7768,-1.7721,-1.7466,-1.6994,-1.6423,-1.5993,-1.5789,-1.5438,-1.5147,-1.4961,-1.441,-1.3911,-1.3411,-1.3185,-1.2954,-1.2668,-1.2439,-1.2306,-1.227,-1.2006,-1.1886,-1.1886,-1.1898,-1.1892,-1.1898,-1.1892,-1.1892,-1.191,-1.2149,-1.2379,-1.2614,-1.2854,-1.3067,-1.3089,-1.3306,-1.3586,-1.3839,-1.4084,-1.4071,-1.4046,-1.4348,-1.4626,-1.4704,-1.5099,-1.5404,-1.5452,-1.5635,-1.5778,-1.5778,-1.5778,-1.5825,-1.5825,-1.5818,-1.5925,-1.6186,-1.6355,-1.6569,-1.7018,-1.7112,-1.7246,-1.7435,-1.7548,-1.7495,-1.7475,-1.7528,-1.7522,-1.7574,-1.7601,-1.7589,-1.7589,-1.7589,-1.7589,-1.7589,-1.7589,-1.7589,-1.7589,-1.7589,-1.7589,-1.7589,-1.7589,-1.7589,-1.7589,-1.7589,-1.7589,-1.7589,-1.7589,-1.7589,-2.3389,-2.3158,-2.2621,-2.2181,-2.1726,-2.1112,-2.0781,-2.0654,-2.0238,-2.0065,-2.0019,-1.9945,-1.9936,-2.0019,-1.9853,-1.9716,-1.9716,-1.9487,-1.9279,-1.9188,-1.8928,-1.8751,-1.8612,-1.8381,-1.8187,-1.8055,-1.7908,-1.7714,-1.7481,-1.7347,-1.712,-1.677,-1.6369,-1.6126,-1.6019,-1.5601,-1.5308,-1.5211,-1.484,-1.4495,-1.4088,-1.3563,-1.3179,-1.2954,-1.2813,-1.2674,-1.2536,-1.2439,-1.2385,-1.2385,-1.2343,-1.2385,-1.2385,-1.2385,-1.2385,-1.2397,-1.2644,-1.2794,-1.2952,-1.3206,-1.3423,-1.3574,-1.3682,-1.3904,-1.4348,-1.4479,-1.4527,-1.4634,-1.4823,-1.4981,-1.5166,-1.535,-1.554,-1.5635,-1.5778,-1.5825,-1.5825,-1.5832,-1.5885,-1.6046,-1.6092,-1.6206,-1.6486,-1.6737,-1.7005,-1.7373,-1.7454,-1.7514,-1.7575,-1.7589,-1.7589,-1.7589,-1.7589,-1.7589,-1.7589,-1.7589,-1.7589,-1.7589,-1.7589,-1.7589,-1.7589,-1.7589,-1.7589,-1.7589,-1.7589,-1.7589,-1.7589,-1.7589,-1.7589,-1.7589,-1.7589,-1.7589,-1.7589,-1.7589,-1.7589,-2.3627,-2.3429,-2.3006,-2.2395,-2.1721,-2.1116,-2.0704,-2.0473,-2.0065,-1.9882,-1.9808,-1.9579,-1.9525,-1.9563,-1.9525,-1.9479,-1.9433,-1.915,-1.9012,-1.8966,-1.8566,-1.8388,-1.8388,-1.8141,-1.79,-1.7721,-1.7581,-1.7347,-1.7106,-1.6878,-1.6697,-1.6501,-1.6218,-1.6082,-1.6055,-1.5712,-1.5518,-1.5491,-1.5231,-1.5032,-1.4733,-1.4182,-1.3675,-1.3341,-1.3223,-1.3058,-1.2833,-1.2833,-1.279,-1.2699,-1.2705,-1.2705,-1.2705,-1.2777,-1.285,-1.2928,-1.3115,-1.3185,-1.3191,-1.3471,-1.3701,-1.3882,-1.4013,-1.4288,-1.4638,-1.4831,-1.5022,-1.5159,-1.5274,-1.5363,-1.5452,-1.554,-1.5635,-1.5778,-1.5825,-1.5825,-1.5825,-1.5831,-1.6039,-1.6233,-1.6326,-1.6506,-1.6794,-1.7068,-1.7393,-1.7568,-1.7575,-1.7589,-1.7589,-1.7589,-1.7589,-1.7589,-1.7589,-1.7589,-1.7589,-1.7589,-1.7589,-1.7589,-1.7589,-1.7589,-1.7589,-1.7589,-1.7589,-1.7589,-1.7589,-1.7589,-1.7589,-1.7589,-1.7635,-1.7589,-1.7641,-1.7641,-1.7589,-1.7589,-1.7589,-2.3866,-2.3762,-2.2878,-2.2046,-2.1247,-2.1165,-2.0672,-2.0007,-1.9907,-1.9816,-1.9579,-1.9296,-1.9058,-1.8874,-1.9104,-1.9188,-1.915,-1.8751,-1.8566,-1.8527,-1.8234,-1.8133,-1.8087,-1.7854,-1.7675,-1.7581,-1.7254,-1.6932,-1.6636,-1.6407,-1.6224,-1.617,-1.5981,-1.5832,-1.5825,-1.5798,-1.5798,-1.5745,-1.5511,-1.5378,-1.5337,-1.5032,-1.4504,-1.3861,-1.3544,-1.3351,-1.3125,-1.3107,-1.2985,-1.2717,-1.2741,-1.2729,-1.2741,-1.2927,-1.3212,-1.3417,-1.3483,-1.3495,-1.348,-1.3743,-1.3906,-1.3995,-1.4372,-1.4669,-1.4777,-1.5166,-1.5397,-1.5499,-1.5635,-1.5689,-1.5547,-1.5635,-1.5778,-1.5784,-1.5825,-1.5825,-1.5852,-1.6079,-1.6233,-1.6353,-1.6573,-1.6827,-1.7159,-1.7434,-1.7515,-1.7575,-1.7589,-1.7589,-1.7589,-1.7589,-1.7589,-1.7589,-1.7589,-1.7589,-1.7589,-1.7589,-1.7589,-1.7589,-1.7589,-1.7589,-1.7589,-1.7589,-1.7589,-1.7589,-1.7589,-1.7589,-1.7589,-1.7635,-1.7635,-1.7635,-1.7694,-1.7694,-1.7799,-1.7641,-1.7668,-2.4128,-2.3748,-2.2823,-2.214,-2.1664,-2.1271,-2.0665,-2.0057,-1.9863,-1.9499,-1.909,-1.8843,-1.8604,-1.8357,-1.845,-1.8496,-1.8496,-1.8326,-1.8234,-1.8195,-1.7947,-1.7854,-1.7815,-1.7448,-1.7261,-1.7207,-1.6918,-1.6588,-1.6359,-1.6224,-1.6123,-1.5974,-1.5879,-1.5825,-1.5825,-1.5825,-1.5825,-1.5771,-1.5718,-1.5671,-1.5638,-1.5398,-1.5086,-1.4844,-1.439,-1.4058,-1.3882,-1.3717,-1.3585,-1.3496,-1.3319,-1.3224,-1.3236,-1.332,-1.3411,-1.3513,-1.367,-1.3761,-1.3791,-1.4202,-1.4397,-1.445,-1.4727,-1.5022,-1.5207,-1.5397,-1.554,-1.5683,-1.5778,-1.5778,-1.573,-1.5778,-1.5825,-1.5825,-1.5832,-1.5912,-1.6072,-1.6213,-1.6455,-1.6824,-1.7139,-1.7315,-1.7382,-1.7515,-1.7582,-1.7589,-1.7589,-1.7589,-1.7589,-1.7589,-1.7589,-1.7589,-1.7589,-1.7589,-1.7589,-1.7589,-1.7589,-1.7589,-1.7589,-1.7589,-1.7589,-1.7589,-1.7589,-1.7589,-1.7589,-1.7641,-1.7641,-1.774,-1.774,-1.7852,-1.7852,-1.7911,-1.8115,-1.7966,-1.7994,-2.3945,-2.3461,-2.2766,-2.2206,-2.1822,-2.1275,-2.0716,-2.0155,-1.9853,-1.9423,-1.8902,-1.8637,-1.8349,-1.8009,-1.7947,-1.7854,-1.7768,-1.79,-1.7994,-1.7955,-1.7628,-1.7495,-1.7402,-1.7073,-1.6878,-1.6831,-1.6595,-1.6305,-1.6076,-1.6076,-1.5981,-1.5825,-1.5825,-1.5825,-1.5825,-1.5825,-1.5825,-1.5825,-1.5825,-1.5825,-1.5751,-1.5638,-1.5538,-1.5511,-1.5199,-1.4767,-1.443,-1.4237,-1.4108,-1.4011,-1.3882,-1.3783,-1.3771,-1.3686,-1.3728,-1.3871,-1.407,-1.4174,-1.4292,-1.4636,-1.4831,-1.4838,-1.5077,-1.5315,-1.5499,-1.554,-1.5689,-1.5784,-1.5825,-1.5825,-1.5825,-1.5825,-1.5825,-1.5845,-1.5912,-1.6046,-1.6301,-1.6496,-1.6824,-1.7233,-1.7474,-1.7549,-1.7589,-1.7582,-1.7589,-1.7589,-1.7589,-1.7589,-1.7589,-1.7589,-1.7589,-1.7589,-1.7589,-1.7589,-1.7589,-1.7589,-1.7589,-1.7589,-1.7589,-1.7589,-1.7589,-1.7589,-1.7641,-1.7641,-1.7641,-1.7635,-1.774,-1.7793,-1.7964,-1.8135,-1.8135,-1.8195,-1.8303,-1.834,-1.8391,-2.3247,-2.2987,-2.2627,-2.2121,-2.1619,-2.1329,-2.0802,-2.02,-1.9941,-1.9492,-1.8947,-1.8693,-1.8288,-1.7804,-1.7742,-1.7463,-1.7207,-1.7495,-1.7628,-1.7574,-1.7214,-1.7026,-1.6979,-1.6737,-1.6588,-1.6541,-1.6312,-1.6076,-1.5825,-1.5825,-1.5825,-1.5825,-1.5825,-1.5825,-1.5825,-1.5825,-1.5825,-1.5825,-1.5825,-1.5825,-1.5825,-1.5798,-1.5738,-1.5798,-1.5724,-1.5385,-1.4708,-1.4643,-1.4534,-1.4379,-1.4333,-1.4292,-1.4294,-1.4105,-1.4162,-1.4535,-1.4669,-1.4825,-1.5016,-1.507,-1.5077,-1.5124,-1.5356,-1.5493,-1.5547,-1.5689,-1.5784,-1.5784,-1.5825,-1.5825,-1.5832,-1.5865,-1.5872,-1.5865,-1.6079,-1.6288,-1.6469,-1.6864,-1.7306,-1.7541,-1.7582,-1.7582,-1.7589,-1.7589,-1.7589,-1.7589,-1.7589,-1.7589,-1.7589,-1.7589,-1.7589,-1.7589,-1.7589,-1.7589,-1.7589,-1.7589,-1.7589,-1.7589,-1.7589,-1.7589,-1.7589,-1.7589,-1.7694,-1.7694,-1.7852,-1.7852,-1.803,-1.8149,-1.8376,-1.8496,-1.8475,-1.8618,-1.8819,-1.8973,-1.8795,-2.2728,-2.2585,-2.2131,-2.1718,-2.1417,-2.1316,-2.0811,-2.01,-1.9943,-1.9501,-1.8889,-1.8705,-1.8323,-1.7824,-1.7581,-1.733,-1.7041,-1.6965,-1.6918,-1.6918,-1.6784,-1.673,-1.6683,-1.6454,-1.6211,-1.6069,-1.5974,-1.5879,-1.5825,-1.5825,-1.5825,-1.5825,-1.5825,-1.5825,-1.5778,-1.5825,-1.5825,-1.5825,-1.5825,-1.5825,-1.5825,-1.5778,-1.5778,-1.5825,-1.5825,-1.5631,-1.5431,-1.5278,-1.5178,-1.5124,-1.4957,-1.486,-1.4836,-1.476,-1.4804,-1.4921,-1.4981,-1.4981,-1.5083,-1.5267,-1.5356,-1.5404,-1.5588,-1.5683,-1.5737,-1.573,-1.5825,-1.5825,-1.5825,-1.5825,-1.5858,-1.6025,-1.6119,-1.6139,-1.6219,-1.6522,-1.6864,-1.7246,-1.7448,-1.7555,-1.7589,-1.7589,-1.7589,-1.7589,-1.7589,-1.7589,-1.7589,-1.7589,-1.7589,-1.7589,-1.7589,-1.7589,-1.7589,-1.7589,-1.7589,-1.7602,-1.7615,-1.7629,-1.7629,-1.7589,-1.7589,-1.7694,-1.7747,-1.792,-1.8064,-1.8197,-1.8369,-1.853,-1.8862,-1.9028,-1.9174,-1.9402,-1.9653,-1.955,-1.9216,-2.2224,-2.2123,-2.1725,-2.1479,-2.1275,-2.1113,-2.0703,-2.021,-1.9984,-1.9497,-1.8982,-1.8795,-1.8405,-1.7904,-1.7665,-1.73,-1.6887,-1.6716,-1.651,-1.6366,-1.64,-1.6447,-1.6407,-1.6163,-1.5974,-1.5832,-1.5825,-1.5825,-1.5825,-1.5825,-1.5825,-1.5825,-1.5825,-1.5778,-1.5689,-1.5683,-1.5642,-1.5547,-1.5547,-1.5547,-1.5553,-1.5553,-1.5553,-1.5553,-1.5547,-1.5547,-1.5547,-1.5493,-1.554,-1.554,-1.5356,-1.5267,-1.522,-1.5172,-1.5131,-1.522,-1.5267,-1.5267,-1.5363,-1.554,-1.5588,-1.5635,-1.573,-1.5825,-1.5825,-1.5825,-1.5825,-1.5825,-1.5825,-1.5831,-1.5999,-1.6146,-1.6395,-1.6636,-1.667,-1.6864,-1.7241,-1.7468,-1.7569,-1.7589,-1.7589,-1.7589,-1.7589,-1.7589,-1.7589,-1.7589,-1.7589,-1.7589,-1.7589,-1.7589,-1.7589,-1.7589,-1.7589,-1.7589,-1.7589,-1.7609,-1.7649,-1.7669,-1.7682,-1.7622,-1.7589,-1.7753,-1.7865,-1.8422,-1.8652,-1.8959,-1.9109,-1.9306,-1.956,-1.9668,-1.9747,-1.9833,-1.9864,-1.9563,-1.9291,-2.1674,-2.1623,-2.1369,-2.1224,-2.1173,-2.0712,-2.0447,-2.0344,-1.9916,-1.9485,-1.9203,-1.8963,-1.8542,-1.8046,-1.7896,-1.7478,-1.6849,-1.6703,-1.6483,-1.6143,-1.6157,-1.6225,-1.613,-1.5927,-1.5825,-1.5825,-1.5825,-1.5825,-1.5825,-1.5825,-1.5778,-1.5778,-1.5737,-1.5689,-1.5499,-1.5452,-1.5363,-1.5178,-1.5124,-1.5131,-1.5131,-1.5131,-1.5131,-1.5131,-1.5131,-1.5178,-1.5178,-1.5363,-1.5547,-1.573,-1.5588,-1.5493,-1.5452,-1.5267,-1.5315,-1.5493,-1.5547,-1.5588,-1.573,-1.5778,-1.5778,-1.5778,-1.5778,-1.5825,-1.5825,-1.5825,-1.5825,-1.5832,-1.5865,-1.5979,-1.6186,-1.6415,-1.6663,-1.7105,-1.7172,-1.7326,-1.7522,-1.7575,-1.7582,-1.7589,-1.7589,-1.7589,-1.7589,-1.7589,-1.7589,-1.7589,-1.7589,-1.7589,-1.7589,-1.7589,-1.7595,-1.7629,-1.7702,-1.7796,-1.7862,-1.7923,-1.7963,-1.7983,-1.7969,-1.7896,-1.7916,-1.8076,-1.8295,-1.8784,-1.9243,-1.9562,-1.9811,-1.9866,-1.9964,-2.0036,-2.006,-2.0084,-1.9906,-1.9682,-1.9462,-2.142,-2.1377,-2.0925,-2.0719,-2.0668,-2.0344,-2.0094,-1.9887,-1.9783,-1.9524,-1.9295,-1.9199,-1.8811,-1.8282,-1.8051,-1.7637,-1.7059,-1.6799,-1.6623,-1.6453,-1.6295,-1.6128,-1.5967,-1.5832,-1.5825,-1.5825,-1.5778,-1.5825,-1.5825,-1.5784,-1.5683,-1.5588,-1.5588,-1.5458,-1.522,-1.522,-1.5178,-1.5131,-1.5083,-1.5083,-1.5083,-1.5083,-1.5131,-1.5131,-1.5083,-1.5083,-1.5083,-1.5178,-1.5404,-1.5778,-1.5737,-1.5737,-1.5689,-1.5642,-1.5594,-1.5642,-1.573,-1.573,-1.5778,-1.5825,-1.5825,-1.5825,-1.5778,-1.5825,-1.5825,-1.5832,-1.5832,-1.5865,-1.6005,-1.6186,-1.6382,-1.6717,-1.7112,-1.7434,-1.7494,-1.7482,-1.7555,-1.7589,-1.7589,-1.7589,-1.7589,-1.7589,-1.7589,-1.7589,-1.7589,-1.7589,-1.7609,-1.7615,-1.7649,-1.7702,-1.7756,-1.7883,-1.7922,-1.809,-1.819,-1.825,-1.8297,-1.8337,-1.8343,-1.8337,-1.8496,-1.87,-1.8939,-1.9303,-1.9635,-1.995,-2.0075,-2.0123,-2.0258,-2.0269,-2.0188,-2.0139,-2.0103,-1.9908,-1.9658,-2.107,-2.0925,-2.0617,-2.0462,-2.03,-2.0034,-1.9828,-1.968,-1.9576,-1.9428,-1.9272,-1.9168,-1.8866,-1.8384,-1.8112,-1.7688,-1.7181,-1.6995,-1.682,-1.663,-1.6434,-1.6135,-1.5884,-1.5825,-1.5825,-1.5784,-1.5737,-1.5683,-1.5635,-1.5547,-1.5452,-1.5356,-1.5309,-1.522,-1.4933,-1.4933,-1.4885,-1.479,-1.4783,-1.4742,-1.4742,-1.479,-1.4783,-1.479,-1.479,-1.479,-1.4885,-1.4933,-1.5124,-1.541,-1.5506,-1.5499,-1.5499,-1.5635,-1.5683,-1.5683,-1.573,-1.5825,-1.5825,-1.5825,-1.573,-1.5683,-1.5683,-1.5588,-1.558,-1.5693,-1.5861,-1.5895,-1.6237,-1.6486,-1.6744,-1.7119,-1.742,-1.7535,-1.7589,-1.7589,-1.7589,-1.7589,-1.7589,-1.7589,-1.7589,-1.7589,-1.7589,-1.7589,-1.7589,-1.7615,-1.7736,-1.7769,-1.7809,-1.7876,-1.7989,-1.815,-1.8182,-1.833,-1.8397,-1.8457,-1.8584,-1.8637,-1.8744,-1.8794,-1.8847,-1.9119,-1.932,-1.957,-1.9996,-2.0242,-2.0271,-2.0272,-2.0281,-2.0245,-2.0221,-2.0076,-1.9975,-1.9693,-1.9519,-2.0719,-2.0462,-2.0411,-2.03,-2.0034,-1.9783,-1.9628,-1.9628,-1.9428,-1.9324,-1.922,-1.9018,-1.8736,-1.837,-1.8105,-1.7696,-1.7246,-1.7246,-1.7007,-1.6715,-1.6426,-1.6104,-1.5873,-1.584,-1.5794,-1.5747,-1.5545,-1.5478,-1.5417,-1.522,-1.5083,-1.5029,-1.5035,-1.4838,-1.4598,-1.455,-1.4448,-1.425,-1.4202,-1.4208,-1.4208,-1.4208,-1.4208,-1.4208,-1.4208,-1.4358,-1.455,-1.4592,-1.4736,-1.4981,-1.5029,-1.5131,-1.5178,-1.5356,-1.5445,-1.5493,-1.5588,-1.5689,-1.5689,-1.5642,-1.5642,-1.5499,-1.5452,-1.5389,-1.5364,-1.5622,-1.5849,-1.5865,-1.6374,-1.6702,-1.6974,-1.7324,-1.7371,-1.7424,-1.7477,-1.7477,-1.7529,-1.7589,-1.7589,-1.7589,-1.7589,-1.7589,-1.7589,-1.7609,-1.7642,-1.7782,-1.7909,-1.8056,-1.811,-1.8183,-1.8323,-1.849,-1.8544,-1.8564,-1.8611,-1.8644,-1.8804,-1.8931,-1.9149,-1.9162,-1.9104,-1.9253,-1.9547,-1.9779,-2.0054,-2.0196,-2.028,-2.0308,-2.0235,-2.0063,-1.9853,-1.9744,-1.9635,-1.9229,-1.8997,-2.0411,-2.0189,-1.9939,-1.9835,-1.9732,-1.948,-1.9376,-1.9376,-1.9331,-1.9272,-1.9227,-1.9026,-1.8698,-1.837,-1.8115,-1.7811,-1.7475,-1.7403,-1.7231,-1.6729,-1.6439,-1.6158,-1.5926,-1.5875,-1.5753,-1.5611,-1.5547,-1.5396,-1.5255,-1.5127,-1.4994,-1.4802,-1.4556,-1.4352,-1.4118,-1.3925,-1.3732,-1.3684,-1.3684,-1.3732,-1.3732,-1.3732,-1.3732,-1.3732,-1.3732,-1.3829,-1.4027,-1.4076,-1.4214,-1.4496,-1.479,-1.4987,-1.5035,-1.5124,-1.5166,-1.522,-1.522,-1.5267,-1.5267,-1.5267,-1.5226,-1.5245,-1.5217,-1.5226,-1.5443,-1.552,-1.5716,-1.5895,-1.6221,-1.6542,-1.6833,-1.689,-1.6935,-1.6995,-1.6942,-1.6942,-1.6995,-1.7318,-1.7529,-1.7529,-1.7602,-1.7589,-1.7615,-1.7742,-1.7809,-1.7916,-1.8089,-1.835,-1.8382,-1.838,-1.8476,-1.8592,-1.8612,-1.8632,-1.8704,-1.8724,-1.879,-1.8889,-1.9092,-1.9178,-1.9132,-1.9243,-1.9418,-1.9715,-2.0078,-2.0148,-2.004,-1.9982,-1.9788,-1.9686,-1.9461,-1.9287,-1.9055,-1.8706,-1.8473,-2.0382,-2.0151,-1.9799,-1.9628,-1.9524,-1.9383,-1.9272,-1.9272,-1.9272,-1.9227,-1.9071,-1.881,-1.8489,-1.8227,-1.7957,-1.7694,-1.743,-1.7265,-1.7029,-1.669,-1.6409,-1.6235,-1.6037,-1.5847,-1.5653,-1.5607,-1.5532,-1.5381,-1.5226,-1.4899,-1.4661,-1.4473,-1.4141,-1.3877,-1.3738,-1.3551,-1.3539,-1.3497,-1.3497,-1.3497,-1.3497,-1.3497,-1.3497,-1.3497,-1.3491,-1.3588,-1.369,-1.3738,-1.3781,-1.3968,-1.4214,-1.4502,-1.4694,-1.4838,-1.4885,-1.4933,-1.5035,-1.5083,-1.5131,-1.5089,-1.5092,-1.5074,-1.5122,-1.5188,-1.5357,-1.5501,-1.5739,-1.5966,-1.6238,-1.6584,-1.6651,-1.6723,-1.667,-1.667,-1.667,-1.667,-1.6736,-1.7001,-1.7153,-1.7192,-1.729,-1.7355,-1.746,-1.7703,-1.7766,-1.777,-1.7991,-1.8186,-1.8251,-1.8266,-1.8459,-1.8525,-1.8602,-1.8647,-1.8738,-1.8758,-1.8667,-1.87,-1.8732,-1.8777,-1.8751,-1.8932,-1.9152,-1.9461,-1.9686,-1.9628,-1.9519,-1.9461,-1.9345,-1.9055,-1.8881,-1.8706,-1.859,-1.8363,-1.8129,-2.0453,-2.0165,-1.9837,-1.9554,-1.9397,-1.936,-1.9272,-1.9272,-1.9227,-1.9078,-1.8869,-1.8541,-1.822,-1.8016,-1.7694,-1.7378,-1.7113,-1.6796,-1.6592,-1.648,-1.6221,-1.605,-1.5872,-1.5618,-1.5486,-1.5699,-1.5422,-1.5271,-1.5048,-1.4689,-1.4372,-1.4231,-1.3834,-1.3601,-1.349,-1.3408,-1.3251,-1.3115,-1.3104,-1.3104,-1.3152,-1.3152,-1.3152,-1.3152,-1.3201,-1.3292,-1.3346,-1.3394,-1.3443,-1.3497,-1.3497,-1.3732,-1.4064,-1.4352,-1.455,-1.4496,-1.4598,-1.4689,-1.4751,-1.4854,-1.4844,-1.4974,-1.4955,-1.4989,-1.5086,-1.5324,-1.5503,-1.5793,-1.6005,-1.6227,-1.6411,-1.6305,-1.6305,-1.6358,-1.6411,-1.6543,-1.658,-1.6634,-1.6665,-1.6857,-1.7098,-1.7201,-1.7386,-1.7578,-1.7563,-1.7634,-1.7856,-1.8078,-1.8078,-1.8192,-1.8339,-1.8448,-1.85,-1.8551,-1.8629,-1.8596,-1.8538,-1.848,-1.8421,-1.8421,-1.8421,-1.8655,-1.8829,-1.901,-1.9178,-1.9062,-1.9004,-1.8939,-1.8765,-1.8421,-1.8363,-1.8305,-1.8194,-1.8025,-1.7726,-2.0414,-2.0182,-1.992,-1.9735,-1.9691,-1.9396,-1.9286,-1.9227,-1.9071,-1.8921,-1.8817,-1.8331,-1.8016,-1.7859,-1.7444,-1.712,-1.6743,-1.6418,-1.6205,-1.5992,-1.5791,-1.5583,-1.5363,-1.5143,-1.5127,-1.5046,-1.4867,-1.4614,-1.4561,-1.4281,-1.4219,-1.4157,-1.3903,-1.3596,-1.3187,-1.294,-1.2717,-1.2567,-1.2476,-1.2456,-1.2456,-1.2429,-1.2419,-1.2419,-1.2565,-1.271,-1.2905,-1.3104,-1.3249,-1.3443,-1.3497,-1.3556,-1.3591,-1.3688,-1.373,-1.3864,-1.3918,-1.4091,-1.4256,-1.4193,-1.4222,-1.429,-1.441,-1.4543,-1.4694,-1.4815,-1.5094,-1.5229,-1.5304,-1.5357,-1.5298,-1.5458,-1.5357,-1.541,-1.5612,-1.5839,-1.6042,-1.6217,-1.6508,-1.6781,-1.7007,-1.7192,-1.7302,-1.7503,-1.7641,-1.7685,-1.7886,-1.8006,-1.8056,-1.8152,-1.8254,-1.8338,-1.8402,-1.8402,-1.8421,-1.8415,-1.8357,-1.8246,-1.8188,-1.8129,-1.8188,-1.8363,-1.8538,-1.8421,-1.8544,-1.8655,-1.8596,-1.848,-1.8363,-1.8129,-1.8018,-1.7966,-1.7726,-1.7426,-1.7138,-2.0597,-2.045,-2.0142,-1.9916,-1.9755,-1.9442,-1.9223,-1.9078,-1.8757,-1.8548,-1.8338,-1.8016,-1.7701,-1.749,-1.7166,-1.6736,-1.6258,-1.5779,-1.5571,-1.5416,-1.5309,-1.5208,-1.4928,-1.4713,-1.46,-1.4465,-1.4152,-1.4214,-1.456,-1.4383,-1.4177,-1.392,-1.3648,-1.3201,-1.2913,-1.2735,-1.2521,-1.2309,-1.2168,-1.2157,-1.2137,-1.2061,-1.1996,-1.2034,-1.2088,-1.2273,-1.237,-1.2467,-1.2634,-1.2827,-1.2903,-1.2962,-1.3027,-1.3098,-1.3259,-1.3571,-1.3684,-1.3787,-1.3997,-1.4054,-1.4162,-1.4379,-1.4372,-1.4549,-1.4726,-1.4881,-1.4798,-1.4936,-1.4987,-1.5041,-1.5035,-1.4993,-1.5041,-1.5064,-1.5258,-1.5505,-1.5632,-1.5864,-1.6259,-1.6646,-1.6911,-1.7103,-1.7227,-1.7418,-1.7642,-1.7811,-1.7879,-1.7917,-1.7948,-1.7954,-1.7895,-1.7895,-1.7895,-1.7895,-1.7889,-1.7889,-1.7889,-1.783,-1.7772,-1.7713,-1.7596,-1.7655,-1.7479,-1.7361,-1.7602,-1.8071,-1.8135,-1.8077,-1.7901,-1.7726,-1.7426,-1.7191,-1.7009,-1.6832,-1.6602,-2.0823,-2.0794,-2.0361,-2.0077,-1.9866,-1.9449,-1.9142,-1.8893,-1.8587,-1.8229,-1.7911,-1.7641,-1.7378,-1.706,-1.6683,-1.6258,-1.5678,-1.5196,-1.5041,-1.4874,-1.4821,-1.4821,-1.4498,-1.4283,-1.4013,-1.3954,-1.3673,-1.3797,-1.4255,-1.4135,-1.3911,-1.3704,-1.3221,-1.2899,-1.2677,-1.261,-1.26,-1.2387,-1.2287,-1.2193,-1.2184,-1.2069,-1.1964,-1.1964,-1.2008,-1.2083,-1.2118,-1.2222,-1.2288,-1.244,-1.2451,-1.2461,-1.2607,-1.2596,-1.294,-1.3528,-1.3668,-1.3769,-1.3868,-1.3889,-1.389,-1.4132,-1.4264,-1.4428,-1.4517,-1.4406,-1.4541,-1.4659,-1.4606,-1.4606,-1.4563,-1.4775,-1.4851,-1.4961,-1.5125,-1.541,-1.5529,-1.5727,-1.6035,-1.6379,-1.6726,-1.6882,-1.6952,-1.6994,-1.7189,-1.7213,-1.7279,-1.7279,-1.7309,-1.7303,-1.7244,-1.7309,-1.7309,-1.7309,-1.7309,-1.7303,-1.7244,-1.7132,-1.7132,-1.7073,-1.6891,-1.6714,-1.6661,-1.6779,-1.7126,-1.7543,-1.7608,-1.7556,-1.7315,-1.7073,-1.6714,-1.6537,-1.6543,-1.6484,-1.6312,-2.1152,-2.1066,-2.0527,-2.0271,-2.0115,-1.9575,-1.9115,-1.8863,-1.8574,-1.8143,-1.7662,-1.7338,-1.7027,-1.663,-1.6152,-1.5624,-1.5196,-1.4928,-1.4606,-1.4331,-1.4283,-1.4067,-1.364,-1.3472,-1.3472,-1.3472,-1.331,-1.3369,-1.3576,-1.3539,-1.3421,-1.3337,-1.3242,-1.3031,-1.2644,-1.2524,-1.2369,-1.1959,-1.1855,-1.1831,-1.1812,-1.183,-1.1806,-1.1857,-1.196,-1.2098,-1.2125,-1.2278,-1.2439,-1.248,-1.25,-1.2571,-1.2596,-1.2596,-1.2759,-1.2935,-1.2961,-1.2853,-1.32,-1.3299,-1.3425,-1.3618,-1.3573,-1.3501,-1.3678,-1.3694,-1.3694,-1.3532,-1.3586,-1.3769,-1.3979,-1.41,-1.429,-1.4623,-1.4921,-1.5258,-1.5464,-1.5502,-1.5812,-1.6018,-1.6325,-1.6429,-1.6516,-1.655,-1.6591,-1.6596,-1.6661,-1.6661,-1.672,-1.6773,-1.6832,-1.6891,-1.6897,-1.6897,-1.6897,-1.6891,-1.672,-1.6602,-1.6549,-1.6543,-1.6366,-1.6248,-1.6425,-1.6543,-1.6832,-1.6891,-1.6838,-1.672,-1.6602,-1.6543,-1.6366,-1.6253,-1.62,-1.6081,-1.6022,-2.068,-2.0666,-2.0423,-2.0203,-1.9977,-1.9549,-1.905,-1.8646,-1.8331,-1.7937,-1.7466,-1.6921,-1.6359,-1.5833,-1.5298,-1.4928,-1.4552,-1.4401,-1.4067,-1.3797,-1.3689,-1.3527,-1.3369,-1.3152,-1.3093,-1.2989,-1.2876,-1.2767,-1.2876,-1.3098,-1.3261,-1.3098,-1.3039,-1.2886,-1.2514,-1.2309,-1.2154,-1.1901,-1.1693,-1.1465,-1.1331,-1.1304,-1.1412,-1.1563,-1.1676,-1.1836,-1.1991,-1.208,-1.22,-1.2268,-1.2316,-1.2379,-1.2457,-1.2501,-1.2544,-1.2588,-1.2544,-1.2699,-1.31,-1.3105,-1.3165,-1.327,-1.3266,-1.3369,-1.332,-1.3266,-1.3266,-1.332,-1.332,-1.343,-1.3586,-1.3749,-1.3927,-1.4235,-1.4603,-1.4787,-1.5083,-1.5328,-1.5478,-1.5725,-1.5887,-1.6005,-1.6124,-1.6301,-1.636,-1.6425,-1.6484,-1.6484,-1.6543,-1.6596,-1.6596,-1.6596,-1.6602,-1.6602,-1.6602,-1.6596,-1.6484,-1.6371,-1.6259,-1.6194,-1.6011,-1.5952,-1.607,-1.607,-1.607,-1.607,-1.6011,-1.6129,-1.6253,-1.6194,-1.6135,-1.5957,-1.5844,-1.5796,-1.5704,-1.9989,-1.9982,-2.0104,-1.9965,-1.9644,-1.9423,-1.8908,-1.8318,-1.8131,-1.7701,-1.7154,-1.6471,-1.5724,-1.5046,-1.4751,-1.4527,-1.4054,-1.3777,-1.3513,-1.3281,-1.3152,-1.3152,-1.2989,-1.2827,-1.2713,-1.2663,-1.2441,-1.2332,-1.2387,-1.255,-1.2718,-1.2772,-1.2663,-1.2545,-1.2273,-1.2041,-1.1851,-1.1837,-1.1572,-1.1349,-1.1186,-1.116,-1.1261,-1.141,-1.1449,-1.1554,-1.1711,-1.1782,-1.1884,-1.1959,-1.2,-1.2056,-1.2149,-1.2104,-1.2167,-1.2191,-1.2158,-1.2276,-1.2625,-1.2847,-1.3039,-1.3044,-1.3044,-1.2989,-1.3044,-1.3098,-1.3153,-1.3148,-1.3158,-1.3262,-1.3507,-1.3607,-1.386,-1.4088,-1.4318,-1.4336,-1.4407,-1.4813,-1.5063,-1.5154,-1.5359,-1.5472,-1.5709,-1.6005,-1.6188,-1.6248,-1.6248,-1.6307,-1.6307,-1.6307,-1.6248,-1.6188,-1.6188,-1.6188,-1.6188,-1.6188,-1.6129,-1.6076,-1.6022,-1.5903,-1.5779,-1.5715,-1.5779,-1.5661,-1.5542,-1.5661,-1.5833,-1.5898,-1.5963,-1.5898,-1.5833,-1.5655,-1.5542,-1.552,-1.5463,-1.9236,-1.9049,-1.9584,-1.9622,-1.9305,-1.9029,-1.857,-1.8039,-1.7976,-1.7434,-1.663,-1.5991,-1.5401,-1.4901,-1.4673,-1.4319,-1.3669,-1.3618,-1.3362,-1.3083,-1.2891,-1.2781,-1.2636,-1.2526,-1.232,-1.2142,-1.2051,-1.1932,-1.1732,-1.1896,-1.2114,-1.2332,-1.2223,-1.2114,-1.1946,-1.1787,-1.1568,-1.1564,-1.1407,-1.1465,-1.1368,-1.1417,-1.1472,-1.1489,-1.1561,-1.1583,-1.1633,-1.1639,-1.163,-1.1679,-1.1724,-1.1729,-1.1773,-1.1787,-1.1787,-1.1787,-1.1787,-1.1896,-1.2005,-1.2278,-1.2441,-1.2436,-1.2495,-1.251,-1.2607,-1.2514,-1.259,-1.2877,-1.2961,-1.3128,-1.3421,-1.3706,-1.3828,-1.4014,-1.4133,-1.4203,-1.4306,-1.445,-1.4694,-1.4704,-1.4823,-1.5061,-1.5294,-1.565,-1.5833,-1.5893,-1.5893,-1.5952,-1.5898,-1.5898,-1.5779,-1.5779,-1.572,-1.572,-1.572,-1.572,-1.5839,-1.5839,-1.5785,-1.572,-1.5596,-1.5542,-1.5483,-1.5423,-1.5304,-1.5483,-1.5564,-1.5617,-1.5633,-1.5623,-1.5558,-1.54,-1.5364,-1.5316,-1.535,-1.8713,-1.8596,-1.8829,-1.8887,-1.8706,-1.8655,-1.8241,-1.7747,-1.7677,-1.7062,-1.6018,-1.5612,-1.5072,-1.4644,-1.4318,-1.3993,-1.3569,-1.3507,-1.327,-1.3021,-1.2828,-1.2655,-1.2482,-1.2273,-1.2096,-1.1886,-1.1855,-1.1775,-1.1627,-1.1557,-1.1686,-1.1841,-1.1823,-1.1782,-1.1673,-1.1455,-1.1236,-1.1076,-1.1076,-1.1076,-1.1076,-1.1076,-1.1126,-1.1295,-1.1291,-1.1404,-1.1559,-1.1623,-1.1568,-1.1568,-1.1568,-1.1568,-1.1518,-1.1514,-1.1573,-1.1568,-1.1514,-1.1522,-1.1581,-1.1796,-1.1896,-1.1891,-1.19,-1.206,-1.228,-1.2358,-1.2576,-1.2815,-1.2956,-1.3103,-1.3355,-1.3509,-1.3635,-1.3887,-1.4039,-1.4093,-1.4172,-1.4291,-1.4351,-1.4351,-1.459,-1.4823,-1.5056,-1.5235,-1.5418,-1.5596,-1.5601,-1.5601,-1.5601,-1.5601,-1.5601,-1.5542,-1.5542,-1.5542,-1.5542,-1.5542,-1.5601,-1.5547,-1.5553,-1.5466,-1.5417,-1.5299,-1.5245,-1.5126,-1.5124,-1.5186,-1.5238,-1.5264,-1.5309,-1.5382,-1.5319,-1.5236,-1.5197,-1.5171,-1.5152,-1.8129,-1.8129,-1.7948,-1.7948,-1.8129,-1.8129,-1.7772,-1.7244,-1.7179,-1.6686,-1.5635,-1.5216,-1.4797,-1.433,-1.4137,-1.3793,-1.3529,-1.3332,-1.3169,-1.2888,-1.2628,-1.2488,-1.2373,-1.2227,-1.2034,-1.1794,-1.1768,-1.1699,-1.1449,-1.1466,-1.1492,-1.1501,-1.1509,-1.1492,-1.1345,-1.1131,-1.0911,-1.0747,-1.0692,-1.0692,-1.0747,-1.0747,-1.0802,-1.0966,-1.0962,-1.1072,-1.1181,-1.124,-1.124,-1.1295,-1.1295,-1.1295,-1.1295,-1.135,-1.1354,-1.1354,-1.1354,-1.1375,-1.1414,-1.154,-1.1608,-1.172,-1.1729,-1.1942,-1.2114,-1.2237,-1.2432,-1.2954,-1.3053,-1.3133,-1.3384,-1.3563,-1.3587,-1.3815,-1.383,-1.3873,-1.3868,-1.3928,-1.3988,-1.4047,-1.4286,-1.459,-1.4704,-1.4883,-1.524,-1.5418,-1.5601,-1.5601,-1.5601,-1.5601,-1.5601,-1.5542,-1.5483,-1.5483,-1.5423,-1.5326,-1.5168,-1.5173,-1.5129,-1.5257,-1.5202,-1.5111,-1.5113,-1.517,-1.5095,-1.4953,-1.4993,-1.5125,-1.512,-1.5205,-1.5131,-1.5012,-1.51,-1.5079,-1.5008,-1.7537,-1.7426,-1.6832,-1.695,-1.7479,-1.7543,-1.7126,-1.6602,-1.6478,-1.6113,-1.5494,-1.4906,-1.449,-1.4217,-1.4055,-1.3736,-1.3395,-1.3079,-1.2893,-1.2668,-1.2374,-1.2197,-1.2139,-1.2094,-1.1938,-1.1759,-1.1676,-1.1544,-1.1273,-1.1289,-1.1257,-1.1261,-1.1265,-1.1239,-1.1114,-1.0869,-1.0759,-1.0704,-1.0729,-1.072,-1.0724,-1.0716,-1.0747,-1.0747,-1.0798,-1.0852,-1.0852,-1.0907,-1.0911,-1.0911,-1.0911,-1.0924,-1.0898,-1.0898,-1.0906,-1.0863,-1.0855,-1.0921,-1.1048,-1.1398,-1.1547,-1.166,-1.163,-1.1777,-1.2025,-1.2153,-1.2392,-1.293,-1.3025,-1.3231,-1.347,-1.367,-1.367,-1.3674,-1.3684,-1.3688,-1.3748,-1.3748,-1.3808,-1.3868,-1.4052,-1.4237,-1.4351,-1.453,-1.4942,-1.5245,-1.5483,-1.5547,-1.5493,-1.5423,-1.5369,-1.5341,-1.5227,-1.5285,-1.5171,-1.4905,-1.4785,-1.4735,-1.4867,-1.5039,-1.5131,-1.5049,-1.513,-1.5159,-1.5015,-1.4841,-1.4911,-1.5,-1.5047,-1.5047,-1.4888,-1.4861,-1.4891,-1.4953,-1.4907,-1.6832,-1.6832,-1.6596,-1.6543,-1.6613,-1.6779,-1.6602,-1.6188,-1.5769,-1.5353,-1.4948,-1.4471,-1.4291,-1.4112,-1.3744,-1.3462,-1.3237,-1.2925,-1.2671,-1.2644,-1.2318,-1.223,-1.2099,-1.1947,-1.1803,-1.1607,-1.1574,-1.145,-1.1208,-1.1261,-1.1236,-1.122,-1.1269,-1.122,-1.1191,-1.1045,-1.1049,-1.1025,-1.0956,-1.0931,-1.0863,-1.0773,-1.0712,-1.0716,-1.072,-1.0724,-1.0729,-1.0741,-1.0741,-1.0737,-1.0741,-1.0773,-1.0846,-1.0871,-1.0923,-1.0997,-1.1037,-1.1066,-1.1122,-1.1297,-1.1358,-1.1412,-1.1494,-1.1623,-1.1953,-1.2221,-1.2628,-1.2976,-1.3191,-1.3443,-1.3674,-1.3684,-1.3684,-1.3684,-1.3688,-1.3688,-1.3688,-1.3688,-1.3748,-1.3748,-1.3873,-1.4072,-1.4196,-1.431,-1.4675,-1.4816,-1.5011,-1.5069,-1.4994,-1.4908,-1.4839,-1.49,-1.4941,-1.5018,-1.4938,-1.4786,-1.478,-1.4835,-1.4956,-1.5103,-1.5122,-1.5005,-1.4895,-1.4866,-1.4726,-1.4654,-1.477,-1.4817,-1.4937,-1.4902,-1.4728,-1.4704,-1.4838,-1.4864,-1.4786,-1.6366,-1.6366,-1.6248,-1.6076,-1.6016,-1.6248,-1.6129,-1.572,-1.5061,-1.4644,-1.4411,-1.4172,-1.3928,-1.3748,-1.3444,-1.3084,-1.3024,-1.2659,-1.2535,-1.2479,-1.2178,-1.2032,-1.1985,-1.1885,-1.1799,-1.161,-1.1581,-1.1524,-1.1455,-1.1423,-1.1435,-1.1447,-1.1411,-1.1435,-1.1382,-1.1313,-1.1191,-1.1159,-1.109,-1.1053,-1.1025,-1.0964,-1.0899,-1.0899,-1.0895,-1.0891,-1.0879,-1.0871,-1.0871,-1.0867,-1.0887,-1.0923,-1.1021,-1.1074,-1.1118,-1.1196,-1.1293,-1.1301,-1.1313,-1.1407,-1.1473,-1.149,-1.1366,-1.1532,-1.19,-1.2179,-1.2528,-1.291,-1.3315,-1.3564,-1.3688,-1.3688,-1.3688,-1.3688,-1.3688,-1.3688,-1.3688,-1.3688,-1.3698,-1.3698,-1.3731,-1.3925,-1.4099,-1.4193,-1.4423,-1.4453,-1.4538,-1.4595,-1.4666,-1.4651,-1.4676,-1.4756,-1.4765,-1.486,-1.4873,-1.4785,-1.4782,-1.4918,-1.4982,-1.5041,-1.4979,-1.4857,-1.4647,-1.4588,-1.464,-1.4702,-1.4585,-1.4614,-1.4646,-1.4586,-1.4405,-1.4433,-1.466,-1.467,-1.4539,-1.6081,-1.6028,-1.5726,-1.5601,-1.5661,-1.5839,-1.5601,-1.5056,-1.4466,-1.4232,-1.4172,-1.3873,-1.3629,-1.3264,-1.3204,-1.2964,-1.2664,-1.2363,-1.2238,-1.2122,-1.1949,-1.1893,-1.1833,-1.1833,-1.1808,-1.182,-1.1744,-1.1699,-1.1744,-1.1683,-1.1691,-1.1723,-1.1679,-1.1675,-1.1593,-1.1476,-1.1342,-1.1334,-1.1273,-1.1244,-1.1212,-1.1179,-1.1131,-1.1122,-1.1126,-1.1126,-1.1131,-1.1139,-1.1151,-1.1167,-1.1183,-1.1204,-1.1166,-1.1174,-1.1232,-1.1297,-1.1439,-1.1484,-1.1524,-1.1638,-1.1683,-1.165,-1.1637,-1.1698,-1.1863,-1.2192,-1.2569,-1.2882,-1.3204,-1.3444,-1.3629,-1.3688,-1.3688,-1.3688,-1.3688,-1.3688,-1.3688,-1.3698,-1.3712,-1.374,-1.3792,-1.391,-1.4043,-1.4151,-1.4298,-1.4336,-1.4437,-1.458,-1.4649,-1.4698,-1.4737,-1.4846,-1.4854,-1.4803,-1.4731,-1.4717,-1.4784,-1.4862,-1.4841,-1.4835,-1.4769,-1.4668,-1.4535,-1.4498,-1.4725,-1.4707,-1.4414,-1.4288,-1.425,-1.418,-1.4031,-1.4106,-1.4277,-1.4207,-1.4071,-1.5726,-1.572,-1.5661,-1.5477,-1.5175,-1.4888,-1.465,-1.4406,-1.4232,-1.4117,-1.3808,-1.3748,-1.3444,-1.3204,-1.2964,-1.2659,-1.2363,-1.2066,-1.1949,-1.1893,-1.1833,-1.1837,-1.1837,-1.1837,-1.1837,-1.1837,-1.1837,-1.1837,-1.1768,-1.1837,-1.1837,-1.1828,-1.1837,-1.1837,-1.1796,-1.1667,-1.1614,-1.1557,-1.1468,-1.1431,-1.1378,-1.1325,-1.1293,-1.1273,-1.1277,-1.1277,-1.1277,-1.1265,-1.1265,-1.1248,-1.1236,-1.1265,-1.1419,-1.1427,-1.1451,-1.1606,-1.1675,-1.1695,-1.1707,-1.1744,-1.1837,-1.1833,-1.1879,-1.2007,-1.2169,-1.2363,-1.2659,-1.2964,-1.3264,-1.3569,-1.3688,-1.3688,-1.3688,-1.3688,-1.3698,-1.3707,-1.3717,-1.3755,-1.3778,-1.3915,-1.3962,-1.4066,-1.4194,-1.4232,-1.4375,-1.4356,-1.4398,-1.4504,-1.4611,-1.4663,-1.474,-1.4847,-1.4852,-1.4784,-1.4728,-1.4716,-1.4718,-1.4785,-1.4665,-1.4544,-1.4503,-1.4465,-1.4385,-1.4403,-1.4403,-1.4272,-1.4067,-1.3945,-1.3818,-1.3818,-1.3739,-1.3809,-1.3879,-1.3682,-1.3617,-1.5418,-1.5418,-1.524,-1.5007,-1.4699,-1.4351,-1.4112,-1.4052,-1.3992,-1.3873,-1.3688,-1.3569,-1.3329,-1.296,-1.2659,-1.2359,-1.2066,-1.1953,-1.1833,-1.1833,-1.1837,-1.1837,-1.1837,-1.1837,-1.1837,-1.1837,-1.1837,-1.1837,-1.1837,-1.1837,-1.1837,-1.1837,-1.1837,-1.1837,-1.1824,-1.1808,-1.182,-1.1715,-1.1671,-1.1626,-1.1553,-1.1488,-1.1464,-1.1423,-1.1427,-1.1427,-1.1427,-1.1423,-1.1431,-1.1439,-1.1443,-1.1484,-1.1606,-1.1618,-1.1626,-1.1748,-1.1816,-1.1816,-1.1816,-1.1824,-1.1837,-1.1893,-1.2062,-1.2234,-1.2475,-1.2724,-1.29,-1.314,-1.3444,-1.3688,-1.3688,-1.3688,-1.3688,-1.3688,-1.3712,-1.3731,-1.3773,-1.3821,-1.3944,-1.4104,-1.4213,-1.4317,-1.4388,-1.4421,-1.4487,-1.4581,-1.4574,-1.4529,-1.4555,-1.4593,-1.469,-1.4776,-1.4764,-1.4752,-1.4679,-1.4563,-1.4516,-1.447,-1.4349,-1.4236,-1.4207,-1.4141,-1.4076,-1.4006,-1.394,-1.3809,-1.3617,-1.349,-1.3358,-1.3297,-1.3165,-1.2964,-1.2964,-1.2964,-1.2898,-1.5056,-1.5056,-1.4709,-1.4471,-1.4237,-1.4172,-1.3992,-1.3753,-1.3748,-1.3688,-1.3629,-1.3384,-1.3084,-1.2779,-1.2414,-1.2122,-1.1949,-1.1837,-1.1837,-1.1837,-1.1837,-1.1837,-1.1837,-1.1837,-1.1837,-1.1837,-1.1837,-1.1837,-1.1837,-1.1837,-1.1837,-1.1837,-1.1837,-1.1837,-1.1837,-1.1837,-1.1837,-1.1824,-1.1752,-1.1732,-1.1744,-1.1816,-1.1837,-1.1808,-1.18,-1.18,-1.1808,-1.182,-1.1837,-1.1772,-1.1764,-1.1744,-1.1748,-1.1752,-1.1764,-1.1768,-1.1837,-1.1837,-1.1837,-1.1837,-1.1837,-1.1889,-1.2062,-1.2303,-1.2599,-1.29,-1.314,-1.3324,-1.3629,-1.3688,-1.3688,-1.3703,-1.3707,-1.3764,-1.3816,-1.3896,-1.3996,-1.4071,-1.4208,-1.4287,-1.4327,-1.4357,-1.4423,-1.4391,-1.4281,-1.4563,-1.4605,-1.4479,-1.4438,-1.4406,-1.4433,-1.4568,-1.4512,-1.4461,-1.4418,-1.4302,-1.418,-1.4067,-1.4006,-1.3945,-1.3884,-1.3814,-1.3748,-1.342,-1.3091,-1.3223,-1.3161,-1.2898,-1.2704,-1.2503,-1.2309,-1.1978,-1.1978,-1.2243,-1.2309,-1.4709,-1.4709,-1.4411,-1.4291,-1.4177,-1.3933,-1.3808,-1.3688,-1.3688,-1.3688,-1.3629,-1.3329,-1.3024,-1.2659,-1.2298,-1.2005,-1.1833,-1.1837,-1.1837,-1.1837,-1.1837,-1.1837,-1.1837,-1.1837,-1.1837,-1.1837,-1.1837,-1.1837,-1.1837,-1.1837,-1.1837,-1.1837,-1.1837,-1.1837,-1.1837,-1.1837,-1.1837,-1.1837,-1.1837,-1.1837,-1.1837,-1.1837,-1.1837,-1.1837,-1.1837,-1.1837,-1.1837,-1.1837,-1.1837,-1.1833,-1.1833,-1.1833,-1.1833,-1.1837,-1.1837,-1.1837,-1.1837,-1.1837,-1.1837,-1.1837,-1.1837,-1.1893,-1.2066,-1.2363,-1.2664,-1.302,-1.3264,-1.3509,-1.3633,-1.3688,-1.3703,-1.3717,-1.375,-1.384,-1.3939,-1.4081,-1.4222,-1.4292,-1.4414,-1.4385,-1.4364,-1.4364,-1.4359,-1.4265,-1.4166,-1.4115,-1.4124,-1.4058,-1.3993,-1.3939,-1.3796,-1.3905,-1.4106,-1.4058,-1.401,-1.3879,-1.3748,-1.3748,-1.3617,-1.3555,-1.349,-1.3227,-1.2894,-1.2437,-1.2177,-1.2441,-1.2507,-1.2177,-1.1978,-1.1912,-1.1776,-1.1582,-1.1516,-1.1714,-1.178,-1.4411,-1.4411,-1.4112,-1.3988,-1.3928,-1.3748,-1.3688,-1.3688,-1.3569,-1.3509,-1.3449,-1.3144,-1.2779,-1.2483,-1.2182,-1.2005,-1.1837,-1.1837,-1.1837,-1.1837,-1.1837,-1.1837,-1.1837,-1.1837,-1.1837,-1.1837,-1.1837,-1.1837,-1.1837,-1.1837,-1.1837,-1.1837,-1.1837,-1.1837,-1.1837,-1.1837,-1.1837,-1.1837,-1.1837,-1.1837,-1.1837,-1.1837,-1.1837,-1.1837,-1.1837,-1.1837,-1.1837,-1.1837,-1.1837,-1.1837,-1.1837,-1.1837,-1.1837,-1.1837,-1.1837,-1.1837,-1.1837,-1.1837,-1.1837,-1.1837,-1.1837,-1.1893,-1.2066,-1.2359,-1.2419,-1.2719,-1.3204,-1.3449,-1.3629,-1.3688,-1.3745,-1.3769,-1.3859,-1.3953,-1.4033,-1.4184,-1.4178,-1.4153,-1.4175,-1.4114,-1.4113,-1.4126,-1.4101,-1.4101,-1.3997,-1.3993,-1.394,-1.3551,-1.3486,-1.342,-1.3288,-1.3288,-1.342,-1.3617,-1.3687,-1.349,-1.3227,-1.3227,-1.3227,-1.2898,-1.2568,-1.2305,-1.2045,-1.178,-1.1714,-1.1912,-1.1846,-1.1582,-1.1516,-1.1516,-1.138,-1.1247,-1.1185,-1.1118,-1.1185,-1.4112,-1.4112,-1.3813,-1.3688,-1.3688,-1.3629,-1.3629,-1.3569,-1.3264,-1.3084,-1.3024,-1.2784,-1.2479,-1.2182,-1.1953,-1.1833,-1.1837,-1.1837,-1.1837,-1.1837,-1.1837,-1.1837,-1.1837,-1.1837,-1.1837,-1.1837,-1.1837,-1.1837,-1.1837,-1.1837,-1.1837,-1.1837,-1.1837,-1.1837,-1.1837,-1.1837,-1.1837,-1.1837,-1.1837,-1.1837,-1.1837,-1.1837,-1.1837,-1.1837,-1.1837,-1.1837,-1.1837,-1.1837,-1.1837,-1.1837,-1.1837,-1.1837,-1.1837,-1.1837,-1.1837,-1.1837,-1.1837,-1.1837,-1.1837,-1.1837,-1.1837,-1.1893,-1.2062,-1.2182,-1.2247,-1.2578,-1.3009,-1.3263,-1.3504,-1.3583,-1.3639,-1.3723,-1.3821,-1.3956,-1.4052,-1.4187,-1.4061,-1.396,-1.3879,-1.3866,-1.3805,-1.3809,-1.3748,-1.3744,-1.3678,-1.3678,-1.3547,-1.3161,-1.2898,-1.2766,-1.2634,-1.2634,-1.2766,-1.2964,-1.3099,-1.2968,-1.2634,-1.2503,-1.2437,-1.2045,-1.1714,-1.1582,-1.1512,-1.1446,-1.1383,-1.1251,-1.1185,-1.092,-1.0986,-1.0986,-1.0787,-1.0588,-1.0588,-1.0525,-1.0522,-1.3813,-1.3813,-1.3753,-1.3688,-1.3629,-1.3384,-1.3324,-1.3264,-1.296,-1.2659,-1.2479,-1.2359,-1.2238,-1.2182,-1.1949,-1.1837,-1.1837,-1.1837,-1.1837,-1.1837,-1.1837,-1.1837,-1.1837,-1.1837,-1.1837,-1.1837,-1.1837,-1.1837,-1.1837,-1.1837,-1.1837,-1.1837,-1.1837,-1.1837,-1.1837,-1.1837,-1.1837,-1.1837,-1.1837,-1.1837,-1.1837,-1.1837,-1.1837,-1.1837,-1.1837,-1.1837,-1.1837,-1.1837,-1.1837,-1.1837,-1.1837,-1.1837,-1.1837,-1.1837,-1.1837,-1.1837,-1.1837,-1.1837,-1.1837,-1.1837,-1.1837,-1.1841,-1.1957,-1.2043,-1.2149,-1.2367,-1.2751,-1.2909,-1.3097,-1.3162,-1.322,-1.3403,-1.3577,-1.3703,-1.3868,-1.3875,-1.3805,-1.3705,-1.3661,-1.3481,-1.3218,-1.3161,-1.2964,-1.2832,-1.2503,-1.2503,-1.2503,-1.2243,-1.2177,-1.2045,-1.1912,-1.1978,-1.2041,-1.2045,-1.2111,-1.2177,-1.1909,-1.1846,-1.1714,-1.1383,-1.1118,-1.0982,-1.0916,-1.0787,-1.0455,-1.0259,-1.0193,-1.0392,-1.0259,-1.0259,-1.006,-0.9861,-0.993,-0.9994,-1.0127]},{"header":{"parameterUnit":"m.s-1","parameterCategory":1,"la1":31.0,"la2":29.5877,"lo1":-88.7671,"lo2":-86.6584,"dy":0.0162,"dx":0.0185,"nx":115,"ny":88,"refTime":"2024-06-09T12:00:00:Z","depth":0,"parameterNumber":3,"parameterNumberName":"V-component_of_WINDS"},"data":[0.0,0.0,0.0,0.0,0.0,0.0,0.0,0.0,0.0,0.0,0.0,0.0,0.0,0.0,0.0,0.0,0.0,0.0,0.0,0.0,0.0,0.0,0.0,0.0,0.0,0.0,0.0,0.0,0.0,0.0,0.0,0.0,0.0,0.0,0.0,0.0,0.0,0.0,0.0,0.0,0.0,0.0,0.0,0.0,0.0,0.0,0.0,0.0,0.0,0.0,0.0,0.0,0.0,0.0,0.0,0.0,0.0,0.0,0.0,0.0,0.0,0.0,0.0,0.0,0.0,0.0,0.0,0.0,0.0,0.0,0.0,0.0,0.0,0.0,0.0,0.0,0.0,0.0,0.0,0.0,0.0,0.0,0.0,0.0,0.0,0.0,0.0,0.0,0.0,0.0,0.0,0.0,0.0,0.0,0.0,0.0,0.0,0.0,0.0,0.0,0.0,0.0,0.0,0.0,0.0,0.0,0.0,0.0,0.0,0.0,0.0,0.0,0.0,0.0,0.0,0.0,0.0,0.0,0.0,0.0,0.0,0.0,0.0,0.0,0.0,0.0,0.0,0.0,0.0,0.0,0.0,0.0,0.0,0.0,0.0,0.0,0.0,0.0,0.0,0.0,0.0,0.0,0.0,0.0,0.0,0.0,0.0,0.0,0.0,0.0,0.0,0.0,0.0,0.0,0.0,0.0,0.0,0.0,0.0,0.0,0.0,0.0,0.0,0.0,0.0,0.0,0.0,0.0,0.0,0.0,0.0,0.0,0.0,0.0,0.0,0.0,0.0,0.0,0.0,0.0,0.0,0.0,0.0,0.0,0.0,0.0,0.0,0.0,0.0,0.0,0.0,0.0,0.0,0.0,0.0,0.0,0.0,0.0,0.0,0.0,0.0,0.0,0.0,0.0,0.0,0.0,0.0,0.0,0.0,0.0,0.0,0.0,0.0,0.0,0.0,0.0,0.0,0.0,0.0,0.0,0.0,0.0,0.0,0.0,0.0,0.0,0.0,0.0,0.0,0.0,0.0,0.0,0.0,0.0,0.0,0.0,0.0,0.0,0.0,0.0,0.0,0.0,0.0,0.0,0.0,0.0,0.0,0.0,0.0,0.0,0.0,0.0,0.0,0.0,0.0,0.0,0.0,0.0,0.0,0.0,0.0,0.0,0.0,0.0,0.0,0.0,0.0,0.0,0.0,0.0,0.0,0.0,0.0,0.0,0.0,0.0,0.0,0.0,0.0,0.0,0.0,0.0,0.0,0.0,0.0,0.0,0.0,0.0,0.0,0.0,0.0,0.0,0.0,0.0,0.0,0.0,0.0,0.0,0.0,0.0,0.0,0.0,0.0,0.0,0.0,0.0,0.0,0.0,0.0,0.0,0.0,0.0,0.0,0.0,0.0,0.0,0.0,0.0,0.0,0.0,0.0,0.0,0.0,0.0,0.0,0.0,0.0,0.0,0.0,0.0,0.0,0.0,0.0,0.0,0.0,0.0,0.0,0.0,0.0,0.0,0.0,0.0,0.0,0.0,0.0,0.0,0.0,0.0,0.0,0.0,0.0,0.0,0.0,0.0,0.0,0.0,0.0,0.0,0.0,0.0,0.0,0.0,0.0,0.0,0.0,0.0,0.0,0.0,0.0,0.0,0.0,0.0,0.0,0.0,0.0,0.0,0.0,0.0,0.0,0.0,0.0,0.0,0.0,0.0,0.0,0.0,0.0,0.0,0.0,0.0,0.0,0.0,0.0,0.0,0.0,0.0,0.0,0.0,0.0,0.0,0.0,0.0,0.0,0.0,0.0,0.0,0.0,0.0,0.0,0.0,0.0,0.0,0.0,0.0,0.0,0.0,0.0,0.0,0.0,0.0,0.0,0.0,0.0,0.0,0.0,0.0,0.0,0.0,0.0,0.0,0.0,0.0,0.0,0.0,0.0,0.0,0.0,0.0,0.0,0.0,0.0,0.0,0.0,0.0,0.0,0.0,0.0,0.0,0.0,0.0,0.0,0.0,0.0,0.0,0.0,0.0,0.0,0.0,0.0,0.0,0.0,0.0,0.0,0.0,0.0,0.0,0.0,0.0,0.0,0.0,0.0,0.0,0.0,0.0,0.0,0.0,0.0,0.0,0.0,0.0,0.0,0.0,0.0,0.0,0.0,0.0,0.0,0.0,0.0,0.0,0.0,0.0,0.0,0.0,0.0,0.0,0.0,0.0,0.0,0.0,0.0,0.0,0.0,0.0,0.0,0.0,0.0,0.0,0.0,0.0,0.0,0.0,0.0,0.0,0.0,0.0,0.0,0.0,0.0,0.0,0.0,0.0,0.0,0.0,0.0,0.0,0.0,0.0,0.0,0.0,0.0,0.0,0.0,0.0,0.0,0.0,0.0,0.0,0.0,0.0,0.0,0.0,0.0,0.0,0.0,0.0,0.0,0.0,0.0,0.0,0.0,0.0,0.0,0.0,0.0,0.0,0.0,0.0,0.0,0.0,0.0,0.0,0.0,0.0,0.0,0.0,0.0,0.0,0.0,0.0,0.0,0.0,0.0,0.0,0.0,0.0,0.0,0.0,0.0,0.0,0.0,0.0,0.0,0.0,0.0,0.0,0.0,0.0,0.0,0.0,0.0,0.0,0.0,0.0,0.0,0.0,0.0,0.0,0.0,0.0,0.0,0.0,0.0,0.0,0.0,0.0,0.0,0.0,0.0,0.0,0.0,0.0,0.0,0.0,0.0,0.0,0.0,0.0,0.0,0.0,0.0,0.0,0.0,0.0,0.0,0.0,0.0,0.0,0.0,0.0,0.0,0.0,0.0,0.0,0.0,0.0,0.0,0.0,0.0,0.0,0.0,0.0,0.0,0.0,0.0,0.0,0.0,0.0,0.0,0.0,0.0,0.0,0.0,0.0,0.0,0.0,0.0,0.0,0.0,0.0,0.0,0.0,0.0,0.0,0.0,0.0,0.0,0.0,0.0,0.0,0.0,0.0,0.0,0.0,0.0,0.0,0.0,0.0,0.0,0.0,0.0,0.0,0.0,0.0,0.0,0.0,0.0,0.0,0.0,0.0,0.0,0.0,0.0,0.0,0.0,0.0,0.0,0.0,0.0,0.0,0.0,0.0,0.0,0.0,0.0,0.0,0.0,0.0,0.0,0.0,0.0,0.0,0.0,0.0,0.0,0.0,0.0,0.0,0.0,0.0,0.0,0.0,0.0,0.0,0.0,0.0,0.0,0.0,0.0,0.0,0.0,0.0,0.0,0.0,0.0,0.0,0.0,0.0,0.0,0.0,0.0,0.0,0.0,0.0,0.0,0.0,0.0,0.0,0.0,0.0,0.0,0.0,0.0,0.0,0.0,0.0,0.0,0.0,0.0,0.0,0.0,0.0,0.0,0.0,0.0,0.0,0.0,0.0,0.0,0.0,0.0,0.0,0.0,0.0,0.0,0.0,0.0,0.0,0.0,0.0,0.0,0.0,0.0,0.0,0.0,0.0,0.0,0.0,0.0,0.0,0.0,0.0,0.0,0.0,0.0,0.0,0.0,0.0,0.0,0.0,0.0,0.0,0.0,0.0,0.0,0.0,0.0,0.0,0.0,0.0,0.0,0.0,0.0,0.0,0.0,0.0,0.0,0.0,0.0,0.0,0.0,0.0,0.0,0.0,0.0,0.0,0.0,0.0,0.0,0.0,0.0,0.0,0.0,0.0,0.0,0.0,0.0,0.0,0.0,0.0,0.0,0.0,0.0,0.0,0.0,0.0,0.0,0.0,0.0,0.0,0.0,0.0,0.0,0.0,0.0,0.0,0.0,0.0,0.0,0.0,0.0,0.0,0.0,0.0,0.0,0.0,0.0,0.0,0.0,0.0,0.0,0.0,0.0,0.0,0.0,0.0,0.0,0.0,0.0,0.0,0.0,0.0,0.0,0.0,0.0,0.0,0.0,0.0,0.0,0.0,0.0,0.0,0.0,0.0,0.0,0.0,0.0,0.0,0.0,0.0,0.0,0.0,0.0,0.0,0.0,0.0,0.0,0.0,0.0,0.0,0.0,0.0,0.0,0.0,0.0,0.0,0.0,0.0,0.0,0.0,0.0,0.0,0.0,0.0,0.0,0.0,0.0,0.0,0.0,0.0,0.0,0.0,0.0,0.0,0.0,0.0,0.0,0.0,0.0,0.0,0.0,0.0,0.0,0.0,0.0,0.0,0.0,0.0,0.0,0.0,0.0,0.0,0.0,0.0,0.0,0.0,0.0,0.0,0.0,0.0,0.0,0.0,0.0,0.0,0.0,0.0,1.7633,0.0,0.0,0.0,0.0,0.0,0.0,0.0,0.0,0.0,0.0,0.0,0.0,0.0,0.0,0.0,0.0,0.0,0.0,0.0,0.0,0.0,0.0,0.0,0.0,0.0,0.0,0.0,0.0,0.0,0.0,0.0,0.0,0.0,0.0,0.0,0.0,0.0,0.0,0.0,0.0,0.0,0.0,0.0,0.0,0.0,0.0,0.0,0.0,0.0,0.0,0.0,0.0,0.0,0.0,0.0,0.0,0.0,0.0,0.0,0.0,0.0,0.0,0.0,0.0,0.0,0.0,0.0,0.0,0.0,0.0,0.0,0.0,0.0,0.0,0.0,0.0,0.0,0.0,0.0,0.0,0.0,0.0,0.0,0.0,0.0,0.0,0.0,0.0,0.0,0.0,0.0,0.0,0.0,0.0,0.0,0.0,0.0,0.0,0.0,0.0,0.0,0.0,0.0,0.0,0.0,0.0,0.0,0.0,0.0,0.0,1.9765,1.9886,2.0053,1.9793,1.9118,0.0,0.0,0.0,0.0,0.0,0.0,0.0,0.0,0.0,0.0,0.0,0.0,0.0,0.0,0.0,0.0,0.0,0.0,0.0,0.0,0.0,0.0,0.0,0.0,0.0,0.0,0.0,0.0,0.0,0.0,0.0,0.0,0.0,0.0,0.0,0.0,0.0,0.0,0.0,0.0,0.0,0.0,0.0,0.0,0.0,0.0,0.0,0.0,0.0,0.0,0.0,0.0,0.0,0.0,0.0,0.0,0.0,0.0,0.0,0.0,0.0,0.0,0.0,0.0,0.0,0.0,0.0,0.0,0.0,0.0,0.0,0.0,0.0,0.0,0.0,0.0,0.0,0.0,0.0,0.0,0.0,0.0,0.0,0.0,0.0,0.0,0.0,0.0,0.0,0.0,0.0,0.0,0.0,0.0,0.0,0.0,0.0,0.0,0.0,0.0,0.0,0.0,0.0,0.0,0.0,0.0,0.0,0.0,0.0,0.0,0.0,0.0,2.1314,2.1107,2.0264,0.0,0.0,0.0,0.0,0.0,0.0,0.0,0.0,0.0,0.0,0.0,0.0,0.0,0.0,0.0,0.0,0.0,0.0,0.0,0.0,0.0,0.0,0.0,0.0,0.0,0.0,0.0,0.0,0.0,0.0,0.0,0.0,0.0,0.0,0.0,0.0,0.0,0.0,0.0,0.0,0.0,0.0,0.0,0.0,0.0,0.0,0.0,0.0,0.0,0.0,0.0,0.0,0.0,0.0,0.0,0.0,0.0,0.0,0.0,0.0,0.0,0.0,0.0,0.0,0.0,0.0,0.0,0.0,0.0,0.0,0.0,0.0,0.0,0.0,0.0,0.0,0.0,0.0,0.0,0.0,0.0,0.0,0.0,0.0,0.0,0.0,0.0,0.0,0.0,0.0,0.0,0.0,0.0,0.0,0.0,0.0,0.0,0.0,0.0,0.0,0.0,0.0,0.0,0.0,0.0,0.0,0.0,0.0,0.0,0.0,2.0916,2.0994,2.1899,0.0,2.0494,0.0,0.0,0.0,0.0,0.0,0.0,0.0,0.0,0.0,0.0,0.0,0.0,0.0,0.0,0.0,0.0,0.0,0.0,0.0,0.0,0.0,0.0,0.0,0.0,0.0,0.0,0.0,0.0,0.0,0.0,0.0,0.0,0.0,0.0,0.0,0.0,0.0,0.0,0.0,0.0,0.0,0.0,0.0,0.0,0.0,0.0,0.0,0.0,0.0,0.0,0.0,0.0,0.0,0.0,0.0,0.0,0.0,0.0,0.0,0.0,0.0,0.0,0.0,0.0,0.0,0.0,0.0,0.0,0.0,0.0,0.0,0.0,0.0,0.0,0.0,0.0,0.0,0.0,0.0,0.0,0.0,0.0,0.0,0.0,0.0,0.0,0.0,0.0,0.0,0.0,0.0,0.0,0.0,0.0,0.0,0.0,0.0,0.0,0.0,0.0,0.0,0.0,0.0,0.0,0.0,0.0,0.0,0.0,0.0,0.0,0.0,2.2345,2.202,2.1668,0.0,0.0,0.0,0.0,0.0,0.0,0.0,0.0,0.0,0.0,0.0,0.0,0.0,0.0,0.0,0.0,0.0,0.0,0.0,0.0,0.0,0.0,0.0,0.0,0.0,0.0,0.0,0.0,0.0,0.0,0.0,0.0,0.0,0.0,0.0,0.0,0.0,0.0,0.0,0.0,0.0,0.0,0.0,0.0,0.0,0.0,0.0,0.0,0.0,0.0,0.0,0.0,0.0,0.0,0.0,0.0,0.0,0.0,0.0,0.0,0.0,0.0,0.0,0.0,0.0,0.0,0.0,0.0,0.0,0.0,0.0,0.0,0.0,0.0,0.0,0.0,0.0,0.0,0.0,0.0,0.0,0.0,0.0,0.0,0.0,0.0,0.0,0.0,0.0,0.0,0.0,0.0,0.0,0.0,0.0,0.0,0.0,0.0,0.0,0.0,0.0,0.0,0.0,0.0,0.0,0.0,0.0,0.0,0.0,0.0,2.0926,0.0,2.324,2.2132,2.1525,2.1669,0.0,0.0,0.0,0.0,0.0,0.0,0.0,0.0,0.0,0.0,0.0,0.0,0.0,0.0,0.0,0.0,0.0,0.0,0.0,0.0,0.0,0.0,0.0,0.0,0.0,0.0,0.0,0.0,0.0,0.0,0.0,0.0,0.0,0.0,0.0,0.0,0.0,0.0,0.0,0.0,0.0,0.0,0.0,0.0,0.0,0.0,0.0,0.0,0.0,0.0,0.0,0.0,0.0,0.0,0.0,0.0,0.0,0.0,0.0,0.0,0.0,0.0,0.0,0.0,0.0,0.0,0.0,0.0,0.0,0.0,0.0,0.0,0.0,0.0,0.0,0.0,0.0,0.0,0.0,0.0,0.0,0.0,0.0,0.0,0.0,0.0,0.0,0.0,0.0,0.0,0.0,0.0,0.0,0.0,0.0,0.0,0.0,0.0,0.0,0.0,0.0,0.0,0.0,0.0,0.0,0.0,0.0,0.0,0.0,2.0944,2.1861,2.3577,2.2272,2.1562,0.0,0.0,0.0,0.0,0.0,0.0,0.0,0.0,0.0,0.0,0.0,0.0,0.0,0.0,0.0,0.0,0.0,0.0,0.0,0.0,0.0,0.0,0.0,0.0,0.0,0.0,0.0,0.0,0.0,0.0,0.0,0.0,0.0,0.0,0.0,0.0,0.0,0.0,0.0,0.0,0.0,0.0,0.0,0.0,0.0,0.0,0.0,0.0,0.0,0.0,0.0,0.0,0.0,0.0,0.0,0.0,0.0,0.0,0.0,0.0,0.0,0.0,0.0,0.0,0.0,0.0,0.0,0.0,0.0,0.0,0.0,0.0,0.0,0.0,0.0,0.0,0.0,0.0,0.0,0.0,0.0,0.0,0.0,0.0,0.0,0.0,0.0,0.0,0.0,0.0,0.0,0.0,0.0,0.0,0.0,0.0,0.0,0.0,0.0,0.0,0.0,0.0,0.0,0.0,0.0,0.0,0.0,0.0,0.0,2.0754,2.1972,2.2954,2.3682,2.2302,2.1571,0.0,0.0,0.0,0.0,0.0,0.0,0.0,0.0,0.0,0.0,0.0,0.0,0.0,0.0,0.0,0.0,0.0,0.0,0.0,0.0,0.0,0.0,0.0,0.0,0.0,0.0,0.0,0.0,0.0,0.0,0.0,0.0,0.0,0.0,0.0,0.0,0.0,0.0,0.0,0.0,0.0,0.0,0.0,0.0,0.0,0.0,0.0,0.0,0.0,0.0,0.0,0.0,0.0,0.0,0.0,0.0,0.0,0.0,0.0,0.0,0.0,0.0,0.0,0.0,0.0,0.0,0.0,0.0,0.0,0.0,0.0,0.0,0.0,0.0,0.0,0.0,0.0,0.0,0.0,0.0,0.0,0.0,0.0,0.0,0.0,0.0,0.0,0.0,0.0,0.0,0.0,0.0,0.0,0.0,0.0,0.0,0.0,0.0,0.0,0.0,0.0,0.0,0.0,0.0,0.0,0.0,0.0,0.0,0.0,2.1218,0.0,2.3652,0.0,2.2351,2.1643,0.0,0.0,0.0,0.0,0.0,0.0,0.0,0.0,0.0,0.0,0.0,0.0,0.0,0.0,0.0,0.0,0.0,0.0,0.0,0.0,0.0,0.0,0.0,0.0,0.0,0.0,0.0,0.0,0.0,0.0,0.0,0.0,0.0,0.0,0.0,0.0,0.0,0.0,0.0,0.0,0.0,0.0,0.0,0.0,0.0,0.0,0.0,0.0,0.0,0.0,0.0,0.0,0.0,0.0,0.0,0.0,0.0,0.0,0.0,0.0,0.0,0.0,0.0,0.0,0.0,0.0,0.0,0.0,0.0,0.0,0.0,0.0,0.0,0.0,0.0,0.0,0.0,0.0,0.0,0.0,0.0,0.0,0.0,0.0,0.0,0.0,0.0,0.0,0.0,0.0,0.0,0.0,0.0,0.0,0.0,0.0,0.0,0.0,0.0,0.0,0.0,0.0,0.0,0.0,0.0,0.0,0.0,0.0,2.0398,2.2127,2.3181,2.3736,2.3788,2.2454,2.1759,0.0,0.0,0.0,0.0,0.0,0.0,0.0,0.0,0.0,0.0,0.0,0.0,0.0,0.0,0.0,0.0,0.0,0.0,0.0,0.0,0.0,0.0,0.0,0.0,0.0,0.0,0.0,0.0,0.0,0.0,0.0,0.0,0.0,0.0,0.0,0.0,0.0,0.0,0.0,0.0,0.0,0.0,0.0,0.0,0.0,0.0,0.0,0.0,0.0,0.0,0.0,0.0,0.0,0.0,0.0,0.0,0.0,0.0,0.0,0.0,0.0,0.0,0.0,0.0,0.0,0.0,0.0,0.0,0.0,0.0,0.0,0.0,0.0,0.0,0.0,0.0,0.0,0.0,0.0,0.0,0.0,0.0,0.0,0.0,0.0,0.0,0.0,0.0,0.0,0.0,0.0,0.0,0.0,0.0,0.0,0.0,0.0,0.0,0.0,0.0,0.0,0.0,0.0,0.0,0.0,0.0,0.0,0.0,0.0,2.2246,2.3253,2.3828,2.3909,2.3069,2.239,0.0,0.0,0.0,0.0,0.0,0.0,0.0,0.0,0.0,0.0,0.0,0.0,0.0,0.0,0.0,0.0,0.0,0.0,0.0,0.0,0.0,0.0,0.0,0.0,0.0,0.0,0.0,0.0,0.0,0.0,0.0,0.0,0.0,0.0,0.0,0.0,0.0,0.0,0.0,0.0,0.0,0.0,0.0,0.0,0.0,0.0,0.0,0.0,0.0,0.0,0.0,0.0,0.0,0.0,0.0,0.0,0.0,0.0,0.0,0.0,0.0,0.0,0.0,0.0,0.0,0.0,0.0,0.0,0.0,0.0,0.0,0.0,0.0,0.0,0.0,0.0,0.0,0.0,0.0,0.0,0.0,0.0,0.0,0.0,0.0,0.0,0.0,0.0,0.0,0.0,0.0,0.0,0.0,0.0,0.0,0.0,0.0,0.0,0.0,0.0,0.0,0.0,0.0,0.0,0.0,0.0,0.0,0.0,0.0,2.3285,2.3909,2.4324,2.4482,2.385,2.303,2.2035,0.0,0.0,0.0,0.0,0.0,0.0,0.0,0.0,0.0,0.0,0.0,0.0,0.0,0.0,0.0,0.0,0.0,0.0,0.0,0.0,0.0,0.0,0.0,0.0,0.0,0.0,0.0,0.0,0.0,0.0,0.0,0.0,0.0,0.0,0.0,0.0,0.0,0.0,0.0,0.0,0.0,0.0,0.0,0.0,0.0,0.0,0.0,0.0,0.0,0.0,0.0,0.0,0.0,0.0,0.0,0.0,0.0,0.0,0.0,0.0,0.0,0.0,0.0,0.0,0.0,0.0,0.0,0.0,0.0,0.0,0.0,0.0,0.0,0.0,0.0,0.0,0.0,0.0,0.0,0.0,0.0,0.0,0.0,0.0,0.0,0.0,0.0,0.0,0.0,0.0,0.0,0.0,0.0,0.0,0.0,0.0,0.0,0.0,0.0,0.0,0.0,0.0,0.0,0.0,0.0,0.0,0.0,0.0,2.4971,2.5082,2.5234,2.5346,2.4735,2.3698,0.0,0.0,0.0,0.0,0.0,0.0,0.0,0.0,0.0,0.0,0.0,0.0,0.0,0.0,0.0,0.0,0.0,0.0,0.0,0.0,0.0,0.0,0.0,0.0,0.0,0.0,0.0,0.0,0.0,0.0,0.0,0.0,0.0,0.0,0.0,0.0,0.0,0.0,0.0,0.0,0.0,0.0,0.0,0.0,0.0,0.0,0.0,0.0,0.0,0.0,0.0,0.0,0.0,0.0,0.0,0.0,0.0,0.0,0.0,0.0,0.0,0.0,0.0,0.0,0.0,0.0,0.0,0.0,0.0,0.0,0.0,0.0,0.0,0.0,0.0,0.0,0.0,0.0,0.0,0.0,0.0,0.0,0.0,0.0,0.0,0.0,0.0,0.0,0.0,0.0,0.0,0.0,0.0,0.0,0.0,0.0,0.0,0.0,0.0,0.0,0.0,0.0,0.0,0.0,0.0,0.0,0.0,0.0,0.0,2.5828,2.6551,2.6717,2.6269,2.5612,2.4845,0.0,0.0,0.0,0.0,0.0,0.0,0.0,0.0,0.0,0.0,0.0,0.0,0.0,0.0,0.0,0.0,0.0,0.0,0.0,0.0,0.0,0.0,0.0,0.0,0.0,0.0,0.0,0.0,0.0,0.0,0.0,0.0,0.0,0.0,0.0,0.0,0.0,0.0,0.0,0.0,0.0,0.0,0.0,0.0,0.0,0.0,0.0,0.0,0.0,0.0,0.0,0.0,0.0,0.0,0.0,0.0,0.0,0.0,0.0,0.0,0.0,0.0,0.0,0.0,0.0,0.0,0.0,0.0,0.0,0.0,0.0,0.0,0.0,0.0,0.0,0.0,0.0,0.0,0.0,0.0,0.0,0.0,0.0,0.0,0.0,0.0,0.0,0.0,0.0,0.0,0.0,0.0,0.0,0.0,0.0,0.0,0.0,0.0,0.0,0.0,0.0,0.0,0.0,0.0,0.0,0.0,0.0,0.0,2.5685,2.6693,2.7644,2.8006,2.7698,2.6716,2.5688,0.0,0.0,0.0,0.0,0.0,0.0,0.0,0.0,0.0,0.0,0.0,0.0,0.0,0.0,0.0,0.0,0.0,0.0,0.0,0.0,0.0,0.0,0.0,0.0,0.0,0.0,0.0,0.0,0.0,0.0,0.0,0.0,0.0,0.0,0.0,0.0,0.0,0.0,0.0,0.0,0.0,0.0,0.0,0.0,0.0,0.0,0.0,0.0,0.0,0.0,0.0,0.0,0.0,0.0,0.0,0.0,0.0,0.0,0.0,0.0,0.0,0.0,0.0,0.0,0.0,0.0,0.0,0.0,0.0,0.0,0.0,0.0,0.0,0.0,0.0,0.0,0.0,0.0,0.0,0.0,0.0,0.0,0.0,0.0,0.0,0.0,0.0,0.0,0.0,0.0,0.0,0.0,0.0,0.0,0.0,0.0,0.0,0.0,0.0,0.0,0.0,0.0,0.0,0.0,0.0,0.0,0.0,0.0,2.6477,2.7387,2.8396,2.9021,2.9163,2.7843,2.6458,0.0,0.0,0.0,0.0,0.0,0.0,0.0,0.0,0.0,0.0,0.0,0.0,0.0,0.0,0.0,0.0,0.0,0.0,0.0,0.0,0.0,0.0,0.0,0.0,0.0,0.0,0.0,0.0,0.0,0.0,0.0,0.0,0.0,0.0,0.0,0.0,0.0,0.0,0.0,0.0,0.0,0.0,0.0,0.0,0.0,0.0,0.0,0.0,0.0,0.0,0.0,0.0,0.0,0.0,0.0,0.0,0.0,0.0,0.0,0.0,0.0,0.0,0.0,0.0,0.0,0.0,0.0,0.0,0.0,0.0,0.0,0.0,0.0,0.0,0.0,0.0,0.0,0.0,0.0,0.0,0.0,0.0,0.0,0.0,0.0,0.0,0.0,0.0,0.0,0.0,0.0,0.0,0.0,0.0,0.0,0.0,0.0,0.0,0.0,0.0,0.0,0.0,0.0,0.0,0.0,0.0,0.0,0.0,2.6537,2.7465,2.8519,2.913,2.9272,2.8412,2.7531,0.0,0.0,0.0,0.0,0.0,0.0,0.0,0.0,0.0,0.0,0.0,0.0,0.0,0.0,0.0,0.0,0.0,0.0,0.0,0.0,0.0,0.0,0.0,0.0,0.0,0.0,0.0,0.0,0.0,0.0,0.0,0.0,0.0,0.0,0.0,0.0,0.0,0.0,0.0,0.0,0.0,0.0,0.0,0.0,0.0,0.0,0.0,0.0,2.5936,0.0,0.0,0.0,0.0,0.0,0.0,0.0,0.0,0.0,0.0,0.0,0.0,0.0,0.0,0.0,0.0,0.0,0.0,0.0,0.0,0.0,0.0,0.0,0.0,0.0,0.0,0.0,0.0,0.0,0.0,0.0,0.0,0.0,0.0,0.0,0.0,0.0,0.0,0.0,0.0,0.0,0.0,0.0,0.0,0.0,0.0,0.0,0.0,0.0,0.0,0.0,0.0,0.0,0.0,0.0,0.0,0.0,0.0,0.0,2.6801,2.8069,2.8767,2.9156,2.9278,2.8983,2.8297,0.0,0.0,0.0,0.0,0.0,0.0,0.0,0.0,0.0,0.0,0.0,0.0,0.0,0.0,0.0,0.0,0.0,0.0,0.0,0.0,0.0,0.0,0.0,0.0,0.0,0.0,0.0,0.0,0.0,0.0,0.0,0.0,0.0,0.0,0.0,0.0,0.0,0.0,0.0,0.0,0.0,0.0,0.0,0.0,0.0,0.0,0.0,0.0,0.0,0.0,0.0,0.0,0.0,0.0,0.0,0.0,0.0,0.0,0.0,0.0,0.0,0.0,0.0,0.0,0.0,0.0,0.0,0.0,0.0,0.0,0.0,0.0,0.0,0.0,0.0,0.0,0.0,0.0,0.0,0.0,0.0,0.0,0.0,0.0,0.0,0.0,0.0,0.0,0.0,0.0,0.0,0.0,0.0,0.0,0.0,0.0,0.0,0.0,0.0,0.0,0.0,0.0,0.0,0.0,0.0,0.0,0.0,2.582,2.7071,2.8749,2.901,2.9181,2.9304,2.9312,2.8662,2.7236,0.0,0.0,0.0,0.0,0.0,0.0,0.0,0.0,0.0,0.0,0.0,0.0,0.0,0.0,0.0,0.0,0.0,0.0,0.0,0.0,0.0,0.0,0.0,0.0,0.0,0.0,0.0,0.0,0.0,0.0,0.0,0.0,0.0,0.0,0.0,0.0,0.0,0.0,2.1714,2.4106,0.0,0.0,0.0,0.0,0.0,0.0,0.0,0.0,2.8405,0.0,0.0,0.0,0.0,0.0,0.0,0.0,0.0,0.0,0.0,0.0,0.0,0.0,0.0,0.0,0.0,0.0,0.0,0.0,0.0,0.0,0.0,0.0,0.0,0.0,0.0,0.0,0.0,0.0,0.0,0.0,0.0,0.0,0.0,0.0,0.0,0.0,0.0,0.0,0.0,0.0,0.0,0.0,0.0,0.0,0.0,0.0,0.0,0.0,0.0,0.0,0.0,0.0,0.0,0.0,0.0,2.5853,2.6151,2.7136,2.8838,2.9078,2.9254,2.9345,2.8818,2.8109,2.7277,0.0,0.0,0.0,0.0,0.0,0.0,0.0,0.0,0.0,0.0,0.0,0.0,0.0,0.0,0.0,0.0,0.0,0.0,0.0,0.0,0.0,0.0,0.0,0.0,0.0,0.0,0.0,0.0,0.0,0.0,0.0,0.0,0.0,0.0,0.0,0.0,0.0,0.0,0.0,2.5471,2.6707,0.0,0.0,0.0,0.0,0.0,0.0,0.0,0.0,2.9255,0.0,0.0,0.0,0.0,0.0,0.0,0.0,0.0,0.0,0.0,0.0,0.0,0.0,0.0,0.0,0.0,0.0,0.0,0.0,0.0,0.0,0.0,0.0,0.0,0.0,0.0,0.0,0.0,0.0,0.0,0.0,0.0,0.0,0.0,0.0,0.0,0.0,0.0,0.0,0.0,0.0,0.0,0.0,0.0,0.0,0.0,0.0,0.0,0.0,0.0,0.0,0.0,0.0,0.0,0.0,2.5925,2.6222,2.7153,2.8832,2.91,2.9246,2.9373,2.8688,2.7969,0.0,0.0,0.0,0.0,0.0,0.0,0.0,0.0,0.0,0.0,0.0,0.0,0.0,0.0,0.0,0.0,0.0,0.0,0.0,0.0,0.0,0.0,0.0,0.0,0.0,0.0,0.0,0.0,0.0,0.0,0.0,0.0,0.0,0.0,0.0,0.0,0.0,0.0,0.0,0.0,2.6499,2.774,2.8181,0.0,0.0,0.0,0.0,0.0,0.0,3.0175,3.0193,0.0,0.0,0.0,0.0,0.0,0.0,0.0,0.0,0.0,0.0,0.0,0.0,0.0,0.0,0.0,0.0,0.0,0.0,0.0,0.0,0.0,0.0,0.0,0.0,0.0,0.0,0.0,0.0,0.0,0.0,0.0,0.0,0.0,0.0,0.0,0.0,0.0,0.0,0.0,0.0,0.0,0.0,0.0,0.0,0.0,0.0,0.0,0.0,0.0,0.0,0.0,0.0,0.0,0.0,0.0,2.5949,2.6233,2.7146,2.8825,2.91,2.9265,2.9384,2.852,2.7791,0.0,0.0,0.0,0.0,0.0,0.0,0.0,0.0,0.0,0.0,0.0,0.0,0.0,0.0,0.0,0.0,0.0,0.0,0.0,0.0,0.0,0.0,0.0,0.0,0.0,0.0,0.0,0.0,0.0,0.0,0.0,0.0,0.0,0.0,0.0,0.0,0.0,0.0,0.0,0.0,0.0,2.8805,2.9648,3.0507,0.0,0.0,0.0,0.0,3.132,3.1177,0.0,0.0,0.0,0.0,0.0,0.0,0.0,0.0,0.0,0.0,0.0,0.0,0.0,0.0,0.0,0.0,0.0,0.0,0.0,0.0,0.0,0.0,0.0,0.0,0.0,0.0,0.0,0.0,0.0,0.0,0.0,0.0,0.0,0.0,0.0,0.0,0.0,0.0,0.0,0.0,0.0,0.0,0.0,0.0,0.0,0.0,0.0,0.0,0.0,0.0,0.0,0.0,0.0,0.0,0.0,0.0,2.5967,2.6235,2.7171,2.8883,2.9123,2.9265,2.9365,2.7942,2.7184,0.0,0.0,0.0,0.0,0.0,0.0,0.0,0.0,0.0,0.0,0.0,0.0,0.0,0.0,0.0,0.0,0.0,0.0,0.0,0.0,0.0,0.0,0.0,0.0,0.0,0.0,0.0,0.0,0.0,0.0,0.0,0.0,0.0,0.0,0.0,0.0,0.0,0.0,0.0,0.0,0.0,2.9722,3.0538,3.1394,3.223,0.0,0.0,3.3106,3.3085,3.2444,0.0,0.0,0.0,0.0,0.0,0.0,0.0,0.0,0.0,0.0,0.0,0.0,0.0,0.0,0.0,0.0,0.0,0.0,0.0,0.0,0.0,0.0,0.0,0.0,0.0,0.0,0.0,0.0,0.0,0.0,0.0,0.0,0.0,0.0,0.0,0.0,0.0,0.0,0.0,0.0,0.0,0.0,0.0,0.0,0.0,0.0,0.0,0.0,0.0,0.0,0.0,0.0,0.0,0.0,0.0,2.2714,2.5949,2.6235,2.7189,2.8938,2.9141,2.9265,2.9384,2.7848,2.7026,0.0,0.0,0.0,0.0,0.0,0.0,0.0,0.0,0.0,0.0,0.0,0.0,0.0,0.0,0.0,0.0,0.0,0.0,0.0,0.0,0.0,0.0,0.0,0.0,0.0,0.0,0.0,0.0,0.0,0.0,0.0,0.0,0.0,0.0,0.0,0.0,0.0,0.0,0.0,0.0,0.0,0.0,3.1422,3.2255,0.0,0.0,0.0,3.3356,3.3336,0.0,0.0,0.0,0.0,0.0,0.0,0.0,0.0,0.0,0.0,0.0,0.0,0.0,0.0,0.0,0.0,0.0,0.0,0.0,0.0,0.0,0.0,0.0,0.0,0.0,0.0,0.0,0.0,0.0,0.0,0.0,0.0,0.0,0.0,0.0,0.0,0.0,0.0,0.0,0.0,0.0,0.0,0.0,0.0,0.0,0.0,0.0,0.0,0.0,0.0,0.0,0.0,0.0,0.0,0.0,0.0,0.0,2.6039,2.6416,2.7353,2.8932,2.9141,2.9265,2.9363,2.7858,0.0,0.0,0.0,0.0,0.0,0.0,0.0,0.0,0.0,0.0,0.0,0.0,0.0,0.0,0.0,0.0,0.0,0.0,0.0,0.0,0.0,0.0,0.0,0.0,0.0,0.0,0.0,1.5114,0.0,0.0,0.0,0.0,0.0,0.0,0.0,0.0,0.0,0.0,0.0,0.0,0.0,0.0,3.1488,3.2553,3.3403,3.3987,0.0,0.0,3.4468,3.4273,3.4026,3.363,0.0,0.0,0.0,0.0,0.0,0.0,0.0,0.0,0.0,0.0,0.0,0.0,0.0,0.0,0.0,0.0,0.0,0.0,0.0,0.0,0.0,0.0,0.0,0.0,0.0,0.0,0.0,0.0,0.0,0.0,0.0,0.0,0.0,0.0,0.0,0.0,0.0,0.0,0.0,0.0,0.0,0.0,0.0,0.0,0.0,0.0,0.0,0.0,0.0,0.0,0.0,0.0,0.0,0.0,0.0,2.6003,2.691,2.7869,2.8957,2.9123,2.9272,2.937,2.7848,2.7018,0.0,0.0,0.0,0.0,0.0,0.0,0.0,0.0,0.0,0.0,0.0,0.0,0.0,0.0,0.0,0.0,0.0,0.0,0.0,0.0,0.0,0.0,0.0,0.0,0.0,0.0,0.0,0.0,0.0,0.0,0.0,0.0,0.0,0.0,0.0,0.0,0.0,0.0,0.0,0.0,0.0,3.2496,3.4113,3.5076,3.5911,0.0,0.0,3.769,3.6851,3.6057,3.5276,3.448,0.0,0.0,0.0,0.0,0.0,0.0,0.0,0.0,0.0,0.0,0.0,0.0,0.0,0.0,0.0,0.0,0.0,0.0,0.0,0.0,0.0,0.0,0.0,0.0,0.0,0.0,0.0,0.0,0.0,0.0,0.0,0.0,0.0,0.0,0.0,0.0,0.0,0.0,0.0,0.0,0.0,0.0,0.0,0.0,0.0,0.0,0.0,0.0,0.0,0.0,0.0,0.0,0.0,2.3916,2.6009,2.6941,2.79,2.8874,2.9093,2.9232,2.9344,2.8322,2.755,0.0,0.0,0.0,0.0,0.0,0.0,0.0,0.0,0.0,0.0,0.0,0.0,0.0,0.0,0.0,0.0,0.0,0.0,0.0,0.0,0.0,0.0,0.0,0.0,0.0,0.0,0.0,0.0,1.9585,2.0825,2.2674,0.0,0.0,0.0,0.0,0.0,0.0,0.0,0.0,0.0,0.0,3.451,3.5103,3.639,0.0,0.0,3.805,3.8122,3.7788,3.7453,3.6945,3.6123,3.5252,0.0,0.0,0.0,0.0,0.0,0.0,0.0,0.0,0.0,0.0,0.0,0.0,0.0,0.0,0.0,0.0,0.0,0.0,0.0,0.0,0.0,0.0,0.0,0.0,0.0,0.0,0.0,0.0,0.0,0.0,0.0,0.0,0.0,0.0,0.0,0.0,0.0,0.0,0.0,0.0,0.0,0.0,0.0,0.0,0.0,0.0,0.0,0.0,0.0,0.0,0.0,0.0,2.4414,2.5971,2.7361,2.8464,2.9229,2.9423,2.9577,2.9635,2.8768,2.7858,0.0,0.0,0.0,0.0,0.0,0.0,0.0,0.0,0.0,0.0,0.0,0.0,0.0,0.0,0.0,0.0,0.0,0.0,0.0,0.0,0.0,0.0,0.0,0.0,0.0,0.0,0.0,0.0,2.103,2.247,2.4453,0.0,0.0,0.0,0.0,0.0,0.0,0.0,0.0,0.0,0.0,3.5795,3.6259,3.7578,3.8485,3.8485,3.8724,3.8801,3.8543,3.8505,3.8215,3.7372,0.0,0.0,0.0,0.0,0.0,0.0,0.0,0.0,0.0,0.0,0.0,0.0,0.0,0.0,0.0,0.0,0.0,0.0,0.0,0.0,0.0,0.0,0.0,0.0,0.0,0.0,0.0,0.0,0.0,0.0,1.8183,0.0,0.0,0.0,0.0,0.0,0.0,0.0,0.0,0.0,0.0,0.0,0.0,0.0,0.0,0.0,0.0,0.0,0.0,0.0,0.0,0.0,0.0,2.4946,2.592,2.8347,2.9717,2.9958,3.0179,3.0351,3.0402,2.9016,2.7848,2.7018,0.0,0.0,0.0,0.0,0.0,0.0,0.0,0.0,0.0,0.0,0.0,0.0,0.0,0.0,0.0,0.0,0.0,0.0,0.0,0.0,0.0,0.0,0.0,0.0,0.0,0.0,2.1706,2.3233,2.4535,0.0,0.0,0.0,0.0,0.0,0.0,0.0,0.0,0.0,0.0,3.547,3.6119,3.7731,3.8666,3.9242,3.9242,3.9931,4.0169,3.9365,3.9231,3.8916,0.0,0.0,0.0,0.0,0.0,0.0,0.0,0.0,0.0,0.0,0.0,0.0,0.0,0.0,0.0,0.0,0.0,0.0,0.0,0.0,0.0,0.0,0.0,0.0,0.0,0.0,0.0,2.1182,2.1199,0.0,0.0,0.0,0.0,0.0,0.0,0.0,0.0,0.0,0.0,0.0,2.7014,2.7281,0.0,0.0,0.0,0.0,0.0,0.0,0.0,0.0,0.0,0.0,0.0,0.0,2.5727,2.6618,2.8627,2.9768,2.9886,3.0625,3.0809,3.0388,2.999,2.8935,2.713,0.0,0.0,0.0,0.0,0.0,0.0,0.0,0.0,0.0,0.0,0.0,0.0,0.0,0.0,0.0,0.0,0.0,0.0,0.0,0.0,0.0,0.0,0.0,0.0,0.0,2.2796,0.0,0.0,0.0,0.0,0.0,0.0,0.0,0.0,0.0,0.0,0.0,3.4475,3.5266,3.6826,3.8273,3.931,4.0182,4.09,0.0,0.0,0.0,0.0,0.0,0.0,0.0,0.0,0.0,0.0,0.0,0.0,0.0,0.0,3.693,3.6434,3.635,3.6357,3.642,0.0,0.0,0.0,0.0,0.0,0.0,0.0,0.0,0.0,0.0,0.0,0.0,0.0,0.0,2.4323,0.0,2.4074,0.0,0.0,0.0,0.0,0.0,0.0,0.0,0.0,2.7729,2.8457,2.9058,2.9012,2.903,0.0,2.8477,2.7201,0.0,0.0,0.0,0.0,0.0,0.0,0.0,0.0,2.6486,2.7321,2.9125,3.0256,3.0595,3.1376,3.1445,3.0722,3.0098,2.9047,2.7531,2.5886,2.4666,0.0,0.0,0.0,0.0,0.0,0.0,0.0,0.0,0.0,0.0,0.0,0.0,0.0,0.0,0.0,0.0,0.0,0.0,0.0,0.0,0.0,0.0,0.0,2.4588,0.0,0.0,0.0,0.0,0.0,0.0,0.0,0.0,0.0,3.219,3.4218,3.6029,3.6831,3.8371,3.9795,4.0823,0.0,0.0,0.0,0.0,0.0,0.0,0.0,4.2593,4.2574,4.2165,4.1653,4.113,4.0168,3.9642,4.0214,0.0,0.0,3.9027,3.8839,3.8865,3.8888,3.8895,3.8972,3.9273,3.9296,3.9358,0.0,0.0,0.0,0.0,0.0,0.0,0.0,0.0,2.7447,2.7525,0.0,2.6837,0.0,0.0,0.0,0.0,0.0,2.747,0.0,0.0,3.0074,3.0588,3.085,3.0755,3.0737,3.0832,3.0686,3.0101,2.9101,2.691,0.0,0.0,0.0,0.0,0.0,0.0,2.7256,2.8135,2.9912,3.1232,3.2047,3.2384,3.2195,3.147,2.9426,2.8304,2.8146,2.6655,2.5468,2.4649,2.309,0.0,0.0,0.0,0.0,0.0,0.0,0.0,0.0,0.0,0.0,0.0,0.0,0.0,0.0,0.0,0.0,0.0,0.0,0.0,0.0,2.463,0.0,0.0,0.0,0.0,0.0,0.0,0.0,0.0,0.0,0.0,3.5304,3.6046,3.7365,3.963,0.0,0.0,0.0,0.0,4.2434,4.2479,4.2461,4.2491,4.2491,4.2491,4.2491,4.251,0.0,0.0,4.2615,4.2588,4.2493,4.2607,4.2542,4.2176,4.0814,4.0543,4.0456,4.0483,4.0483,4.0743,4.1414,4.1462,4.1731,2.992,0.0,0.0,0.0,0.0,2.9042,2.9472,2.9781,3.0473,3.0454,2.995,2.9757,0.0,0.0,0.0,0.0,0.0,0.0,3.0342,3.1648,3.2038,3.2813,3.3917,3.3865,3.3883,3.3882,3.3364,3.2606,3.1708,3.0485,2.8647,2.6297,0.0,0.0,0.0,0.0,2.8372,2.9698,3.0983,3.1779,3.201,3.2841,3.2737,3.1605,3.0457,2.9301,2.8171,2.7168,2.6291,2.5481,2.3923,0.0,0.0,0.0,0.0,0.0,0.0,0.0,0.0,0.0,0.0,0.0,0.0,0.0,0.0,0.0,0.0,0.0,0.0,0.0,2.6366,2.7488,2.8526,0.0,0.0,0.0,0.0,0.0,0.0,0.0,0.0,0.0,3.8353,3.8669,3.9138,0.0,0.0,4.199,4.2913,4.3051,4.3233,4.3815,4.3909,0.0,4.3956,4.3975,4.4001,4.4033,4.3586,4.3233,4.3218,4.2768,4.259,4.3187,4.33,4.3354,4.3525,4.2749,4.2106,4.2039,4.2049,4.2106,4.2317,4.2393,4.2468,3.3754,3.2943,3.1062,3.0486,3.0921,3.1442,3.1878,3.2263,3.2805,3.2807,3.2371,3.2109,3.148,3.0606,3.0763,0.0,0.0,0.0,3.2392,3.3614,3.3764,3.4311,3.5151,3.5204,3.5204,3.5204,3.4741,3.4243,3.3731,3.3217,3.1787,2.9493,0.0,0.0,2.8827,2.9008,2.9686,3.0894,3.1655,3.2169,3.2508,3.2946,3.2659,3.1641,3.0898,2.9908,2.8653,2.7846,2.7056,2.6265,2.4731,2.3509,0.0,0.0,0.0,0.0,0.0,0.0,0.0,0.0,0.0,0.0,0.0,2.1348,2.1353,0.0,0.0,0.0,2.5745,2.7441,2.8736,2.9608,0.0,0.0,0.0,0.0,0.0,0.0,0.0,3.7321,3.8761,3.99,4.0396,4.086,4.113,4.1098,4.1996,4.288,4.36,0.0,4.3872,4.4355,4.443,4.4444,4.4468,4.4468,4.4515,4.4578,4.4229,4.393,4.3919,4.353,4.3454,4.3869,4.4033,4.4203,4.4714,4.4092,4.3502,4.3561,4.3572,4.3572,4.3572,4.3569,4.3577,3.734,3.7305,3.3761,3.2736,3.339,3.346,3.3968,3.4687,3.4765,3.475,3.4645,3.3984,3.3652,3.3546,3.2897,0.0,3.36,3.3793,3.4287,3.5066,3.5207,3.5312,3.5365,3.54,3.5383,3.54,3.5383,3.5312,3.5207,3.5207,3.4782,3.3896,3.1771,3.0654,3.0617,3.0718,3.1151,3.1898,3.2179,3.2621,3.3286,3.2853,3.2307,3.1715,3.0979,3.0231,2.9508,2.8597,2.7761,2.7009,2.5575,2.4385,2.3535,0.0,0.0,0.0,0.0,0.0,0.0,0.0,0.0,0.0,0.0,0.0,0.0,0.0,0.0,0.0,2.7844,0.0,3.0503,3.1294,0.0,0.0,0.0,3.5505,3.6375,3.7062,3.8041,3.9527,0.0,0.0,4.1707,4.259,4.309,4.3161,4.3175,4.346,4.4188,4.4248,4.4285,4.427,4.4285,4.4285,4.43,4.4318,4.4344,4.4397,4.444,4.4458,4.4513,4.4562,4.4635,4.4584,4.4653,4.4653,4.4672,4.4597,4.4712,4.4726,4.4814,4.4826,4.475,4.4738,4.4719,3.8179,3.8438,3.7606,3.6737,3.5985,3.6579,3.6986,3.7226,3.7226,3.6913,3.6371,3.5582,3.4951,3.4407,3.4231,3.425,3.4425,3.4516,3.4994,3.5753,3.5845,3.6237,3.6879,3.6879,3.6933,3.7023,3.7041,3.672,3.6114,3.6096,3.5651,3.4886,3.4298,3.3745,3.3207,3.2679,3.2847,3.3683,3.3888,3.3869,3.3605,3.3492,3.3133,3.2508,3.1757,3.1001,3.0326,2.8895,2.8003,2.7798,2.6916,2.5788,2.4385,2.4203,0.0,0.0,0.0,0.0,0.0,0.0,0.0,0.0,0.0,2.4843,2.5485,0.0,2.7127,0.0,2.976,3.1419,3.2831,3.3699,0.0,0.0,3.6289,3.7268,3.8571,3.8874,3.9577,4.1071,4.1786,4.2287,4.2611,4.3394,4.3882,4.38,4.3923,4.4076,4.4211,4.4229,4.418,4.4101,4.4085,4.4116,4.4195,4.4274,4.4318,4.4314,4.4344,4.4358,4.4373,4.4387,4.4383,4.4401,4.4401,4.4401,4.4435,4.4401,4.4397,4.4454,4.4587,4.4732,4.4751,4.4712,4.4691,3.9427,3.9743,3.9857,3.9508,3.8839,3.8674,3.8593,3.8638,3.8638,3.8409,3.797,3.7198,3.6426,3.5742,3.5725,3.5899,3.6197,3.633,3.6791,3.7549,3.7628,3.7955,3.8476,3.8459,3.8534,3.8611,3.8272,3.7898,3.747,3.7095,3.672,3.6274,3.5917,3.5755,3.5733,3.4672,3.4411,3.497,3.5144,3.491,3.4265,3.4257,3.3815,3.2822,3.2046,3.1321,3.0604,2.9359,2.8505,2.8114,2.7726,2.6963,2.5751,2.5718,2.5348,0.0,0.0,0.0,0.0,0.0,0.0,0.0,0.0,0.0,0.0,0.0,2.9695,3.0906,3.2192,3.3481,3.4709,3.5524,3.642,3.754,3.8022,3.8855,4.0408,4.0538,4.0977,4.2136,4.2682,4.3062,4.336,4.3806,4.4085,4.4005,4.4082,4.4147,4.4116,4.4119,4.4085,4.4005,4.4005,4.402,4.4104,4.4131,4.4162,4.4162,4.4192,4.4259,4.4259,4.427,4.4318,4.4318,4.4318,4.4449,4.4748,4.4842,4.492,4.5286,4.5484,4.5435,4.5129,4.5026,4.5073,4.0655,4.0888,4.1029,4.121,4.1253,4.0057,3.9561,3.9582,3.9477,3.941,3.9249,3.8567,3.7883,3.7306,3.7306,3.7637,3.8234,3.8368,3.8798,3.947,3.9552,3.9653,3.9771,3.9791,3.9832,3.9859,3.9254,3.8897,3.8772,3.8094,3.772,3.7577,3.6899,3.7023,3.7809,3.6513,3.589,3.5991,3.6003,3.5725,3.5099,3.5045,3.4425,3.3154,3.2304,3.1559,3.0909,3.0028,2.9211,2.8486,2.8396,2.7987,2.7214,2.7158,2.7158,0.0,2.7158,0.0,0.0,0.0,0.0,0.0,0.0,0.0,0.0,3.0698,3.2293,3.3781,3.469,3.5511,3.6319,3.7038,3.8075,3.952,3.9708,4.0323,4.18,4.1983,4.223,4.2928,4.3022,4.3289,4.3844,4.3974,4.3992,4.3958,4.3958,4.3992,4.3974,4.3989,4.4005,4.4005,4.4005,4.4005,4.4023,4.4005,4.402,4.4039,4.4253,4.4336,4.4373,4.4512,4.4595,4.4595,4.4639,4.4826,4.5475,4.5572,4.5795,4.6358,4.647,4.6315,4.582,4.5652,4.5861,4.0583,4.0769,4.1017,4.1117,4.1146,4.0936,4.0971,4.113,4.0533,3.9901,3.9284,3.9143,3.8985,3.8883,3.8866,3.8936,3.9073,3.9094,3.9203,3.9343,3.9467,3.9552,3.9653,3.9753,3.9834,3.9877,3.9752,3.9397,3.8789,3.8628,3.8237,3.7613,3.7506,3.7613,3.7881,0.0,0.0,0.0,3.6379,3.6073,3.6032,3.5464,3.5054,3.4797,3.3414,0.0,3.2488,3.1143,3.0288,3.0121,2.9518,0.0,0.0,0.0,0.0,0.0,0.0,0.0,0.0,0.0,0.0,0.0,3.2699,3.2886,3.1779,3.3166,3.4525,3.5459,3.6247,3.7021,3.7803,3.8545,3.9364,4.0285,4.095,4.1712,4.2592,4.2694,4.2947,4.3627,4.3688,4.373,4.3795,4.3835,4.3835,4.3835,4.3853,4.3835,4.3835,4.3929,4.3989,4.4005,4.4026,4.4008,4.4005,4.4045,4.4156,4.4079,4.4652,4.5058,4.5117,4.5533,4.5888,4.5869,4.5879,4.5828,4.605,4.6087,4.616,4.6291,4.6346,4.6305,4.6371,4.6334,4.6306,4.0517,0.0,4.0888,4.1047,0.0,4.1146,4.1267,4.1373,4.109,4.0521,3.9884,3.9884,3.9673,3.9322,3.9322,3.9533,3.9901,3.9884,4.0095,4.0446,4.0574,4.0697,4.0784,4.0907,4.0991,4.1074,4.0681,4.0307,3.995,3.9538,3.8969,3.8258,3.8276,3.8169,3.7951,3.8153,3.8116,3.789,3.7552,3.7228,3.693,3.6597,3.6076,3.5343,3.4185,0.0,0.0,0.0,0.0,0.0,0.0,0.0,0.0,0.0,0.0,3.0017,3.0017,3.0381,3.1241,3.2042,3.2698,3.315,3.4734,3.5401,3.465,3.5393,3.6209,3.6974,3.7734,3.8534,3.9364,4.0109,4.0845,4.1619,4.2046,4.253,4.3228,4.3364,4.3468,4.3775,4.3851,4.3835,4.3804,4.3788,4.3788,4.3788,4.3788,4.3806,4.3804,4.3851,4.3897,4.3915,4.4286,4.4508,4.4527,4.4862,4.5066,4.5158,4.5455,4.5714,4.5749,4.6013,4.6238,4.6238,4.6222,4.6298,4.6723,4.6797,4.6907,4.7258,4.7369,4.7405,4.7511,4.7214,4.7047,4.051,4.0534,4.0817,4.0959,4.107,4.1087,4.1105,4.1209,0.0,0.0,0.0,4.0695,4.0305,3.9705,3.9708,4.0059,4.0695,4.0695,4.1029,4.1648,4.1776,4.1923,4.2009,4.2118,4.2205,4.2251,4.1627,4.1234,4.1112,4.0469,3.9812,3.9209,3.9156,3.8888,3.834,3.8358,3.8446,3.8525,3.8658,3.8422,3.7834,3.7737,3.7124,3.584,3.4903,3.4123,3.3466,3.2537,3.2017,3.2017,3.1868,3.1801,3.1801,3.1801,3.1868,3.1998,3.2147,3.2307,3.2557,3.3909,3.4814,3.4999,3.6279,3.71,3.7193,3.7336,3.7723,3.8476,3.9272,4.0037,4.0741,4.1427,4.2132,4.2802,4.2885,4.3161,4.3772,4.3835,4.3767,4.3753,4.3753,4.3753,4.3754,4.3738,4.3736,4.3773,4.3885,4.405,4.4123,4.4175,4.4171,4.4395,4.4892,4.5208,4.53,4.567,4.6187,4.6077,4.6261,4.6409,4.6427,4.6521,4.6595,4.6743,4.6596,4.6891,4.7425,4.7536,4.7776,4.8403,4.8532,4.8532,4.8421,4.7979,4.7776,4.051,4.0534,4.0817,4.0912,4.0918,4.0935,4.1035,4.1209,4.134,4.1418,4.1446,4.1446,4.1394,4.1271,4.1288,4.1341,4.1464,4.1464,4.1565,4.178,4.1902,4.1991,4.2082,4.2207,4.2287,4.2308,4.2162,4.183,4.1302,4.1178,4.077,4.0164,4.0166,3.9913,3.9374,3.8747,3.8481,3.8673,3.8765,3.8737,3.8623,3.8075,3.7701,3.7438,3.6072,3.5287,3.5138,3.3658,3.2834,3.2804,3.2184,3.1801,3.1812,3.1868,3.2109,3.2816,3.3503,3.4209,3.4915,3.5844,3.6675,3.7344,3.7623,3.7824,3.7959,3.857,3.9335,4.0176,4.0873,4.1408,4.1595,4.2166,4.2613,4.2761,4.3278,4.3691,4.382,4.3804,4.3736,4.3651,4.3634,4.3599,4.3566,4.3586,4.364,4.3678,4.4209,4.4818,4.5294,4.5142,4.5154,4.5689,4.5947,4.604,4.6041,4.6096,4.6336,4.6206,4.6833,4.7221,4.7203,4.761,4.7942,4.8126,4.7923,4.7977,4.8143,4.8179,4.8198,4.8363,4.8363,4.8363,4.8363,4.8197,4.8179,4.051,4.0534,4.0793,4.0894,4.0894,4.0982,4.1082,4.1209,4.134,4.1471,4.1604,4.1604,4.1604,4.1604,4.1604,4.1604,4.1604,4.167,4.1736,4.1819,4.197,4.2076,4.2103,4.2246,4.2328,4.2387,4.2405,4.2251,4.2047,4.2011,4.1674,4.1014,4.0709,4.0453,4.0225,3.9526,3.9205,3.935,3.9001,3.8822,3.8848,3.8584,3.828,3.7858,3.7156,3.6588,3.616,3.5404,3.5027,3.4996,3.4643,3.4469,3.4451,3.4469,3.4618,3.499,3.5343,3.572,3.6123,3.6904,3.7894,3.9115,3.925,3.9463,3.9965,3.9928,4.0258,4.1059,4.1849,4.2289,4.2262,4.2909,4.3328,4.3315,4.355,4.3684,4.3684,4.3651,4.36,4.3566,4.3548,4.3531,4.3496,4.3864,4.4158,4.4213,4.4856,4.5663,4.6416,4.6323,4.6083,4.6084,4.6378,4.6654,4.6709,4.7095,4.7298,4.7353,4.7647,4.785,4.7887,4.8236,4.8364,4.8382,4.8325,4.8324,4.8324,4.8324,4.8324,4.8324,4.8324,4.8324,4.8324,4.8324,4.8324,4.0766,4.0749,4.0862,4.0935,4.0959,4.1076,4.1175,4.1272,4.1386,4.1515,4.1587,4.1604,4.1604,4.1604,4.1609,4.1648,4.167,4.1776,4.1862,4.187,4.2019,4.2103,4.2163,4.2287,4.2405,4.2503,4.2524,4.2566,4.2629,4.2649,4.2419,4.1902,4.1306,4.1029,4.1098,4.0434,4.0113,4.012,3.9442,3.9021,3.891,3.895,3.872,3.8228,3.7968,3.761,3.7002,3.6792,3.6718,3.6718,3.6718,3.6718,3.6718,3.6718,3.6718,3.6718,3.6872,3.7052,3.7262,3.8,3.9008,4.0267,4.0583,4.101,4.1683,4.1297,4.1167,4.1832,4.2578,4.3033,4.3042,4.346,4.3818,4.3753,4.3651,4.3582,4.3565,4.3531,4.3479,4.3479,4.3479,4.357,4.3809,4.4305,4.4819,4.5278,4.581,4.6471,4.7168,4.7369,4.7095,4.6801,4.6985,4.7352,4.7406,4.7829,4.8177,4.8324,4.8288,4.8252,4.8269,4.8288,4.8324,4.8306,4.8306,4.8324,4.8324,4.8324,4.8324,4.8324,4.8324,4.8324,4.8324,4.8324,4.8324,4.151,4.1433,4.112,4.0976,4.1128,4.1175,4.1272,4.1386,4.1538,4.1582,4.1604,4.1604,4.1604,4.1626,4.1714,4.178,4.178,4.1923,4.2009,4.2079,4.2082,4.2166,4.2305,4.2425,4.2483,4.2524,4.2568,4.2649,4.2764,4.2783,4.2825,4.2868,4.2232,4.1937,4.1951,4.129,4.0919,4.0967,4.0273,3.9559,3.8947,3.8983,3.8998,3.899,3.8284,3.7875,3.7764,3.7089,3.6718,3.6718,3.6755,3.6736,3.6755,3.6736,3.6736,3.6792,3.7392,3.8098,3.8822,3.9709,4.0215,4.0434,4.1103,4.1813,4.2593,4.2554,4.2517,4.2752,4.3351,4.3712,4.3788,4.3695,4.3651,4.3634,4.3548,4.3496,4.3496,4.3496,4.3479,4.3479,4.3606,4.3754,4.447,4.4783,4.537,4.6599,4.6856,4.7223,4.7902,4.8048,4.8067,4.8012,4.8159,4.8141,4.8122,4.8195,4.8324,4.8324,4.8324,4.8324,4.8324,4.8324,4.8324,4.8324,4.8324,4.8324,4.8324,4.8324,4.8324,4.8324,4.8324,4.8324,4.8324,4.8324,4.8324,4.2304,4.2431,4.2322,4.2047,4.1734,4.1435,4.134,4.1426,4.1609,4.1714,4.1736,4.1815,4.1797,4.1736,4.1858,4.1923,4.1923,4.203,4.2061,4.2103,4.2264,4.2364,4.2425,4.2526,4.2588,4.2665,4.2706,4.2765,4.2861,4.2936,4.3049,4.3123,4.2922,4.2847,4.2845,4.2147,4.1776,4.1791,4.1052,4.0512,4.0201,3.939,3.8964,3.8998,3.8716,3.8577,3.8581,3.8284,3.8116,3.8116,3.813,3.8116,3.8116,3.8116,3.8116,3.8154,3.8915,3.9524,3.9863,4.0643,4.1311,4.1776,4.211,4.2634,4.3351,4.3431,4.3415,4.3421,4.3666,4.3818,4.3734,4.3649,4.3582,4.3548,4.3496,4.3479,4.3479,4.3497,4.3644,4.4085,4.4213,4.4525,4.5296,4.5828,4.6562,4.7571,4.7791,4.7957,4.8288,4.8324,4.8324,4.8324,4.8324,4.8324,4.8324,4.8324,4.8324,4.8324,4.8324,4.8324,4.8324,4.8324,4.8324,4.8324,4.8324,4.8324,4.8324,4.8324,4.8324,4.8324,4.8324,4.8324,4.8324,4.8324,4.8324,4.3177,4.3263,4.3268,4.2905,4.2287,4.1893,4.164,4.1515,4.1714,4.1801,4.188,4.1987,4.1991,4.1952,4.1991,4.2012,4.2034,4.2142,4.2205,4.2225,4.2445,4.2544,4.2544,4.2607,4.2688,4.2783,4.2841,4.2936,4.3012,4.3123,4.3215,4.3269,4.3376,4.3447,4.3374,4.2876,4.2635,4.2561,4.1846,4.144,4.1319,4.0188,3.9434,3.9301,3.9094,3.9026,3.9059,3.9059,3.9073,3.9082,3.9101,3.9101,3.9101,3.9324,3.9547,3.9788,4.0364,4.0731,4.075,4.146,4.2166,4.2723,4.2968,4.333,4.3749,4.3849,4.3783,4.3716,4.3738,4.3686,4.3634,4.3582,4.3548,4.3496,4.3479,4.3479,4.3479,4.3643,4.4066,4.4599,4.4856,4.5351,4.614,4.6893,4.7626,4.8103,4.8288,4.8324,4.8324,4.8324,4.8324,4.8324,4.8324,4.8324,4.8324,4.8324,4.8324,4.8324,4.8324,4.8324,4.8324,4.8324,4.8324,4.8324,4.8324,4.8324,4.8324,4.8324,4.8287,4.8324,4.8305,4.8305,4.8324,4.8324,4.8324,4.407,4.3993,4.36,4.3151,4.2614,4.2567,4.2266,4.1828,4.1854,4.1898,4.1987,4.2097,4.2184,4.2267,4.2163,4.2103,4.2142,4.2364,4.2445,4.2483,4.2568,4.2589,4.2609,4.2707,4.2803,4.2841,4.2974,4.3123,4.3196,4.3305,4.3394,4.3394,4.3464,4.3497,4.3479,4.3406,4.3406,4.3259,4.2616,4.2249,4.2139,4.144,4.0675,4.0114,3.9335,3.905,3.9085,3.903,3.9091,3.9138,3.9212,3.9175,3.9212,3.9932,4.0661,4.1293,4.1497,4.1534,4.1642,4.2296,4.2797,4.2912,4.3426,4.3841,4.3846,4.3734,4.3632,4.3617,4.3548,4.3549,4.36,4.3548,4.3496,4.3515,4.3479,4.3479,4.3552,4.4176,4.4599,4.4929,4.5535,4.6232,4.6984,4.7736,4.8122,4.8288,4.8324,4.8324,4.8324,4.8324,4.8324,4.8324,4.8324,4.8324,4.8324,4.8324,4.8324,4.8324,4.8324,4.8324,4.8324,4.8324,4.8324,4.8324,4.8324,4.8324,4.8324,4.8287,4.8287,4.8287,4.8286,4.8286,4.8247,4.8305,4.8378,4.4905,4.5019,4.4553,4.4286,4.4173,4.3734,4.3203,4.2648,4.2717,4.2541,4.2255,4.2323,4.2407,4.2472,4.2432,4.2412,4.2412,4.2528,4.2568,4.2606,4.2668,4.2707,4.2745,4.2917,4.2992,4.2993,4.3087,4.3214,4.3323,4.3394,4.3411,4.3445,4.348,4.3479,4.3479,4.3479,4.3479,4.3478,4.3185,4.3057,4.2965,4.2304,4.1732,4.1487,4.0778,4.0397,4.0458,4.0555,4.06,4.063,4.0688,4.0698,4.0736,4.0996,4.1274,4.159,4.2073,4.2352,4.2445,4.307,4.35,4.3503,4.3698,4.3783,4.3699,4.3632,4.3582,4.3531,4.3496,4.3496,4.3513,4.3496,4.3479,4.3479,4.3497,4.3718,4.4158,4.4544,4.5058,4.6067,4.6929,4.7572,4.7755,4.8122,4.8306,4.8324,4.8324,4.8324,4.8324,4.8324,4.8324,4.8324,4.8324,4.8324,4.8324,4.8324,4.8324,4.8324,4.8324,4.8324,4.8324,4.8324,4.8324,4.8324,4.8324,4.8305,4.8305,4.8248,4.8248,4.8228,4.8228,4.8226,4.813,4.8373,4.8612,4.5511,4.5674,4.5414,4.5277,4.5117,4.4729,4.4173,4.3594,4.3689,4.3369,4.2831,4.2862,4.2837,4.2685,4.2668,4.2707,4.2764,4.2688,4.2649,4.2686,4.2822,4.2898,4.2936,4.3067,4.3123,4.3142,4.3233,4.3322,4.3429,4.3429,4.3464,4.3479,4.3479,4.3479,4.3479,4.3479,4.3479,4.3479,4.3479,4.3479,4.3423,4.2965,4.269,4.2616,4.2189,4.1701,4.1322,4.1348,4.1413,4.1425,4.1489,4.1646,4.1917,4.1965,4.2095,4.2377,4.2826,4.3141,4.3185,4.3585,4.3849,4.3867,4.3786,4.3703,4.3617,4.3582,4.3549,4.3515,4.3479,4.3479,4.3479,4.3479,4.3479,4.3534,4.3718,4.4085,4.4636,4.5168,4.6067,4.7186,4.7846,4.8214,4.8324,4.8306,4.8324,4.8324,4.8324,4.8324,4.8324,4.8324,4.8324,4.8324,4.8324,4.8324,4.8324,4.8324,4.8324,4.8324,4.8324,4.8324,4.8324,4.8324,4.8305,4.8305,4.8305,4.8287,4.8248,4.8229,4.8207,4.8184,4.8184,4.8183,4.8309,4.8567,4.9027,4.5871,4.598,4.6137,4.5862,4.5452,4.5481,4.5123,4.4582,4.4656,4.43,4.3706,4.3773,4.3478,4.2982,4.2965,4.2953,4.2993,4.2898,4.2822,4.2823,4.3011,4.3086,4.3104,4.3178,4.3214,4.3233,4.334,4.3429,4.3479,4.3479,4.3479,4.3479,4.3479,4.3479,4.3479,4.3479,4.3479,4.3479,4.3479,4.3479,4.3479,4.3406,4.3386,4.3406,4.3349,4.2704,4.139,4.1351,4.1472,4.1464,4.148,4.1804,4.2566,4.2773,4.3104,4.3598,4.3841,4.383,4.3765,4.3767,4.3786,4.3769,4.3667,4.3599,4.36,4.3549,4.3515,4.3515,4.3479,4.3479,4.3497,4.3589,4.3608,4.3589,4.4176,4.4599,4.5095,4.6177,4.7388,4.803,4.8306,4.8306,4.8324,4.8324,4.8324,4.8324,4.8324,4.8324,4.8324,4.8324,4.8324,4.8324,4.8324,4.8324,4.8324,4.8324,4.8324,4.8324,4.8324,4.8324,4.8324,4.8324,4.8286,4.8286,4.8228,4.8228,4.8224,4.8221,4.8344,4.834,4.8285,4.8502,4.8865,4.9266,4.9773,4.6087,4.6179,4.6398,4.6442,4.6324,4.637,4.6064,4.5547,4.5595,4.5254,4.4772,4.4743,4.4373,4.3839,4.379,4.3575,4.3122,4.3068,4.3087,4.3087,4.316,4.316,4.3178,4.3287,4.3358,4.341,4.3445,4.348,4.3479,4.3479,4.3479,4.3479,4.3479,4.3479,4.3496,4.3479,4.3479,4.3479,4.3479,4.3479,4.3479,4.3496,4.3496,4.3479,4.3479,4.3238,4.2832,4.2846,4.2861,4.2859,4.298,4.3158,4.3393,4.3481,4.361,4.3798,4.3818,4.3818,4.3804,4.3719,4.3667,4.3651,4.3565,4.3531,4.3532,4.3513,4.3479,4.3479,4.3479,4.3479,4.3571,4.403,4.4287,4.4342,4.4562,4.5241,4.6177,4.7223,4.7939,4.8233,4.8324,4.8324,4.8324,4.8324,4.8324,4.8324,4.8324,4.8324,4.8324,4.8324,4.8324,4.8324,4.8324,4.8324,4.8324,4.8361,4.8398,4.8434,4.8434,4.8324,4.8324,4.8286,4.8267,4.8411,4.8315,4.8349,4.8326,4.8431,4.866,4.893,4.9146,4.9413,4.9734,5.011,5.0553,4.6332,4.6381,4.659,4.6725,4.6819,4.687,4.6775,4.648,4.6514,4.6212,4.5686,4.5658,4.5269,4.4734,4.4702,4.4342,4.3707,4.3689,4.3579,4.3341,4.3286,4.3269,4.3305,4.3375,4.3445,4.3497,4.3479,4.3479,4.3479,4.3479,4.3479,4.3479,4.3479,4.3496,4.3549,4.3531,4.3566,4.36,4.36,4.36,4.3618,4.3618,4.3618,4.3618,4.36,4.36,4.36,4.3599,4.3582,4.3582,4.3667,4.3719,4.3736,4.3753,4.3788,4.3736,4.3719,4.3719,4.3686,4.3582,4.3565,4.3548,4.3513,4.3479,4.3479,4.3479,4.3479,4.3479,4.3479,4.3643,4.3956,4.436,4.4893,4.5553,4.5645,4.6177,4.737,4.7994,4.8269,4.8324,4.8324,4.8324,4.8324,4.8324,4.8324,4.8324,4.8324,4.8324,4.8324,4.8324,4.8324,4.8324,4.8324,4.8324,4.8324,4.8379,4.8489,4.8545,4.8581,4.8416,4.8324,4.8285,4.8264,4.8786,4.8908,4.9229,4.9297,4.9325,4.9498,4.977,4.997,5.0188,5.0428,5.0797,5.1255,4.6613,4.6637,4.6754,4.6842,4.6865,4.707,4.7165,4.7209,4.7349,4.7042,4.6504,4.6496,4.6182,4.5665,4.5577,4.5237,4.4766,4.4675,4.4382,4.3904,4.3649,4.354,4.3429,4.3463,4.3479,4.3479,4.3479,4.3479,4.3479,4.3479,4.3496,4.3496,4.3532,4.3549,4.3617,4.3634,4.3686,4.3771,4.3769,4.3788,4.3788,4.3788,4.3788,4.3788,4.3788,4.3771,4.3771,4.3686,4.36,4.3513,4.3565,4.3599,4.3634,4.3719,4.3703,4.3599,4.36,4.3565,4.3513,4.3496,4.3496,4.3496,4.3496,4.3479,4.3479,4.3479,4.3479,4.3497,4.3589,4.3901,4.447,4.4948,4.5627,4.6837,4.7021,4.7443,4.8141,4.8288,4.8306,4.8324,4.8324,4.8324,4.8324,4.8324,4.8324,4.8324,4.8324,4.8324,4.8324,4.8324,4.8343,4.8434,4.8636,4.8893,4.9077,4.9242,4.9352,4.9407,4.937,4.9169,4.8891,4.8832,4.8771,4.9255,4.9643,4.998,5.0134,5.0112,5.0199,5.0381,5.0602,5.0824,5.1188,5.1609,5.188,4.6731,4.6772,4.6998,4.7088,4.7111,4.7209,4.7338,4.7425,4.7468,4.7428,4.731,4.737,4.7,4.6412,4.6418,4.6096,4.5626,4.5535,4.5517,4.5204,4.4618,4.4013,4.3573,4.3497,4.3479,4.3479,4.3496,4.3479,4.3479,4.3515,4.3531,4.3565,4.3565,4.3652,4.3736,4.3736,4.3771,4.3788,4.3804,4.3804,4.3804,4.3804,4.3788,4.3788,4.3804,4.3804,4.3804,4.3771,4.3651,4.3496,4.3532,4.3532,4.3549,4.3566,4.3583,4.3566,4.3513,4.3513,4.3496,4.3479,4.3479,4.3479,4.3496,4.3479,4.3479,4.3497,4.3497,4.3589,4.3975,4.447,4.4856,4.5773,4.6856,4.7736,4.7901,4.8031,4.8233,4.8324,4.8324,4.8324,4.8324,4.8324,4.8324,4.8324,4.8324,4.8324,4.8379,4.8398,4.8489,4.8636,4.8783,4.9132,4.9408,4.9701,4.9976,5.0141,5.027,5.038,5.0398,5.038,5.0134,5.0017,4.9989,5.0122,5.0329,5.0646,5.0639,5.0598,5.0776,5.1129,5.158,5.1956,5.22,5.2546,5.2578,4.6911,4.6998,4.7133,4.7201,4.7249,4.7341,4.7428,4.7511,4.7554,4.7636,4.7699,4.7741,4.7588,4.7274,4.7337,4.6996,4.6414,4.6379,4.6214,4.5846,4.546,4.4634,4.379,4.3479,4.3479,4.3515,4.3532,4.3531,4.3548,4.36,4.3634,4.3667,4.3684,4.3736,4.3835,4.3835,4.3851,4.3883,4.3865,4.3899,4.3899,4.3883,4.3865,4.3883,4.3883,4.3883,4.3851,4.3835,4.3769,4.3669,4.3635,4.3617,4.3617,4.3548,4.3531,4.3531,4.3513,4.3479,4.3479,4.3479,4.3513,4.3531,4.3531,4.3565,4.3692,4.3859,4.4027,4.4119,4.4763,4.5296,4.5847,4.6874,4.77,4.8177,4.8324,4.8324,4.8324,4.8324,4.8324,4.8324,4.8324,4.8324,4.8324,4.8324,4.8324,4.8398,4.8728,4.882,4.893,4.9114,4.9426,4.9866,5.0124,5.0362,5.0545,5.071,5.1059,5.1206,5.1499,5.1461,5.1087,5.0965,5.0994,5.0982,5.1089,5.1223,5.1296,5.1464,5.1817,5.2229,5.2678,5.2817,5.2897,5.3023,5.3088,4.7088,4.7201,4.7223,4.7249,4.7341,4.7468,4.7533,4.7533,4.7636,4.7678,4.772,4.7822,4.787,4.8012,4.7945,4.7806,4.7223,4.7223,4.6728,4.6397,4.6065,4.5475,4.4209,4.4118,4.3989,4.386,4.3746,4.3708,4.3688,4.3736,4.3804,4.3802,4.382,4.3867,4.3947,4.3963,4.3976,4.402,4.4036,4.4055,4.4055,4.4055,4.4055,4.4055,4.4055,4.4026,4.3963,4.3929,4.3881,4.3818,4.3802,4.3788,4.3771,4.3667,4.3615,4.3599,4.3565,4.3549,4.3549,4.3566,4.3566,4.3617,4.3634,4.376,4.3996,4.4423,4.4757,4.4958,4.5606,4.636,4.7114,4.7922,4.8216,4.8363,4.8344,4.8344,4.8325,4.8324,4.8324,4.8324,4.8324,4.8324,4.8324,4.8379,4.8471,4.8857,4.9205,4.9609,4.9756,4.9958,5.0343,5.0802,5.0949,5.1004,5.1132,5.1224,5.1665,5.2013,5.2433,5.247,5.1784,5.1666,5.1764,5.1864,5.1905,5.2102,5.232,5.2561,5.2714,5.278,5.2922,5.2984,5.3045,5.3193,5.3277,4.7223,4.7276,4.7403,4.7446,4.749,4.7615,4.7657,4.7657,4.7696,4.7699,4.7738,4.784,4.7927,4.8012,4.813,4.8118,4.8012,4.7976,4.7665,4.7077,4.7075,4.6594,4.5765,4.5617,4.5267,4.4861,4.4677,4.4398,4.3992,4.3933,4.3855,4.392,4.3982,4.4008,4.4104,4.4165,4.4226,4.424,4.424,4.4226,4.4226,4.4226,4.4226,4.4226,4.4226,4.4195,4.4153,4.4138,4.4073,4.3961,4.3883,4.3837,4.382,4.3769,4.3734,4.3736,4.3736,4.3719,4.3719,4.3719,4.3754,4.381,4.3882,4.4064,4.4692,4.4914,4.5321,4.5838,4.6614,4.737,4.8034,4.8366,4.8495,4.8495,4.8514,4.8514,4.8495,4.8401,4.8325,4.8325,4.8361,4.8324,4.8398,4.9079,4.9263,4.939,4.9867,5.0417,5.0675,5.0842,5.1285,5.1783,5.1838,5.1893,5.2095,5.2151,5.2334,5.261,5.2994,5.3233,5.2564,5.2336,5.2459,5.2556,5.2649,5.2831,5.2893,5.2915,5.2926,5.3005,5.3109,5.3172,5.3256,5.338,5.3461,4.7873,4.7907,4.7652,4.7533,4.7575,4.7675,4.7699,4.7699,4.7699,4.7738,4.7801,4.7904,4.8008,4.8108,4.8189,4.8286,4.8382,4.842,4.8255,4.796,4.7995,4.7827,4.7585,4.7361,4.6952,4.5813,4.5591,4.5312,4.5014,4.4691,4.4626,4.4544,4.4343,4.418,4.4244,4.4322,4.4285,4.4318,4.4318,4.4318,4.4318,4.4318,4.4318,4.4318,4.43,4.427,4.4259,4.4244,4.4211,4.4131,4.4073,4.3979,4.3915,4.3867,4.3851,4.3835,4.382,4.3804,4.3788,4.3822,4.3987,4.4406,4.4389,4.4903,4.5568,4.5993,4.6366,4.6867,4.7496,4.8162,4.8531,4.8569,4.8587,4.8587,4.8587,4.8587,4.8605,4.8513,4.8439,4.855,4.8826,4.901,4.9304,4.9819,5.017,5.0355,5.0981,5.1534,5.1718,5.194,5.2307,5.2677,5.2712,5.2841,5.3099,5.3154,5.3083,5.3175,5.3267,5.3396,5.3136,5.3093,5.3159,5.3109,5.3005,5.3027,5.3088,5.3109,5.3151,5.3256,5.3318,5.338,5.342,5.3519,5.3599,4.8776,4.8832,4.8038,4.7795,4.7859,4.7769,4.7699,4.7699,4.7738,4.7819,4.7902,4.7988,4.809,4.8187,4.8286,4.8401,4.8495,4.8606,4.8531,4.8549,4.8656,4.8672,4.8669,4.8607,4.8198,4.6751,4.6596,4.6481,4.6143,4.589,4.5581,4.5482,4.5073,4.4838,4.4647,4.4549,4.4556,4.4453,4.4416,4.4416,4.4401,4.4401,4.4401,4.4401,4.4387,4.434,4.4344,4.4329,4.4314,4.4318,4.4318,4.4226,4.4101,4.4008,4.3963,4.3961,4.3947,4.4061,4.4246,4.4233,4.4524,4.5243,4.5352,4.5793,4.6603,4.7163,4.7536,4.7893,4.8358,4.8675,4.8695,4.8731,4.8731,4.8713,4.8695,4.8733,4.8844,4.8826,4.8919,4.8956,4.9307,4.9602,5.0137,5.0691,5.1006,5.1395,5.2041,5.2502,5.2688,5.2834,5.3073,5.3201,5.3162,5.3123,5.3345,5.3439,5.3459,5.3479,5.3499,5.3499,5.3499,5.3418,5.3357,5.3314,5.3233,5.3274,5.3295,5.3297,5.3359,5.3499,5.3519,5.3539,5.3598,5.3675,5.3754,4.9744,4.9796,4.8996,4.8692,4.8583,4.8007,4.7735,4.7738,4.7801,4.7881,4.7922,4.8068,4.8187,4.8246,4.8418,4.8513,4.8624,4.8714,4.8785,4.8855,4.8962,4.9049,4.9098,4.9146,4.8905,4.8644,4.8066,4.7428,4.6893,4.6529,4.6508,4.6486,4.6379,4.6083,4.5612,4.55,4.5279,4.4936,4.4799,4.4724,4.4724,4.463,4.4592,4.4592,4.4551,4.451,4.4454,4.4416,4.4373,4.4314,4.4318,4.4341,4.4453,4.4423,4.439,4.4307,4.4311,4.4522,4.5044,4.5187,4.5628,4.62,4.6408,4.6837,4.7506,4.7898,4.824,4.8669,4.8911,4.9079,4.9077,4.9027,4.9079,4.9062,4.9142,4.9295,4.9743,4.9912,4.9878,4.9972,5.0102,5.0287,5.0971,5.1563,5.197,5.2285,5.2691,5.3043,5.3191,5.3282,5.3391,5.3445,5.3444,5.3444,5.3499,5.3481,5.3501,5.3559,5.3579,5.3599,5.3579,5.3519,5.3459,5.3499,5.3477,5.3418,5.3439,5.3479,5.3519,5.3599,5.3657,5.3695,5.3754,5.3832,5.3944,5.066,5.0615,4.9854,4.9293,4.8894,4.8578,4.8182,4.7819,4.7925,4.8006,4.8087,4.8187,4.8304,4.8381,4.8476,4.8605,4.8767,4.8925,4.9012,4.9081,4.9115,4.9166,4.9211,4.9276,4.9289,4.9227,4.8952,4.8568,4.7996,4.7601,4.7479,4.7372,4.7207,4.6807,4.6563,4.6511,4.6326,4.5938,4.5612,4.5372,4.5297,4.5014,4.4768,4.4717,4.4723,4.4632,4.4605,4.4578,4.4795,4.5106,4.5186,4.5392,4.5618,4.5679,4.549,4.5092,4.4935,4.5271,4.5963,4.6149,4.6504,4.7214,4.738,4.7775,4.8354,4.8674,4.8781,4.9046,4.9214,4.9197,4.9179,4.9232,4.9197,4.9272,4.9519,4.9933,5.0344,5.0701,5.0986,5.1231,5.1473,5.1677,5.1862,5.2437,5.2918,5.3232,5.3436,5.3547,5.3639,5.3658,5.3678,5.3678,5.3678,5.3678,5.3659,5.3659,5.3659,5.3678,5.3698,5.3717,5.3756,5.3737,5.3794,5.3832,5.3774,5.3619,5.3617,5.3637,5.3696,5.3754,5.3832,5.3907,5.3944,5.4,5.4091,5.1538,5.1466,5.0714,5.0007,4.9481,4.9374,4.8907,4.827,4.8263,4.8274,4.8226,4.8305,4.8401,4.8513,4.8624,4.8767,4.8978,4.9129,4.9197,4.9228,4.9244,4.9244,4.934,4.9402,4.948,4.9476,4.9514,4.954,4.9106,4.8693,4.8514,4.839,4.7876,4.7518,4.7518,4.7475,4.7437,4.7049,4.6671,4.6312,4.6072,4.5638,4.5242,4.5242,4.521,4.5291,4.5423,4.5415,4.566,4.6024,4.6264,4.6504,4.7051,4.7216,4.6859,4.6225,4.596,4.6297,4.6817,4.7076,4.7462,4.8287,4.835,4.8709,4.9008,4.9224,4.9286,4.9292,4.9308,4.9308,4.9361,4.9482,4.9541,4.9711,5.0254,5.08,5.1192,5.1643,5.2243,5.2545,5.2846,5.294,5.2958,5.3089,5.3498,5.3572,5.3777,5.3777,5.387,5.3851,5.387,5.387,5.387,5.387,5.387,5.3851,5.387,5.3926,5.3926,5.3945,5.3981,5.4036,5.4073,5.4037,5.3907,5.3793,5.3793,5.3831,5.3888,5.3945,5.4036,5.4091,5.411,5.4128,5.42,5.2353,5.2304,5.1615,5.1296,5.1064,5.0499,4.9797,4.914,4.9188,4.8849,4.8526,4.8456,4.8587,4.8642,4.8803,4.8995,4.9129,4.9211,4.9308,4.9368,4.9402,4.9464,4.9604,4.963,4.963,4.963,4.9673,4.9678,4.9581,4.9449,4.9441,4.9343,4.9206,4.906,4.8455,4.8426,4.8043,4.7522,4.7327,4.7232,4.7156,4.7011,4.6916,4.6903,4.6877,4.6781,4.6673,4.6633,4.6833,4.6984,4.706,4.7121,4.7216,4.7216,4.7617,4.765,4.7542,4.7349,4.8003,4.8158,4.8407,4.9104,4.9359,4.9521,4.9533,4.9589,4.9589,4.9634,4.9619,4.9649,4.9773,5.0206,5.0457,5.0788,5.119,5.1926,5.2415,5.2546,5.3167,5.3432,5.3604,5.3736,5.3811,5.3923,5.4054,5.4073,5.4073,5.4073,5.4055,5.4018,5.4,5.3981,5.4,5.4,5.4,5.3981,5.4055,5.4091,5.4128,5.411,5.4163,5.4199,5.4146,5.411,5.4,5.3981,5.4019,5.4055,5.4091,5.411,5.4163,5.4218,5.4254,5.4289,5.4307,5.2667,5.2631,5.2348,5.1952,5.1537,5.1262,5.0783,5.0204,5.0195,5.013,4.9841,4.9492,4.9249,4.9092,4.9077,4.9211,4.9324,4.9409,4.9464,4.954,4.957,4.9615,4.9678,4.9736,4.9731,4.9778,4.9788,4.9816,4.9788,4.975,4.9707,4.975,4.9745,4.9603,4.9275,4.9367,4.9205,4.8865,4.8473,4.7985,4.7656,4.7542,4.7536,4.7479,4.7492,4.7472,4.7433,4.735,4.7602,4.7867,4.8056,4.8302,4.8605,4.8775,4.8945,4.9116,4.8945,4.8885,4.9103,4.9122,4.9348,4.9522,4.9726,4.9678,4.9711,4.9726,4.9726,4.9711,4.9711,4.9904,5.0266,5.0647,5.1085,5.1547,5.2215,5.265,5.3257,5.3675,5.3977,5.417,5.4285,5.4251,5.4216,5.4163,5.4145,5.4146,5.4128,5.4128,5.411,5.4073,5.4073,5.4073,5.4091,5.4091,5.4091,5.4073,5.4128,5.4182,5.4236,5.4235,5.4269,5.4287,5.4252,5.4252,5.4252,5.4252,5.4269,5.4234,5.4218,5.4235,5.4253,5.4306,5.4359,5.4414,5.4542,5.2934,5.2915,5.289,5.2525,5.202,5.2123,5.1773,5.1196,5.1201,5.1227,5.1083,5.0692,5.0253,4.9992,4.9998,5.0043,4.9833,4.989,4.978,4.9782,4.9736,4.9736,4.9778,4.9821,4.983,4.9862,4.9898,4.9925,4.9912,4.9871,4.9848,4.9835,4.9862,4.9852,4.992,4.9916,4.9841,4.9784,4.9385,4.8915,4.8452,4.8338,4.8294,4.8219,4.815,4.8125,4.8087,4.815,4.8567,4.8871,4.9041,4.9269,4.9648,4.97,4.9724,4.9819,4.9686,4.9698,4.9711,4.9674,4.9745,4.9764,4.9764,4.9778,4.9764,4.975,4.9958,5.0161,5.0199,5.0595,5.1076,5.1454,5.1952,5.2579,5.3205,5.3503,5.3767,5.4102,5.4317,5.4413,5.4458,5.4405,5.4337,5.4251,5.4217,5.4199,5.4199,5.4181,5.4181,5.4181,5.4199,5.4217,5.4217,5.4217,5.4217,5.4217,5.4234,5.4271,5.4307,5.4342,5.4357,5.4356,5.4357,5.4392,5.4426,5.4392,5.4321,5.4323,5.4324,5.4323,5.4321,5.4373,5.4426,5.4574,5.5057,5.3212,5.3238,5.3085,5.3008,5.3041,5.3182,5.2806,5.2205,5.2207,5.1916,5.1564,5.15,5.1578,5.1541,5.1383,5.1199,5.079,5.0824,5.0529,5.0137,4.9844,5.0094,5.0212,5.0239,5.0109,5.0092,5.0195,5.0183,5.007,5.0031,4.9978,4.9925,4.9952,4.9978,4.9999,5.0057,5.0108,5.0089,4.9904,4.9911,4.9733,4.9701,4.9689,4.9765,4.9829,4.9924,4.9892,4.967,4.9632,4.9841,4.9791,4.981,5.0,5.0057,5.0057,5.0057,5.0057,5.0031,5.0005,4.9939,4.9898,4.9879,4.9885,4.9941,5.0098,4.996,5.0263,5.0936,5.1036,5.1457,5.2128,5.276,5.2991,5.3467,5.3921,5.4185,5.434,5.4403,5.46,5.4638,5.4606,5.4541,5.4455,5.4354,5.4321,5.4304,5.4304,5.4287,5.4323,5.4323,5.4357,5.4357,5.4375,5.4375,5.4375,5.4375,5.434,5.434,5.4376,5.4375,5.439,5.4426,5.4443,5.446,5.4493,5.4443,5.4501,5.4689,5.4745,5.4484,5.4482,5.4832,5.5166,5.5463,5.6061,5.3398,5.3439,5.3357,5.3336,5.338,5.3418,5.3354,5.3233,5.3215,5.2903,5.2391,5.2493,5.2346,5.2143,5.2071,5.1997,5.1767,5.1763,5.1542,5.1505,5.1452,5.1475,5.1497,5.1367,5.1368,5.0976,5.0843,5.0501,5.0114,5.0311,5.012,5.0044,5.0209,5.0038,5.0063,5.0114,5.0163,5.0219,5.0219,5.0219,5.0219,5.0219,5.0188,5.017,5.0151,5.0145,5.007,5.0095,5.0108,5.0108,5.0108,5.0108,5.0139,5.012,5.0127,5.0108,5.012,5.0158,5.0165,5.0095,5.0031,5.0012,5.005,5.0233,5.0662,5.0743,5.1152,5.1637,5.1964,5.231,5.3072,5.3436,5.3686,5.4186,5.453,5.4738,5.4799,5.4767,5.4752,5.4752,5.4689,5.4606,5.4522,5.4472,5.4441,5.439,5.4409,5.4409,5.4409,5.4409,5.4409,5.4426,5.4426,5.4426,5.4426,5.4426,5.4409,5.4445,5.4463,5.461,5.4664,5.4474,5.451,5.4543,5.4766,5.4992,5.5181,5.5275,5.5202,5.4999,5.5239,5.5647,5.5982,5.6373,5.7045,5.3599,5.3599,5.3639,5.3639,5.3599,5.3599,5.3698,5.387,5.387,5.3738,5.3423,5.3503,5.3357,5.3019,5.299,5.2859,5.2786,5.2735,5.2575,5.2423,5.2346,5.252,5.2547,5.2441,5.2125,5.1859,5.1745,5.144,5.1116,5.0932,5.1046,5.1085,5.0862,5.0786,5.0139,5.0207,5.0255,5.029,5.0302,5.0302,5.029,5.029,5.0278,5.0243,5.0224,5.02,5.0175,5.0182,5.0182,5.017,5.017,5.017,5.017,5.0158,5.0177,5.0177,5.0177,5.0272,5.0443,5.0234,5.0279,5.0514,5.0552,5.0963,5.1444,5.1716,5.2031,5.2689,5.2845,5.3168,5.393,5.4147,5.4242,5.4648,5.4705,5.4875,5.4856,5.4841,5.4826,5.481,5.4749,5.4689,5.4638,5.459,5.4491,5.4441,5.4409,5.4409,5.4409,5.4409,5.4409,5.4426,5.4443,5.4443,5.446,5.4568,5.4693,5.4712,5.4785,5.5013,5.5049,5.4952,5.5195,5.5645,5.5847,5.5805,5.5956,5.6203,5.5942,5.5534,5.5979,5.6517,5.71,5.7529,5.8032,5.3775,5.3832,5.4,5.3963,5.3794,5.3793,5.3907,5.4091,5.4109,5.4178,5.4257,5.4441,5.4554,5.4484,5.4345,5.4084,5.3726,5.3704,5.3447,5.3019,5.3069,5.2829,5.2842,5.2913,5.3028,5.2768,5.2666,5.2616,5.2474,5.2271,5.2398,5.2417,5.2157,5.1763,5.039,5.0324,5.0347,5.0359,5.0474,5.0436,5.0455,5.0417,5.029,5.029,5.0259,5.0248,5.0248,5.0236,5.0255,5.0255,5.0255,5.0312,5.0458,5.0458,5.0496,5.0565,5.0527,5.0832,5.1424,5.0627,5.0774,5.1269,5.1396,5.1783,5.2347,5.2639,5.2884,5.3599,5.3737,5.4069,5.4533,5.4825,5.4825,5.4844,5.4882,5.4901,5.4886,5.4886,5.4871,5.4856,5.4829,5.4802,5.4752,5.4705,5.4573,5.451,5.4443,5.4445,5.448,5.446,5.4495,5.4625,5.4677,5.4884,5.4936,5.4907,5.494,5.4994,5.5241,5.564,5.5979,5.6163,5.6465,5.6821,5.6779,5.6622,5.6887,5.7227,5.7154,5.7154,5.7054,5.7465,5.8102,5.8611,5.8965,5.4,5.4,5.4073,5.411,5.4129,5.4037,5.4091,5.4217,5.432,5.4439,5.4592,5.472,5.4767,5.4814,5.4867,5.4756,5.461,5.4624,5.4343,5.4229,5.4164,5.4324,5.4293,5.4167,5.4078,5.3741,5.3588,5.3296,5.2728,5.2977,5.2862,5.2785,5.3015,5.2506,5.2093,5.1964,5.1983,5.1868,5.1544,5.115,5.1104,5.0684,5.0397,5.0417,5.0436,5.0455,5.0474,5.0531,5.0531,5.0512,5.0531,5.0684,5.1028,5.1142,5.1391,5.1735,5.1926,5.2059,5.2327,5.203,5.2037,5.2285,5.2387,5.2698,5.3365,5.3465,5.3892,5.4311,5.442,5.468,5.4844,5.4882,5.4882,5.4882,5.4901,5.4901,5.4901,5.4901,5.4886,5.4886,5.4875,5.4905,5.4893,5.5086,5.501,5.5053,5.5061,5.4802,5.4762,5.4684,5.4662,5.4888,5.5039,5.5322,5.5505,5.5667,5.5891,5.6099,5.6309,5.6614,5.6932,5.7246,5.7335,5.7484,5.7459,5.7437,5.7892,5.8343,5.8816,5.8946,5.8527,5.8432,5.8962,5.9338,5.9579,5.4163,5.4163,5.4199,5.4271,5.4288,5.4199,5.4234,5.4375,5.4541,5.4654,5.4736,5.4799,5.4841,5.4886,5.4941,5.5028,5.5042,5.5107,5.5116,5.5149,5.5216,5.5128,5.5198,5.532,5.4919,5.4619,5.4486,5.4218,5.3894,5.3741,5.3798,5.3855,5.3683,5.3798,5.355,5.3225,5.2652,5.2499,5.2174,5.2002,5.1868,5.1582,5.1276,5.1276,5.1257,5.1238,5.1181,5.1142,5.1142,5.1123,5.1219,5.1391,5.1849,5.2098,5.2308,5.2671,5.3129,5.3168,5.3225,5.3664,5.369,5.3766,5.3473,5.3677,5.4237,5.4375,5.4536,5.4829,5.4933,5.4912,5.4901,5.4901,5.4901,5.4901,5.4901,5.4901,5.4901,5.4901,5.4939,5.4939,5.5072,5.5083,5.5261,5.5378,5.552,5.5634,5.5712,5.5435,5.5214,5.5158,5.5252,5.5554,5.5834,5.6193,5.6493,5.6657,5.69,5.7168,5.7413,5.764,5.7919,5.8232,5.8205,5.824,5.8448,5.8694,5.9046,5.9441,5.9573,5.9608,5.9431,5.9545,5.9912,5.995,5.9982,5.4289,5.4326,5.4393,5.4409,5.4392,5.434,5.4409,5.4522,5.4702,5.4783,5.4799,5.4875,5.4916,5.4985,5.5,5.5057,5.5127,5.5195,5.5203,5.5248,5.5326,5.5358,5.5371,5.5371,5.5256,5.5313,5.525,5.504,5.525,5.4963,5.5002,5.5154,5.4944,5.4925,5.4543,5.3989,5.3359,5.332,5.3034,5.29,5.2747,5.2594,5.2365,5.2327,5.2346,5.2346,5.2365,5.2403,5.2461,5.2537,5.2614,5.2709,5.2817,5.2855,5.2843,5.3148,5.3817,5.4027,5.4218,5.4753,5.4963,5.4811,5.4454,5.474,5.4925,5.4993,5.4988,5.4976,5.5,5.4941,5.4916,5.4901,5.4901,5.4901,5.4901,5.4901,5.4901,5.4939,5.4996,5.511,5.5318,5.553,5.6061,5.6235,5.6299,5.645,5.6586,5.663,5.639,5.6074,5.6226,5.6641,5.6922,5.7238,5.7478,5.7683,5.7948,5.8251,5.8438,5.8681,5.896,5.9105,5.9118,5.9248,5.9614,5.982,5.9751,5.9801,5.9931,5.9927,5.9882,5.9905,6.0045,6.0041,6.0053,5.4393,5.4375,5.4392,5.4424,5.4489,5.4608,5.4673,5.4717,5.4783,5.4833,5.4871,5.4886,5.4941,5.5,5.5057,5.5107,5.5195,5.528,5.5326,5.5358,5.5371,5.539,5.539,5.539,5.539,5.539,5.539,5.539,5.5365,5.539,5.539,5.5352,5.539,5.539,5.5199,5.4887,5.4639,5.4371,5.3951,5.3779,5.3531,5.3282,5.3129,5.3034,5.3053,5.3053,5.3053,5.2996,5.2996,5.2919,5.2862,5.2996,5.3722,5.376,5.3874,5.46,5.4925,5.5021,5.5078,5.525,5.539,5.5371,5.5001,5.5013,5.5178,5.5195,5.5107,5.5057,5.4985,5.4931,5.4901,5.4901,5.4901,5.4901,5.4939,5.4977,5.5015,5.5166,5.5261,5.5811,5.6,5.6417,5.6929,5.7081,5.7125,5.7311,5.7482,5.7637,5.7529,5.7213,5.7254,5.767,5.7951,5.8211,5.8527,5.8751,5.9033,5.9298,5.9368,5.9438,5.9548,5.9678,5.9918,5.9994,5.9994,6.0026,6.0034,6.0103,6.0152,6.0152,6.011,6.0114,6.0118,6.0163,6.0178,5.4441,5.4441,5.4491,5.4576,5.4619,5.4752,5.4814,5.4829,5.4845,5.4875,5.4901,5.4931,5.499,5.5038,5.5107,5.5176,5.528,5.5345,5.5371,5.5371,5.539,5.539,5.539,5.539,5.539,5.539,5.539,5.539,5.539,5.539,5.539,5.539,5.539,5.539,5.5333,5.5256,5.5313,5.5116,5.4906,5.4696,5.4352,5.4046,5.3932,5.3741,5.376,5.376,5.376,5.3741,5.3779,5.3817,5.3836,5.4027,5.46,5.4658,5.4696,5.5269,5.5294,5.5294,5.5294,5.5333,5.539,5.5358,5.5261,5.5183,5.513,5.5113,5.5052,5.4995,5.4941,5.4901,5.4901,5.4901,5.4901,5.4901,5.4996,5.5072,5.5242,5.5432,5.5925,5.6569,5.7005,5.7422,5.7706,5.7839,5.8104,5.8483,5.8726,5.8818,5.865,5.8259,5.8375,5.8716,5.8941,5.9165,5.9425,5.9514,5.9605,5.9697,5.9766,5.9874,6.0041,6.0057,6.0072,6.0068,6.0084,6.0114,6.0178,6.0226,6.0256,6.0289,6.0318,6.0342,6.0342,6.0342,6.0356,5.4522,5.4522,5.4657,5.472,5.4802,5.4799,5.4845,5.4905,5.4886,5.4901,5.4916,5.4956,5.5028,5.508,5.5143,5.5248,5.5326,5.539,5.539,5.539,5.539,5.539,5.539,5.539,5.539,5.539,5.539,5.539,5.539,5.539,5.539,5.539,5.539,5.539,5.539,5.539,5.539,5.5333,5.5288,5.5193,5.525,5.5294,5.539,5.5256,5.5218,5.5218,5.5256,5.5313,5.539,5.5384,5.5345,5.525,5.5269,5.5288,5.5345,5.5365,5.539,5.539,5.539,5.539,5.539,5.5339,5.5261,5.5208,5.5121,5.5052,5.4995,5.4971,5.4916,5.4901,5.4901,5.4958,5.4977,5.5204,5.5413,5.5735,5.6133,5.6436,5.6986,5.757,5.8003,5.8398,5.8663,5.8812,5.8919,5.9514,5.9684,5.9735,5.9564,5.915,5.9264,5.9533,5.9586,5.9659,5.977,5.9858,5.9927,6.0034,6.0068,6.0103,6.0137,6.0133,6.0148,6.0222,6.0294,6.0266,6.0299,6.0356,6.0417,6.0439,6.0499,6.0565,6.0565,6.0512,6.0499,5.4657,5.4657,5.4736,5.4767,5.4817,5.486,5.4871,5.4901,5.4901,5.4901,5.4916,5.499,5.5042,5.5107,5.5189,5.5294,5.5371,5.539,5.539,5.539,5.539,5.539,5.539,5.539,5.539,5.539,5.539,5.539,5.539,5.539,5.539,5.539,5.539,5.539,5.539,5.539,5.539,5.539,5.539,5.539,5.539,5.539,5.539,5.539,5.539,5.539,5.539,5.539,5.539,5.5371,5.5371,5.5371,5.5371,5.539,5.539,5.539,5.539,5.539,5.539,5.539,5.539,5.5358,5.528,5.5195,5.5127,5.5023,5.4985,5.4946,5.4935,5.4901,5.4958,5.5015,5.5148,5.5508,5.5906,5.6474,5.7043,5.7589,5.8082,5.8511,5.8979,5.926,5.9523,5.9706,5.987,5.9943,5.9981,5.9996,6.0011,5.9783,5.9756,5.9931,5.9905,5.9996,6.0087,6.0118,6.0148,6.0148,6.0178,6.0212,6.0226,6.0285,6.0337,6.0453,6.0525,6.0472,6.0458,6.0525,6.0565,6.0578,6.0585,6.0642,6.0655,6.0617,6.0604,5.4736,5.4736,5.4814,5.4826,5.4841,5.4886,5.4901,5.4901,5.4931,5.4946,5.496,5.5014,5.508,5.5168,5.5235,5.5294,5.539,5.539,5.539,5.539,5.539,5.539,5.539,5.539,5.539,5.539,5.539,5.539,5.539,5.539,5.539,5.539,5.539,5.539,5.539,5.539,5.539,5.539,5.539,5.539,5.539,5.539,5.539,5.539,5.539,5.539,5.539,5.539,5.539,5.539,5.539,5.539,5.539,5.539,5.539,5.539,5.539,5.539,5.539,5.539,5.539,5.5358,5.528,5.5176,5.5162,5.5094,5.5,5.496,5.4916,5.4901,5.5129,5.5223,5.5583,5.5962,5.6546,5.7153,5.7939,5.8669,5.9045,5.9361,5.9642,5.9699,5.9885,5.9885,6.003,6.0011,6.0084,6.0193,6.0207,6.0222,6.0251,6.0251,6.0222,6.0178,6.0182,6.0226,6.0285,6.0285,6.0285,6.0356,6.0425,6.048,6.0552,6.0604,6.0617,6.0578,6.0591,6.0642,6.0655,6.0655,6.066,6.0685,6.0717,6.0729,6.0717,5.4814,5.4814,5.489,5.4901,5.4901,5.4916,5.4916,5.4931,5.4985,5.5028,5.5042,5.5099,5.5149,5.5235,5.5345,5.5371,5.539,5.539,5.539,5.539,5.539,5.539,5.539,5.539,5.539,5.539,5.539,5.539,5.539,5.539,5.539,5.539,5.539,5.539,5.539,5.539,5.539,5.539,5.539,5.539,5.539,5.539,5.539,5.539,5.539,5.539,5.539,5.539,5.539,5.539,5.539,5.539,5.539,5.539,5.539,5.539,5.539,5.539,5.539,5.539,5.539,5.5358,5.5261,5.5235,5.5241,5.5306,5.5247,5.5246,5.5188,5.5249,5.5477,5.5818,5.6216,5.6766,5.7427,5.7977,5.8851,5.9578,5.9817,6.0061,6.0095,6.0114,6.0148,6.0129,6.0144,6.0144,6.0173,6.0299,6.0356,6.0384,6.0412,6.0412,6.0384,6.0342,6.0332,6.0361,6.0412,6.0439,6.0453,6.0552,6.0617,6.0642,6.0635,6.0648,6.068,6.0704,6.0717,6.0765,6.0753,6.0753,6.0788,6.0823,6.0823,6.0854,6.0835,5.489,5.489,5.4905,5.4901,5.4916,5.4956,5.4971,5.4985,5.5038,5.5107,5.5149,5.5176,5.5203,5.5235,5.5326,5.539,5.539,5.539,5.539,5.539,5.539,5.539,5.539,5.539,5.539,5.539,5.539,5.539,5.539,5.539,5.539,5.539,5.539,5.539,5.539,5.539,5.539,5.539,5.539,5.539,5.539,5.539,5.539,5.539,5.539,5.539,5.539,5.539,5.539,5.539,5.539,5.539,5.539,5.539,5.539,5.539,5.539,5.539,5.539,5.539,5.539,5.5409,5.5364,5.5465,5.5662,5.6074,5.6068,5.6193,5.6169,5.6174,5.6421,5.692,5.738,5.8193,5.8897,5.9216,5.9794,5.9957,6.0068,6.0188,6.0246,6.0299,6.0342,6.037,6.0439,6.0439,6.0439,6.0512,6.0525,6.0552,6.0578,6.0565,6.0533,6.0552,6.0539,6.0525,6.0559,6.0591,6.0617,6.068,6.0729,6.0734,6.0746,6.0788,6.0846,6.09,6.0911,6.0877,6.09,6.09,6.0933,6.0965,6.0974,6.0944,6.0922]}]]